     2              OBSERVATION DATA    GPS                 RINEX VERSION / TYPE
teqc 1998Mar9 19981006 17:42:07UTC                          PGM / RUN BY / DATE
                                                            COMMENT
Original Marker Name: 1315                                  COMMENT
Campaign Name: HPGN 1998                                    COMMENT
4-Character Station Name: 1315                              COMMENT
6-Character Antenna Code: TRMCMP                            COMMENT
Vertical Measurement Point: BPA                             COMMENT
Vertical Offset to Rinex Ref. Point: 0.0000                 COMMENT
Radial Measurement Point: RRP                               COMMENT
Radial Offset to Rinex Ref. Point: 0.0000                   COMMENT
Antenna Height from Field Measurement: 2.0000 m             COMMENT
Original XYZ: -2694306.9899 -4423507.4540 3709782.7011      COMMENT
New XYZ position is based on association with SCEC monument COMMENT
E1F0M1X6+0011. Position of that monument is believed to be  COMMENT
valid to within 1 m horizontally; vertical accuracy         COMMENT
should be no worse than 3-times this value.                 COMMENT
                                                            COMMENT
Revised Rinex header created by UCSD GPS archive for        COMMENT
GSAC on 31-Aug-1999 (1999:243) 01:14:41 GMT                 COMMENT
For assistance contact dagnew@ucsd.edu or hjohnson@ucsd.edu COMMENT
                                                            COMMENT
Q 1315                                                      MARKER NAME
unknown CALIF DEPT TRANSPORTATION                           OBSERVER / AGENCY
4869 TRIMBLE 4000 SSE NP 7.25; SP 3.07                      REC # / TYPE / VERS
76725 TR GEOD L1/L2 GP                                      ANT # / TYPE
 -2694307.0000 -4423513.0000  3709787.0000                  APPROX POSITION XYZ
        2.0000        0.0000        0.0000                  ANTENNA: DELTA H/E/N
     1     1     0                                          WAVELENGTH FACT L1/2
     7    L1    L2    C1    P2    P1    D1    D2            # / TYPES OF OBSERV
     0                                                      INTERVAL
  1998     7     7    15    31   15.000000                  TIME OF FIRST OBS
  1998     7     7    21     1   15.000000                  TIME OF LAST OBS
                                                            END OF HEADER
 98  7  7 15 31 15.0000000  0  8G24G 4G 5G30G10G 8G 9G 6
    123014.32657    113005.20556  20212909.5084   20212912.4384
      -637.2974       -496.5954
   3804654.49556   2955891.37756  21693330.8204   21693333.2704
     -2917.6414      -2273.4864
  -1913566.31557  -1485816.13456  20603357.2424   20603358.9654
       864.5004        673.6364
  -4060133.92156  -3031143.65655  22676364.0864   22676365.9144
      2451.8754       1910.5524
  -2438314.53954  -1740343.48553  24080978.2274   24080982.3404
      2631.8914       2050.8244
    279960.48156    218150.41056  21296800.6334   21296802.6024
      -818.2034       -637.5614
   3794714.76856   2952514.70156  22026482.3204   22026484.7704
     -2900.8754      -2260.4224
   -234726.51452    -68740.52952  24771310.5234   24771315.2934
      1914.1254       1491.5264
 98  7  7 15 31 30.0000000  0  8G24G 4G 5G30G10G 8G 9G 6
    132655.07547    120517.47646  20214744.1174   20214746.5784
      -648.0474       -504.9724
   3848479.79946   2990040.94646  21701670.2734   21701672.5704
     -2925.6724      -2279.7444
  -1926476.56547  -1495876.06446  20600900.6644   20600902.4104
       856.9534        667.7564
  -4096884.50646  -3059780.45145  22669370.5704   22669372.8204
      2448.2664       1907.7394
  -2477775.36744  -1771092.16442  24073468.6724   24073473.9694
      2629.6094       2049.0464
    292327.75346    227787.23346  21299153.8284   21299155.8324
      -830.6564       -647.2654
   3838283.83246   2986464.59246  22034772.9384   22034776.0204
     -2908.2664      -2266.1814
   -263418.72042    -91098.05341  24765850.7584   24765857.8054
      1911.5474       1489.5174
 98  7  7 15 31 45.0000000  0  8G24G 4G 5G30G10G 8G 9G 6
    142457.37747    128155.63946  20216609.3594   20216611.8914
      -658.8754       -513.4094
   3892427.75446   3024286.09046  21710033.6334   21710035.8244
     -2934.0314      -2286.2584
  -1939272.62547  -1505847.01446  20598465.5784   20598467.1484
       849.2194        661.7294
  -4133581.66546  -3088375.61945  22662387.3054   22662389.4964
      2444.7034       1904.9634
  -2517202.13144  -1801814.27943  24065965.3524   24065970.6374
      2627.3134       2047.2564
    304880.96946    237568.95946  21301542.6484   21301544.9224
      -843.1094       -656.9684
   3881963.73646   3020500.85546  22043085.1484   22043087.8324
     -2915.7504      -2272.0134
   -292073.04843   -113426.10241  24760398.5944   24760403.3284
      1909.0784       1487.5934
 98  7  7 15 32  0.0000000  0  8G24G 4G 5G30G10G 8G 9G 6
    152420.23546    135918.89946  20218505.5864   20218508.3164
      -669.6094       -521.7744
   3936498.57046   3058626.97446  21718420.1174   21718422.6024
     -2942.1724      -2292.6014
  -1951954.01847  -1515728.61846  20596052.3754   20596054.0164
       841.5474        655.7514
  -4170226.47446  -3116929.99145  22655413.9924   22655416.2194
      2441.1724       1902.2124
  -2556596.00344  -1832510.77642  24058469.3364   24058475.1954
      2625.1254       2045.5524
    317619.26246    247494.89446  21303966.5234   21303968.5514
      -855.3754       -666.5264
   3925756.54746   3054625.09046  22051418.4694   22051421.2464
     -2923.3594      -2277.9424
   -320692.04542   -135726.64342  24754952.0554   24754956.4734
      1906.7194       1485.7554
 98  7  7 15 32 15.0000000  0  8G24G 4G 5G30G10G 8G 9G 6
    162546.07347    143809.15846  20220432.1254   20220434.8554
      -680.5474       -530.2964
   3980691.39846   3093062.91946  21726829.6414   21726832.4534
     -2950.2034      -2298.8604
  -1964517.66347  -1525518.46646  20593661.5704   20593663.1524
       833.5474        649.5174
  -4206818.03746  -3145442.87745  22648451.0554   22648454.3484
      2437.6724       1899.4854
  -2595955.65344  -1863180.65143  24050980.0004   24050984.4654
      2622.7814       2043.7264
    330541.29946    257564.01046  21306425.6954   21306427.6994
      -867.5784       -676.0354
   3969662.51246   3088837.49846  22059773.7974   22059776.2584
     -2930.8124      -2283.7504
   -349274.75642   -157998.87742  24749511.7034   24749515.9454
      1904.2814       1483.8564
 98  7  7 15 32 30.0000000  0  8G24G 4G 5G30G10G 8G 9G 6
    172834.71147    151826.27946  20222390.0864   20222392.9224
      -691.2664       -538.6494
   4025003.16346   3127591.55046  21735261.8914   21735264.3164
     -2958.0624      -2304.9844
  -1976961.55547  -1535215.00546  20591293.8984   20591295.3984
       825.6564        643.3694
  -4243358.55446  -3173915.97645  22641497.7584   22641500.1254
      2434.3754       1896.9164
  -2635279.78644  -1893822.74442  24043496.4454   24043501.7774
      2620.3594       2041.8384
    343644.57546    267774.35046  21308919.1414   21308921.4494
      -879.5784       -685.3864
   4013680.10546   3123136.88446  22068150.0634   22068152.2544
     -2938.2034      -2289.5094
   -377820.99642   -180242.71242  24744080.8914   24744084.1484
      1901.7504       1481.8834
 98  7  7 15 32 45.0000000  0  8G24G 4G 5G30G10G 8G 9G 6
    183280.77447    159966.07146  20224377.6024   20224380.3444
      -701.4534       -546.5874
   4069432.00346   3162211.41546  21743716.4694   21743719.3054
     -2965.7974      -2311.0114
  -1989289.28447  -1544821.02046  20588948.0474   20588949.5944
       818.0314        637.4274
  -4279849.39146  -3202350.38245  22634553.2734   22634555.3954
      2430.9844       1894.2744
  -2674567.11943  -1924436.24542  24036020.2114   24036025.6604
      2617.9224       2039.9394
    356926.64046    278124.00146  21311446.7584   21311448.4104
      -891.3754       -694.5784
   4057807.28546   3157521.66646  22076547.3914   22076549.4534
     -2945.4064      -2295.1224
   -406328.02042   -202455.89442  24738656.2664   24738657.7894
      1899.1564       1479.8624
 98  7  7 15 33  0.0000000  0  8G24G 4G 5G30G10G 8G 9G 6
    193878.94846    168224.38746  20226394.6884   20226397.3594
      -711.6254       -554.5134
   4113978.83446   3196923.21546  21752193.3054   21752195.9304
     -2973.7664      -2317.2204
  -2001499.77147  -1554335.68646  20586624.1644   20586625.8524
       810.0474        631.2054
  -4316285.96546  -3230742.48245  22627619.8754   22627621.9844
      2427.1564       1891.2914
  -2713813.97543  -1955018.23942  24028552.0554   24028555.8634
      2615.0634       2037.7114
    370387.56246    288613.02546  21314008.0164   21314010.1724
      -903.4224       -703.9654
   4102042.95846   3191990.98846  22084965.1334   22084967.6524
     -2952.6564      -2300.7714
   -434793.25442   -224636.56942  24733239.4774   24733245.8404
      1896.1724       1477.5374
 98  7  7 15 33 15.0000000  0  8G24G 4G 5G30G10G 8G 9G 6
    204629.73247    176601.61846  20228440.4454   20228443.0354
      -721.8444       -562.4764
   4158644.18746   3231727.37046  21760692.8284   21760695.2894
     -2981.6564      -2323.3694
  -2013591.13347  -1563757.51946  20584323.3134   20584325.2934
       802.1564        625.0574
  -4352661.10646  -3259086.72545  22620697.4454   22620700.0354
      2422.8134       1887.9064
  -2753020.27943  -1985568.56542  24021091.1564   24021096.8634
      2612.4384       2035.6664
    384030.27446    299243.70646  21316604.1414   21316606.3094
      -915.6724       -713.5114
   4146388.01646   3226545.56946  22093403.8204   22093406.7974
     -2960.0314      -2306.5184
   -463213.07743   -246782.04042  24727831.4534   24727835.2154
      1893.1414       1475.1754
 98  7  7 15 33 30.0000000  0  8G24G 4G 5G30G10G 8G 9G 6
    215533.84747    185098.32746  20230515.4924   20230517.9304
      -732.1724       -570.5244
   4203427.54446   3266623.47446  21769214.8204   21769217.0594
     -2989.5164      -2329.4934
  -2025565.96247  -1573088.55046  20582044.5634   20582046.5084
       794.4064        619.0184
  -4388970.47045  -3287379.70745  22613788.2734   22613790.9574
      2418.3594       1884.4364
  -2792189.48144  -2016089.99843  24013638.0634   24013643.5824
      2610.0314       2033.7914
    397855.31846    310016.45746  21319235.1804   21319237.4774
      -927.7504       -722.9224
   4190842.41346   3261185.33146  22101863.4064   22101866.3484
     -2967.2974      -2312.1794
   -491588.28543   -268892.51442  24722432.0554   24722435.5704
      1890.1884       1472.8734
 98  7  7 15 33 45.0000000  0  8G24G 4G 5G30G10G 8G 9G 6
    226594.05947    193716.68046  20232620.0864   20232622.4654
      -742.6414       -578.6814
   4248328.55446   3301611.26346  21777759.8134   21777762.4384
     -2997.3444      -2335.5934
  -2037424.57147  -1582329.02246  20579787.5634   20579789.4614
       786.6254        612.9554
  -4425213.84746  -3315621.28045  22606891.3134   22606893.6214
      2414.0164       1881.0514
  -2831323.58244  -2046584.06143  24006191.1564   24006198.5204
      2607.7974       2032.0504
    411859.60046    320928.87346  21321900.1724   21321902.1524
      -939.4844       -732.0664
   4235405.88646   3295910.08646  22110343.1644   22110346.0824
     -2974.6254      -2317.8904
   -519920.14742   -290969.31941  24717040.4384   24717044.1054
      1887.3284       1470.6454
 98  7  7 15 34  0.0000000  0  8G24G 4G 5G30G10G 8G 9G 6
    237813.97447    202459.47046  20234754.9924   20234757.5474
      -753.2344       -586.9364
   4293347.22246   3336690.72446  21786326.4614   21786329.2034
     -3005.0624      -2341.6074
  -2049163.73047  -1591476.41246  20577553.8054   20577555.7734
       778.6414        606.7334
  -4461391.44746  -3343811.59845  22600007.2584   22600009.9884
      2409.5944       1877.6064
  -2870422.21144  -2077050.54943  23998749.9304   23998755.4264
      2605.3594       2030.1504
    426040.52046    331978.92846  21324598.6094   21324600.6134
      -951.2504       -741.2344
   4280082.76846   3330723.20946  22118845.1954   22118847.6914
     -2982.3284      -2323.8924
   -548208.31642   -313012.07142  24711656.6254   24711660.6804
      1884.4224       1468.3814
 98  7  7 15 34 15.0000000  0  8G24G 4G 5G30G10G 8G 9G 6
    249191.85647    211325.34746  20236920.2344   20236922.6024
      -763.8284       -595.1914
   4338480.37246   3371859.39546  21794914.6564   21794917.1174
     -3012.7814      -2347.6224
  -2060782.91947  -1600530.32146  20575342.6954   20575344.6054
       770.5474        600.4264
  -4497499.81846  -3371947.96545  22593135.9454   22593138.2194
      2404.8284       1873.8924
  -2909483.42444  -2107487.80442  23991317.8204   23991323.6564
      2602.7974       2028.1534
    440396.67346    343165.53146  21327330.4844   21327332.4184
      -962.9374       -750.3414
   4324875.53046   3365626.63546  22127368.8204   22127371.3164
     -2990.0314      -2329.8944
   -576451.63242   -335019.86742  24706282.6484   24706288.7194
      1881.2814       1465.9334
 98  7  7 15 34 30.0000000  0  8G24G 4G 5G30G10G 8G 9G 6
    260728.09947    220314.62746  20239115.8444   20239118.3524
      -774.3124       -603.3604
   4383730.06446   3407118.87646  21803525.6334   21803528.2114
     -3020.4844      -2353.6244
  -2072280.88947  -1609489.77746  20573155.0234   20573156.6644
       762.5944        594.2294
  -4533537.14646  -3400028.97645  22586277.8204   22586280.5044
      2400.1094       1870.2154
  -2948506.17344  -2137895.15643  23983891.3524   23983896.3794
      2600.2504       2026.1694
    454929.20446    354489.57246  21330096.3054   21330098.6724
      -974.7194       -759.5214
   4369784.06746   3400620.25646  22135914.7424   22135916.8984
     -2997.8284      -2335.9704
   -604646.39842   -356989.79442  24700917.5084   24700920.7304
      1878.0474       1463.4134
 98  7  7 15 34 45.0000000  0  8G24G 4G 5G30G10G 8G 9G 6
    272419.95147    229425.15646  20241340.5944   20241343.3714
      -784.6564       -611.4204
   4429094.49846   3442467.76846  21812158.3284   21812160.5784
     -3028.0944      -2359.5544
  -2083661.71447  -1618357.95446  20570989.2584   20570990.7114
       754.7814        588.1414
  -4569502.33546  -3428053.77145  22579433.9454   22579436.2304
      2395.2034       1866.3924
  -2987492.40844  -2168273.99942  23976472.8914   23976477.6374
      2597.9224       2024.3554
    469639.70246    365952.29946  21332895.4224   21332898.2114
      -986.7034       -768.8604
   4414811.11946   3435706.23746  22144483.0234   22144485.3674
     -3005.7974      -2342.1794
   -632792.56143   -378921.86642  24695561.8134   24695569.7624
      1874.7034       1460.8084
 98  7  7 15 35  0.0000000  0  8G24G 4G 5G30G10G 8G 9G 6
    284267.69947    238657.17046  20243595.0704   20243597.4734
      -795.1564       -619.6024
   4474572.14346   3477904.88246  21820812.6024   21820814.8284
     -3035.6414      -2365.4344
  -2094923.75947  -1627133.57046  20568845.9304   20568847.3954
       746.7034        581.8474
  -4605393.27546  -3456020.71545  22572604.3914   22572606.4534
      2390.2194       1862.5084
  -3026445.56044  -2198627.07642  23969060.2664   23969064.2734
      2595.7194       2022.6384
    484529.82046    377554.97746  21335729.0004   21335731.4964
      -998.7034       -778.2104
   4459956.39246   3470884.33946  22153074.1254   22153076.2814
     -3013.6254      -2348.2794
   -660889.41142   -400815.53642  24690214.0784   24690220.3954
      1871.5004       1458.3124
 98  7  7 15 35 15.0000000  0  8G24G 4G 5G30G10G 8G 9G 6
    296275.59147    248013.96046  20245880.1564   20245882.6524
      -805.9694       -628.0284
   4520163.33146   3513430.46846  21829488.3984   21829490.2974
     -3043.2034      -2371.3274
  -2106063.78947  -1635814.11446  20566726.5004   20566728.1764
       738.6564        575.5764
  -4641210.38246  -3483930.12645  22565788.6884   22565790.9844
      2385.3754       1858.7344
  -3065365.55544  -2228954.34442  23961654.1484   23961659.1414
      2593.6094       2020.9944
    499599.82946    389297.82946  21338596.4454   21338598.6844
     -1010.6414       -787.5124
   4505219.27946   3506154.08646  22161687.5784   22161689.9454
     -3021.4694      -2354.3914
   -688937.72542   -422671.36442  24684876.2974   24684880.9614
      1868.2194       1455.7554
 98  7  7 15 35 30.0000000  0  8G24G 4G 5G30G10G 8G 9G 6
    308446.58647    257497.85546  20248196.0164   20248198.5474
      -816.7974       -636.4654
   4565867.24246   3549043.89446  21838185.1804   21838187.3364
     -3050.6724      -2377.1474
  -2117083.95747  -1644401.25546  20564629.2664   20564630.8244
       730.7194        569.3914
  -4676955.86946  -3511783.72945  22558986.0554   22558988.0354
      2380.7664       1855.1424
  -3104254.23444  -2259257.16342  23954253.8054   23954259.6764
      2591.4844       2019.3384
    514848.97446    401180.26546  21341498.3284   21341500.7074
     -1022.5474       -796.7904
   4550602.15046   3541517.33546  22170323.5704   22170326.0314
     -3029.5624      -2360.6984
   -716937.17742   -444489.16742  24679548.5234   24679554.5824
      1865.0474       1453.2834
 98  7  7 15 35 45.0000000  0  8G24G 4G 5G30G10G 8G 9G 6
    320778.40447    267107.06146  20250542.8914   20250545.6914
      -827.4064       -644.7324
   4611683.39746   3584744.77346  21846903.5314   21846905.3014
     -3058.1254      -2382.9554
  -2127985.70747  -1652896.12646  20562554.6954   20562556.4534
       722.8444        563.2554
  -4712633.10646  -3539584.14545  22552197.2974   22552199.3484
      2376.2504       1851.6234
  -3143108.26044  -2289532.99942  23946859.8674   23946867.0664
      2589.0474       2017.4394
    530276.63146    413201.80246  21344434.3284   21344436.8134
     -1034.4694       -806.0804
   4596106.09046   3576974.92146  22178982.6644   22178985.0904
     -3037.5624      -2366.9324
   -744888.00442   -466269.02242  24674229.8834   24674234.5354
      1861.8284       1450.7754
 98  7  7 15 36  0.0000000  0  8G24G 4G 5G30G10G 8G 9G 6
    333268.37347    276839.50046  20252919.6024   20252922.4844
      -837.8284       -652.8534
   4657612.31146   3620533.53946  21855643.4614   21855645.2894
     -3065.6564      -2388.8234
  -2138767.65047  -1661297.63746  20560503.0474   20560504.7704
       714.7664        556.9604
  -4748241.97746  -3567331.28945  22545420.7194   22545422.9804
      2371.6564       1848.0444
  -3181923.47044  -2319778.60943  23939474.4694   23939479.9304
      2586.3444       2015.3334
    545883.93046    425363.33346  21347404.3444   21347406.5824
     -1046.4694       -815.4304
   4641730.03946   3612526.02246  22187664.7344   22187667.6994
     -3045.5164      -2373.1294
   -772791.61642   -488012.10942  24668919.3674   24668923.9144
      1858.7344       1448.3644
 98  7  7 15 36 15.0000000  0  8G24G 4G 5G30G10G 8G 9G 6
    345914.00147    286693.23746  20255326.2734   20255329.0984
      -848.0784       -660.8404
   4703654.93646   3656410.89146  21864404.8364   21864407.0984
     -3073.2814      -2394.7654
  -2149426.16347  -1669602.96646  20558474.7034   20558476.5084
       706.5004        550.5194
  -4783781.73446  -3595024.58345  22538658.0234   22538660.3554
      2367.0784       1844.4764
  -3220696.50344  -2349991.33043  23932095.2194   23932099.1334
      2583.5164       2013.1294
    561672.62946    437666.20546  21350408.8134   21350411.0864
     -1058.5944       -824.8784
   4687472.93246   3648169.80646  22196369.4224   22196372.0704
     -3053.3284      -2379.2174
   -800649.01443   -509719.16342  24663619.1954   24663625.2304
      1855.6724       1445.9784
 98  7  7 15 36 30.0000000  0  8G24G 4G 5G30G10G 8G 9G 6
    358714.66547    296667.77646  20257761.8834   20257764.6254
      -858.6414       -669.0714
   4749813.36646   3692378.47146  21873188.6564   21873191.4924
     -3081.1254      -2400.8774
  -2159960.73847  -1677811.72846  20556470.0234   20556471.8284
       698.2034        544.0544
  -4819253.52746  -3622664.91745  22531908.1174   22531910.7664
      2362.5634       1840.9584
  -3259426.69944  -2380170.66643  23924724.8674   23924729.0394
      2580.6254       2010.8774
    577644.14846    450111.53546  21353448.0944   21353450.4384
     -1070.9534       -834.5094
   4733330.96146   3683903.29646  22205095.7034   22205098.3054
     -3061.0314      -2385.2194
   -828460.12543   -531390.19442  24658326.8754   24658328.9844
      1852.5164       1443.5194
 98  7  7 15 36 45.0000000  0  8G24G 4G 5G30G10G 8G 9G 6
    371675.52947    306767.15446  20260228.2974   20260231.0984
      -869.4694       -677.5084
   4796090.37746   3728438.46146  21881995.1414   21881998.1764
     -3089.0944      -2407.0864
  -2170371.32147  -1685923.86746  20554489.0394   20554490.8094
       689.9064        537.5894
  -4854657.17746  -3650252.15045  22525170.9304   22525173.6374
      2357.9534       1837.3664
  -3298112.87644  -2410315.72343  23917363.6024   23917369.1684
      2577.5784       2008.5024
    593802.31846    462702.30746  21356522.6954   21356525.2034
     -1083.3914       -844.2004
   4779305.26646   3719727.40246  22213844.2584   22213847.3284
     -3068.7664      -2391.2464
   -856224.40442   -553024.67442  24653043.6254   24653047.6804
      1849.4384       1441.1204
 98  7  7 15 37  0.0000000  0  8G24G 4G 5G30G10G 8G 9G 6
    384795.74947    316990.69946  20262724.8594   20262727.4844
      -880.0624       -685.7634
   4842484.31446   3764589.56846  21890823.7194   21890826.1094
     -3096.8754      -2413.1494
  -2180658.19147  -1693939.60846  20552531.6724   20552533.3714
       681.5634        531.0884
  -4889994.56046  -3677787.76545  22518446.8834   22518449.1564
      2353.5634       1833.9454
  -3336756.95044  -2440427.96642  23910010.3834   23910016.5354
      2574.7504       2006.2994
    610144.35246    475436.34446  21359632.5474   21359634.8914
     -1095.6564       -853.7584
   4825390.87146   3755638.23746  22222614.0164   22222616.6994
     -3076.0314      -2396.9074
   -883945.04942   -574625.21541  24647768.3984   24647771.8444
      1846.5634       1438.8804
 98  7  7 15 37 15.0000000  0  8G24G 4G 5G30G10G 8G 9G 6
    398075.85447    327338.82646  20265252.2504   20265254.9804
      -890.7194       -694.0674
   4888995.22846   3800831.82346  21899674.5394   21899677.3874
     -3104.6564      -2419.2134
  -2190820.95647  -1701858.64546  20550597.7034   20550599.4844
       673.3914        524.7204
  -4925265.94946  -3705271.93045  22511734.4534   22511736.7034
      2349.1724       1830.5244
  -3375356.39344  -2470505.44243  23902664.1414   23902668.5354
      2571.6884       2003.9124
    626669.91446    488313.39146  21362777.3914   21362780.1564
     -1107.8914       -863.2914
   4871584.05746   3791632.89346  22231404.3834   22231406.7854
     -3083.2034      -2402.4964
   -911623.14042   -596192.55642  24642502.0474   24642507.8714
      1843.7974       1436.7254
 98  7  7 15 37 30.0000000  0  8G24G 4G 5G30G10G 8G 9G 6
    411515.31047    337811.12046  20267809.6254   20267812.0744
      -901.2664       -702.2854
   4935622.96046   3837165.09846  21908547.4454   21908550.1414
     -3112.3914      -2425.2394
  -2200862.44747  -1709683.18146  20548686.8674   20548688.4614
       665.4224        518.5114
  -4960471.38446  -3732704.72245  22505034.9844   22505037.8324
      2344.8444       1827.1514
  -3413908.94243  -2500546.37542  23895327.8594   23895332.0084
      2568.6564       2001.5504
    643381.70546    501335.56446  21365957.4304   21365959.6214
     -1120.4064       -873.0444
   4917886.42246   3827712.62346  22240215.2114   22240217.6134
     -3090.4224      -2408.1214
   -939260.65342   -617728.30042  24637240.9844   24637247.2894
      1841.1884       1434.6924
 98  7  7 15 37 45.0000000  0  8G24G 4G 5G30G10G 8G 9G 6
    425113.82947    348407.37446  20270397.3984   20270399.9064
      -911.8284       -710.5154
   4982366.54746   3873588.65546  21917442.5084   21917444.5824
     -3120.0944      -2431.2424
  -2210783.72547  -1717414.04646  20546798.8204   20546800.6024
       657.4384        512.2894
  -4995610.66246  -3760085.95745  22498348.6644   22498351.3594
      2340.4064       1823.6934
  -3452416.50044  -2530552.22543  23888000.8754   23888004.9064
      2565.6884       1999.2374
    660281.16346    514503.95746  21369173.2584   21369175.2034
     -1132.8444       -882.7354
   4964296.09146   3863875.97046  22249046.7734   22249049.1884
     -3097.4224      -2413.5754
   -966860.61042   -639234.75442  24631989.5004   24631992.3834
      1838.7974       1432.8294
 98  7  7 15 38  0.0000000  0  8G24G 4G 5G30G10G 8G 9G 6
    438872.77347    359128.62946  20273015.6254   20273018.2974
      -922.7034       -718.9894
   5029226.52946   3910102.91446  21926359.2424   21926361.7154
     -3127.8594      -2437.2934
  -2220583.05147  -1725049.88546  20544933.9844   20544935.6844
       649.1094        505.8004
  -5030681.39946  -3787413.78045  22491674.7814   22491677.4654
      2335.7034       1820.0284
  -3490879.75044  -2560523.56243  23880681.7734   23880687.0354
      2562.7504       1996.9484
    677367.46646    527817.94746  21372424.7114   21372426.5634
     -1145.2974       -892.4394
   5010809.26746   3900119.96646  22257898.3054   22257901.0124
     -3104.3124      -2418.9454
   -994424.60942   -660713.19242  24626743.8524   24626750.1454
      1836.4224       1430.9784
 98  7  7 15 38 15.0000000  0  8G24G 4G 5G30G10G 8G 9G 6
    452795.62347    369977.60046  20275664.8984   20275667.0904
      -933.6564       -727.5244
   5076201.29946   3946706.60046  21935298.8054   21935300.8554
     -3135.4694      -2443.2224
  -2230257.54247  -1732588.44846  20543092.8674   20543094.6134
       640.8444        499.3594
  -5065682.47546  -3814687.32445  22485014.1094   22485016.6174
      2331.0784       1816.4254
  -3529299.81144  -2590461.24843  23873369.5004   23873375.2544
      2559.9384       1994.7564
    694639.43646    541276.61546  21375711.5864   21375713.6844
     -1157.6724       -902.0824
   5057426.04446   3936444.70246  22266769.3054   22266771.7774
     -3111.3594      -2424.4364
  -1021952.99942   -682163.87442  24621506.0634   24621510.1994
      1833.9844       1429.0794
 98  7  7 15 38 30.0000000  0  8G24G 4G 5G30G10G 8G 9G 6
    466881.53847    380953.63946  20278345.2344   20278347.8364
      -944.4694       -735.9504
   5123289.74146   3983398.88646  21944259.3134   21944261.6804
     -3142.9694      -2449.0674
  -2239809.70147  -1740031.68846  20541275.5084   20541277.1954
       632.7974        493.0884
  -5100613.00346  -3841905.90445  22478367.0784   22478369.0704
      2326.2814       1812.6874
  -3567676.96944  -2620365.51243  23866067.1804   23866071.0234
      2557.0474       1992.5044
    712098.50546    554881.06846  21379034.0164   21379036.4184
     -1170.2194       -911.8594
   5104150.12846   3972853.05646  22275660.2664   22275663.0204
     -3118.5004      -2430.0004
  -1049443.69342   -703585.24042  24616274.0864   24616281.3444
      1831.4064       1427.0704
 98  7  7 15 38 45.0000000  0  8G24G 4G 5G30G10G 8G 9G 6
    481130.92947    392057.05846  20281057.1564   20281059.9224
      -955.3124       -744.3994
   5170489.19846   4020177.66146  21953240.8914   21953243.1994
     -3150.1564      -2454.6674
  -2249241.61047  -1747381.22346  20539480.6174   20539482.2934
       624.8754        486.9164
  -5135469.16646  -3869066.53445  22471734.0084   22471736.4104
      2321.2814       1808.7914
  -3606011.98744  -2650236.92643  23858770.1334   23858774.7034
      2554.4224       1990.4594
    729748.12046    568634.00146  21382392.5234   21382394.9384
     -1182.9224       -921.7574
   5150982.08646   4009345.45746  22284572.2424   22284575.2304
     -3125.6724      -2435.5884
  -1076894.56742   -724975.50742  24611050.4224   24611056.6564
      1828.7974       1425.0374
 98  7  7 15 39  0.0000000  0  8G24G 4G 5G30G10G 8G 9G 6
    495540.82247    403285.54146  20283799.4144   20283802.1454
      -966.0004       -752.7274
   5217794.80546   4057039.15646  21962243.1334   21962245.2194
     -3157.2504      -2460.1954
  -2258553.54347  -1754637.27246  20537708.5704   20537710.0944
       616.6884        480.5364
  -5170250.61546  -3896168.93945  22465115.4774   22465118.4304
      2316.2034       1804.8344
  -3644306.99844  -2680077.15943  23851484.2974   23851489.6884
      2551.5474       1988.2184
    747587.64046    582534.91346  21385787.2344   21385789.8834
     -1195.7034       -931.7174
   5197920.75746   4045921.02346  22293504.3834   22293507.0084
     -3132.8124      -2441.1534
  -1104307.02442   -746335.83242  24605834.2114   24605840.7034
      1826.1884       1423.0034
 98  7  7 15 39 15.0000000  0  8G24G 4G 5G30G10G 8G 9G 6
    510110.66547    414638.66446  20286571.4924   20286574.1174
      -976.7194       -761.0804
   5265206.59946   4093983.40346  21971265.3284   21971267.4494
     -3164.4224      -2465.7834
  -2267742.38847  -1761797.41146  20535960.1254   20535961.5904
       608.4694        474.1314
  -5204954.09146  -3923210.59345  22458511.3524   22458514.1414
      2310.8754       1800.6824
  -3682559.00944  -2709883.92143  23844205.3754   23844209.9454
      2548.6414       1985.9544
    765619.31146    596585.56546  21389218.5784   21389221.1804
     -1208.5314       -941.7134
   5244967.37946   4082580.69846  22302457.1804   22302459.7704
     -3140.1254      -2446.8514
  -1131680.10142   -767665.56242  24600625.6334   24600630.2384
      1823.5634       1420.9584
 98  7  7 15 39 30.0000000  0  8G24G 4G 5G30G10G 8G 9G 6
    524841.59847    426117.31246  20289374.8284   20289377.0204
      -987.3754       -769.3834
   5312727.30446   4131012.50846  21980307.8834   21980310.2154
     -3171.6874      -2471.4454
  -2276806.92447  -1768860.68046  20534235.1564   20534236.6334
       600.0944        467.6064
  -5239578.31446  -3950190.48845  22451922.8364   22451925.4494
      2305.7034       1796.6524
  -3720767.82244  -2739656.98743  23836935.3524   23836940.8484
      2545.8914       1983.8114
    783841.39246    610784.58046  21392685.7894   21392688.3554
     -1221.0784       -951.4894
   5292124.42346   4119326.41746  22311430.7974   22311433.3164
     -3147.5004      -2452.5974
  -1159013.65042   -788964.43442  24595424.3134   24595428.0044
      1820.9694       1418.9374
 98  7  7 15 39 45.0000000  0  8G24G 4G 5G30G10G 8G 9G 6
    539733.68047    437721.53746  20292208.8134   20292211.2974
      -998.1564       -777.7844
   5360359.75546   4168128.69146  21989372.3134   21989374.2934
     -3179.1724      -2477.2774
  -2285741.89547  -1775822.99546  20532534.9144   20532536.2734
       591.2814        460.7394
  -5274123.25146  -3977108.60145  22445348.6564   22445351.1644
      2300.3444       1792.4764
  -3758934.29244  -2769397.04743  23829671.8524   23829677.6994
      2543.1094       1981.6444
    802251.35246    625129.98346  21396189.5704   21396191.6804
     -1233.4224       -961.1084
   5339393.47346   4156159.41146  22320426.0554   22320428.8444
     -3154.8914      -2458.3564
  -1186306.94343   -810231.96242  24590231.1024   24590235.1454
      1818.2034       1416.7824
 98  7  7 15 40  0.0000000  0  8G24G 4G 5G30G10G 8G 9G 6
    554786.04847    449450.64946  20295073.2584   20295075.6484
     -1008.8444       -786.1124
   5408102.69046   4205330.96746  21998457.4694   21998459.9534
     -3186.6254      -2483.0844
  -2294544.72847  -1782682.34246  20530859.6254   20530861.2544
       582.3754        453.7994
  -5308588.16246  -4003964.36645  22438790.4924   22438793.1294
      2294.9384       1788.2634
  -3797059.77544  -2799105.21243  23822416.9064   23822422.0044
      2540.2034       1979.3794
    820841.95146    639616.14946  21399727.2274   21399729.6884
     -1245.4374       -970.4714
   5386772.20346   4193077.86846  22329441.6484   22329444.7194
     -3162.3284      -2464.1524
  -1213560.12943   -831468.16042  24585046.2194   24585050.6954
      1815.4224       1414.6144
 98  7  7 15 40 15.0000000  0  8G24G 4G 5G30G10G 8G 9G 6
    569996.97647    461303.31746  20297967.5004   20297969.9844
     -1019.2974       -794.2574
   5455956.59646   4242619.69846  22007563.6644   22007566.0784
     -3193.9694      -2488.8074
  -2303214.40347  -1789437.92646  20529209.8204   20529211.1564
       573.5164        446.8954
  -5342974.03446  -4030758.52945  22432247.1484   22432249.6914
      2289.8284       1784.2824
  -3835140.45944  -2828778.47143  23815170.1884   23815174.0554
      2537.1254       1976.9814
    839613.28046    654243.14446  21403299.2734   21403301.8874
     -1257.5004       -979.8704
   5434262.60646   4230083.35346  22338478.8674   22338481.7154
     -3169.8284      -2469.9964
  -1240770.66442   -852671.14742  24579866.8914   24579871.6134
      1812.5784       1412.3994
 98  7  7 15 40 30.0000000  0  8G24G 4G 5G30G10G 8G 9G 6
    585363.47247    473277.20946  20300891.8834   20300894.3324
     -1029.5004       -802.2084
   5503922.51346   4279995.72646  22016691.4694   22016694.2344
     -3201.4374      -2494.6274
  -2311750.69847  -1796089.58246  20527585.3834   20527586.9064
       564.6884        440.0164
  -5377282.69346  -4057492.52745  22425718.3444   22425720.8984
      2284.6414       1780.2394
  -3873174.51744  -2858415.34143  23807932.9534   23807937.2664
      2534.0784       1974.6064
    858567.58746    669012.72846  21406906.1724   21406909.0554
     -1269.7034       -989.3794
   5481867.94146   4267178.38746  22347537.5474   22347540.8404
     -3177.4694      -2475.9504
  -1267937.03242   -873839.80742  24574696.6884   24574701.0704
      1809.6094       1410.0854
 98  7  7 15 40 45.0000000  0  8G24G 4G 5G30G10G 8G 9G 6
    600884.12647    485371.22446  20303845.4064   20303847.8914
     -1040.0004       -810.3904
   5552001.64946   4317459.95846  22025840.5474   22025843.7464
     -3209.1564      -2500.6414
  -2320152.97347  -1802636.80746  20525986.4924   20525988.1214
       555.5944        432.9304
  -5411511.14046  -4084164.02045  22419204.7664   22419207.7774
      2279.2194       1776.0154
  -3911161.65045  -2888015.68743  23800703.8984   23800709.6054
      2530.9064       1972.1354
    877705.57746    683925.43646  21410548.0234   21410550.5084
     -1282.0004       -998.9614
   5529586.10446   4304361.34546  22356618.2424   22356621.2304
     -3184.8914      -2481.7334
  -1295057.73942   -894972.83142  24569535.4534   24569540.3404
      1806.5164       1407.6754
 98  7  7 15 41  0.0000000  0  8G24G 4G 5G30G10G 8G 9G 6
    616563.44247    497588.87146  20306828.9694   20306831.3364
     -1050.5784       -818.6324
   5600197.82446   4355015.40246  22035012.1174   22035014.6024
     -3217.0474      -2506.7904
  -2328418.40547  -1809077.39946  20524413.8524   20524415.4574
       546.4064        425.7714
  -5445660.46346  -4110773.86645  22412706.4304   22412709.0904
      2274.0474       1771.9854
  -3949102.22245  -2917579.77043  23793483.7584   23793489.5004
      2527.7974       1969.7124
    897025.59946    698979.99346  21414224.5164   21414226.9654
     -1293.9064      -1008.2394
   5577414.55146   4341630.24446  22365719.7114   22365722.5824
     -3192.2504      -2487.4684
  -1322133.28742   -916070.66742  24564383.1564   24564388.6414
      1803.5944       1405.3984
 98  7  7 15 41 15.0000000  0  8G24G 4G 5G30G10G 8G 9G 6
    632400.83346    509929.69546  20309842.7424   20309845.5904
     -1061.0944       -826.8264
   5648513.90746   4392664.28546  22044206.0394   22044208.2774
     -3225.1414      -2513.0974
  -2336545.44347  -1815410.14946  20522867.1334   20522868.9614
       537.1884        418.5884
  -5479733.57546  -4137324.31645  22406222.7814   22406226.0744
      2268.9844       1768.0404
  -3986995.41645  -2947106.88143  23786273.3054   23786278.0514
      2524.6094       1967.2284
    916520.78746    714171.03246  21417934.2114   21417936.7074
     -1305.4694      -1017.2484
   5625353.24446   4378985.04246  22374842.2734   22374844.9804
     -3199.5624      -2493.1664
  -1349165.63842   -937134.81442  24559238.3284   24559242.1024
      1800.7034       1403.1454
 98  7  7 15 41 30.0000000  0  8G24G 4G 5G30G10G 8G 9G 6
    648394.86946    522392.57046  20312886.2344   20312889.0944
     -1071.4534       -834.8994
   5696950.94946   4430407.42046  22053424.0474   22053426.3554
     -3233.1564      -2519.3434
  -2344535.44247  -1821636.12246  20521346.6254   20521348.3484
       528.1414        411.5384
  -5513731.77446  -4163816.40545  22399752.9694   22399755.6174
      2264.0944       1764.2294
  -4024842.16444  -2976597.84043  23779071.3204   23779076.6174
      2521.5314       1964.8304
    936187.74346    729495.91546  21421676.8754   21421679.4184
     -1316.8444      -1026.1124
   5673399.98046   4416424.03546  22383985.3524   22383988.0704
     -3206.6874      -2498.7184
  -1376155.53943   -958165.94842  24554104.3204   24554109.1484
      1797.8754       1400.9424
 98  7  7 15 41 45.0000000  0  8G24G 4G 5G30G10G 8G 9G 6
    664544.66546    534976.82046  20315959.4144   20315962.0164
     -1081.9064       -843.0444
   5745507.13746   4468243.40746  22062663.3984   22062665.4384
     -3240.9694      -2525.4304
  -2352389.65247  -1827756.28046  20519852.3364   20519854.0704
       519.1094        404.5014
  -5547656.82946  -4190251.49546  22393296.9224   22393299.3134
      2259.1254       1760.3574
  -4062639.62444  -3006050.38743  23771878.3204   23771884.8134
      2518.0474       1962.1144
    956026.54746    744954.71646  21425451.7814   21425454.2194
     -1328.4374      -1035.1464
   5721554.26046   4453946.82746  22393148.8834   22393152.0124
     -3213.8914      -2504.3304
  -1403100.61142   -979162.09242  24548975.7974   24548982.7034
      1794.7974       1398.5434
 98  7  7 15 42  0.0000000  0  8G24G 4G 5G30G10G 8G 9G 6
    680852.29747    547684.06746  20319062.5474   20319065.0434
     -1092.4534       -851.2624
   5794178.85346   4506169.40446  22071925.4304   22071928.3594
     -3248.6094      -2531.3844
  -2360109.88047  -1833772.04346  20518382.9534   20518384.6174
       510.2664        397.6104
  -5581504.70846  -4216626.44745  22386856.3364   22386858.6804
      2253.9384       1756.3154
  -4100382.83744  -3035460.63043  23764696.1254   23764702.3014
      2514.3444       1959.2294
    976042.03446    760551.19146  21429260.8204   21429263.5744
     -1340.4374      -1044.4974
   5769816.11246   4491553.43546  22402332.7734   22402336.0084
     -3221.0314      -2509.8944
  -1429999.48643  -1000122.21142  24543858.5394   24543861.6334
      1791.6564       1396.0964
 98  7  7 15 42 15.0000000  0  8G24G 4G 5G30G10G 8G 9G 6
    697315.76046    560512.73646  20322195.6644   20322197.9384
     -1102.6724       -859.2254
   5842964.13546   4544183.88846  22081208.9774   22081211.2154
     -3256.1414      -2537.2524
  -2367701.44447  -1839687.54346  20516938.1954   20516939.6374
       501.9064        391.0964
  -5615277.36046  -4242942.78646  22380429.6954   22380432.1334
      2249.0474       1752.5044
  -4138071.47144  -3064828.39043  23757524.3364   23757529.9144
      2510.7974       1956.4654
    996238.58246    776288.74646  21433104.1254   21433107.1724
     -1352.5474      -1053.9334
   5818184.14746   4529242.77846  22411536.8134   22411539.9184
     -3228.0314      -2515.3494
  -1456851.64843  -1021045.95642  24538748.1484   24538751.8284
      1788.6254       1393.7344
 98  7  7 15 42 30.0000000  0  8G24G 4G 5G30G10G 8G 9G 6
    713932.55246    573460.88846  20325357.5704   20325360.2194
     -1112.8284       -867.1394
   5891862.61146   4582286.58646  22090514.1094   22090516.0554
     -3263.5474      -2543.0244
  -2375166.43347  -1845504.41846  20515517.6334   20515518.9574
       493.5474        384.5824
  -5648975.50146  -4269201.05646  22374016.8834   22374018.9104
      2244.0784       1748.6324
  -4175706.09344  -3094154.01843  23750362.9454   23750367.3404
      2507.2974       1953.7384
   1016618.74046    792169.37946  21436982.1254   21436984.8914
     -1364.6564      -1063.3694
   5866656.47046   4567013.38946  22420760.7814   22420764.3444
     -3234.8594      -2520.6704
  -1483656.56443  -1041932.94642  24533647.7734   24533651.9574
      1785.5004       1391.2994
 98  7  7 15 42 45.0000000  0  8G24G 4G 5G30G10G 8G 9G 6
    730704.26546    586529.74846  20328549.1644   20328551.8134
     -1123.4224       -875.3944
   5940873.17146   4620476.61446  22099840.3984   22099842.3794
     -3271.1564      -2548.9534
  -2382506.07747  -1851223.61946  20514121.0234   20514122.5354
       485.1094        378.0074
  -5682596.24346  -4295399.01446  22367619.5554   22367621.6644
      2238.6884       1744.4324
  -4213288.27845  -3123438.84343  23743211.2584   23743217.2344
      2503.5944       1950.8524
   1037179.98646    808191.11146  21440895.0474   21440897.6024
     -1376.7814      -1072.8174
   5915231.22046   4604863.81346  22430004.5704   22430007.9694
     -3241.6874      -2525.9904
  -1510414.28443  -1062783.09242  24528555.7114   24528560.0704
      1782.1884       1388.7184
 98  7  7 15 43  0.0000000  0  8G24G 4G 5G30G10G 8G 9G 6
    747634.38147    599722.03846  20331770.8524   20331773.6294
     -1134.0004       -883.6364
   5989995.62946   4658753.85146  22109187.7584   22109190.0084
     -3278.5624      -2554.7244
  -2389721.56647  -1856846.07446  20512748.0944   20512749.6054
       476.8594        371.5794
  -5716139.18846  -4321536.36146  22361236.0394   22361237.9264
      2233.6884       1740.5364
  -4250815.80845  -3152681.04343  23736069.5314   23736074.8284
      2499.9694       1948.0284
   1057919.92946    824352.10346  21444841.8984   21444844.5004
     -1388.6254      -1082.0454
   5963905.22546   4642791.57946  22439266.8134   22439270.0824
     -3248.2974      -2531.1404
  -1537124.50343  -1083596.28942  24523472.8524   24523476.4264
      1779.0784       1386.2954
 98  7  7 15 43 15.0000000  0  8G24G 4G 5G30G10G 8G 9G 6
    764722.53446    613037.48046  20335022.6484   20335025.4614
     -1144.3914       -891.7334
   6039227.40246   4697116.24046  22118556.3914   22118558.6994
     -3285.6874      -2560.2764
  -2396812.99747  -1862371.86046  20511398.8054   20511400.5274
       468.6414        365.1754
  -5749607.20146  -4347615.31146  22354867.4064   22354869.2114
      2228.6254       1736.5914
  -4288288.37645  -3181880.42443  23728938.6804   23728944.1054
      2496.2814       1945.1544
   1078838.31046    840652.13346  21448822.1724   21448824.5394
     -1400.5784      -1091.3604
   6012680.61646   4680798.33446  22448548.3524   22448551.9024
     -3255.1414      -2536.4734
  -1563786.23543  -1104371.63442  24518399.0704   24518404.2154
      1775.7974       1383.7384
 98  7  7 15 43 30.0000000  0  8G24G 4G 5G30G10G 8G 9G 6
    781964.75246    626472.96946  20338303.6094   20338306.5514
     -1154.6094       -899.6964
   6088564.18446   4735560.47246  22127944.8594   22127947.6254
     -3292.5624      -2565.6334
  -2403782.91447  -1867802.95446  20510072.1724   20510073.8364
       460.6564        358.9534
  -5782999.51846  -4373635.27046  22348513.0394   22348515.1024
      2223.6414       1732.7074
  -4325704.42644  -3211035.76343  23721818.1414   23721823.1564
      2492.5164       1942.2204
   1099937.21646    857092.82346  21452837.4534   21452839.5514
     -1412.6874      -1100.7954
   6061557.32446   4718884.04646  22457849.3444   22457852.4144
     -3261.7344      -2541.6114
  -1590398.20143  -1125108.26942  24513334.8444   24513340.9844
      1772.4064       1381.0964
 98  7  7 15 43 45.0000000  0  8G24G 4G 5G30G10G 8G 9G 6
    799361.92846    640029.20746  20341614.3984   20341617.1644
     -1165.1094       -907.8774
   6138004.48546   4774085.36746  22137353.2114   22137356.2234
     -3299.5474      -2571.0754
  -2410631.64447  -1873139.62546  20508768.8364   20508770.8634
       452.4224        352.5374
  -5816315.70746  -4399595.92146  22342173.4144   22342175.3834
      2218.4224       1728.6404
  -4363063.64144  -3240146.82044  23714709.1884   23714714.3444
      2488.6094       1939.1764
   1121220.02446    873676.82046  21456887.2974   21456889.3954
     -1425.0784      -1110.4504
   6110534.01646   4757047.67846  22467169.2274   22467172.0164
     -3268.6254      -2546.9814
  -1616958.08743  -1145804.25942  24508281.7504   24508287.5514
      1768.8134       1378.2954
 98  7  7 15 44  0.0000000  0  8G24G 4G 5G30G10G 8G 9G 6
    816915.14747    653707.03446  20344954.8134   20344957.3794
     -1175.4374       -915.9254
   6187547.00846   4812689.90046  22146780.1724   22146782.8554
     -3306.2664      -2576.3114
  -2417358.05347  -1878380.97646  20507489.0554   20507491.0704
       444.2664        346.1814
  -5849555.49946  -4425497.03446  22335847.7734   22335849.8484
      2213.4384       1724.7564
  -4400367.09944  -3269214.42343  23707611.3204   23707617.5904
      2485.1414       1936.4734
   1142685.86946    890403.43446  21460972.3204   21460974.6054
     -1437.1874      -1119.8864
   6159612.95446   4795290.97246  22476508.7344   22476511.4064
     -3275.3124      -2552.1924
  -1643467.45244  -1166460.87642  24503236.6484   24503239.6844
      1765.6724       1375.8484
 98  7  7 15 44 15.0000000  0  8G24G 4G 5G30G10G 8G 9G 6
    834624.87147    667506.82046  20348324.6724   20348327.3674
     -1185.7974       -923.9984
   6237194.34846   4851376.11546  22156229.0314   22156231.6334
     -3313.3444      -2581.8264
  -2423958.37147  -1883524.07946  20506233.1954   20506235.0594
       435.8444        339.6194
  -5882718.66946  -4451338.44846  22329536.8444   22329538.8954
      2208.4064       1720.8364
  -4437618.62844  -3298241.54643  23700521.2974   23700527.8484
      2481.8754       1933.9294
   1164334.91546    907272.81746  21465091.9454   21465094.5234
     -1449.2664      -1129.2984
   6208794.35046   4833614.10946  22485867.6564   22485870.3874
     -3282.1724      -2557.5374
  -1669926.87843  -1187078.61342  24498200.5554   24498207.6024
      1762.2664       1373.1944
 98  7  7 15 44 30.0000000  0  8G24G 4G 5G30G10G 8G 9G 6
    852489.19847    681427.07346  20351724.4144   20351727.3554
     -1196.1874       -932.0944
   6286946.88546   4890144.30646  22165696.0554   22165698.5634
     -3320.3754      -2587.3054
  -2430433.38547  -1888569.53946  20505000.7034   20505002.6024
       427.3594        333.0074
  -5915807.25446  -4477121.73746  22323240.5634   22323242.2624
      2203.2974       1716.8554
  -4474821.71244  -3327230.94043  23693442.5704   23693448.9104
      2478.4534       1931.2624
   1186161.11946    924280.24646  21469245.0004   21469247.9414
     -1460.9694      -1138.4174
   6258077.99346   4872016.91846  22495246.0474   22495248.8834
     -3289.0474      -2562.8944
  -1696336.06243  -1207657.16943  24493175.6174   24493179.7544
      1758.9064       1370.5764
 98  7  7 15 44 45.0000000  0  8G24G 4G 5G30G10G 8G 9G 6
    870509.91747    695469.18746  20355153.4224   20355155.9184
     -1206.6414       -940.2394
   6336803.03746   4928993.22846  22175183.8054   22175186.4534
     -3327.1724      -2592.6014
  -2436780.27247  -1893515.15646  20503792.8364   20503794.6414
       418.8134        326.3474
  -5948819.84446  -4502845.81746  22316958.4384   22316960.2304
      2198.3134       1712.9714
  -4511973.11944  -3356180.06743  23686372.7114   23686377.5744
      2475.0784       1928.6324
   1208160.18446    941422.36946  21473431.5784   21473434.3094
     -1472.3124      -1147.2564
   6307464.40146   4910499.80446  22504643.9774   22504647.4454
     -3295.8914      -2568.2264
  -1722696.87643  -1228198.04342  24488159.0314   24488166.0554
      1755.8594       1368.2024
 98  7  7 15 45  0.0000000  0  8G24G 4G 5G30G10G 8G 9G 6
    888688.93146    709634.66146  20358612.8594   20358615.6134
     -1217.1724       -948.4464
   6386763.57146   4967923.50946  22184690.7344   22184693.3484
     -3334.1874      -2598.0684
  -2442994.95347  -1898357.75046  20502610.2974   20502612.3134
       409.8444        319.3594
  -5981755.26946  -4528509.75546  22310691.0704   22310693.0984
      2193.0784       1708.8924
  -4549071.66744  -3385088.00643  23679313.8834   23679319.7894
      2471.4534       1925.8084
   1230332.46446    958699.45746  21477650.8834   21477653.6844
     -1484.0314      -1156.3884
   6356955.90946   4949064.60145  22514062.1334   22514065.5434
     -3302.9844      -2573.7544
  -1749011.26843  -1248702.75542  24483151.5394   24483156.9414
      1752.7814       1365.8044
 98  7  7 15 45 15.0000000  0  8G24G 4G 5G30G10G 8G 9G 6
    907023.43646    723921.29446  20362101.7974   20362105.1024
     -1227.3914       -956.4084
   6436827.56046   5006934.40846  22194217.4844   22194220.3914
     -3340.9844      -2603.3644
  -2449074.62247  -1903095.14446  20501453.6024   20501455.9924
       400.7504        312.2734
  -6014613.01446  -4554113.16246  22304438.6254   22304441.1334
      2187.9694       1704.9114
  -4586118.21244  -3413955.41443  23672263.4454   23672267.4654
      2468.0784       1923.1784
   1252681.20846    976114.05946  21481903.5864   21481906.2704
     -1495.7814      -1165.5444
   6406554.66446   4987712.94545  22523500.3754   22523504.2774
     -3310.2194      -2579.3914
  -1775281.10543  -1269172.75842  24478152.8444   24478157.6134
      1749.9224       1363.5754
 98  7  7 15 45 30.0000000  0  8G24G 4G 5G30G10G 8G 9G 6
    925512.25046    738328.15046  20365619.8134   20365623.2704
     -1237.8444       -964.5544
   6486994.70846   5046025.67446  22203764.1644   22203767.2114
     -3348.0314      -2608.8564
  -2455016.16047  -1907724.91346  20500322.8594   20500325.6254
       391.4224        305.0044
  -6047391.89046  -4579655.12546  22298200.8204   22298203.1174
      2182.4694       1700.6254
  -4623112.59945  -3442782.15743  23665223.6564   23665230.1484
      2464.4844       1920.3774
   1275206.27146    993666.04546  21486190.0394   21486192.9224
     -1507.6254      -1174.7734
   6456262.50846   5026446.29345  22532959.7504   22532962.8444
     -3317.5164      -2585.0774
  -1801508.39743  -1289609.57843  24473161.0314   24473166.9964
      1747.0314       1361.3234
 98  7  7 15 45 45.0000000  0  8G24G 4G 5G30G10G 8G 9G 6
    944157.06047    752856.57546  20369168.0704   20369171.5394
     -1248.1094       -972.5534
   6537266.15746   5085198.21346  22213330.4844   22213333.3204
     -3354.7814      -2614.1154
  -2460818.54347  -1912246.24546  20499218.7034   20499221.4804
       382.2664        297.8694
  -6080090.29446  -4605134.37846  22291978.5004   22291981.1484
      2177.3284       1696.6194
  -4660054.14744  -3471567.74543  23658193.9304   23658201.2234
      2461.1254       1917.7604
   1297907.16446   1011355.03446  21490509.8284   21490513.0394
     -1519.1254      -1183.7344
   6506077.16046   5065262.86345  22542439.0394   22542442.1094
     -3324.4374      -2590.4714
  -1827694.15043  -1310014.06142  24468179.5864   24468184.9064
      1744.4534       1359.3144
 98  7  7 15 46  0.0000000  0  8G24G 4G 5G30G10G 8G 9G 6
    962957.74046    767506.45446  20372745.6484   20372749.0824
     -1258.5944       -980.7224
   6587640.05546   5124450.58946  22222915.9844   22222919.2894
     -3361.6414      -2619.4604
  -2466481.79447  -1916659.16546  20498141.0314   20498143.7854
       372.9064        290.5764
  -6112708.90146  -4630551.46146  22285771.3524   22285773.6134
      2171.8284       1692.3344
  -4696944.08945  -3500313.12943  23651173.4144   23651180.0944
      2457.5314       1914.9594
   1320782.34046   1029179.83546  21494862.6954   21494865.9184
     -1530.8754      -1192.8904
   6555997.97246   5104162.17145  22551938.9454   22551942.1214
     -3331.6414      -2596.0844
  -1853840.38243  -1330387.74842  24463203.6024   24463209.3094
      1741.7814       1357.2324
 98  7  7 15 46 15.0000000  0  8G24G 4G 5G30G10G 8G 9G 6
    981913.82646    782277.42846  20376352.9844   20376356.6414
     -1268.9374       -988.7824
   6638113.90746   5163780.83946  22232521.2034   22232524.7774
     -3368.2664      -2624.6234
  -2472007.51547  -1920964.91646  20497089.5164   20497092.1174
       363.7974        283.4784
  -6145246.25646  -4655905.22346  22279579.3134   22279581.8674
      2166.4064       1688.1094
  -4733780.54045  -3529016.85143  23644164.6254   23644170.5434
      2453.9534       1912.1714
   1343831.86146   1047140.48246  21499249.1094   21499252.3794
     -1542.5164      -1201.9604
   6606023.55646   5143143.10945  22561458.0704   22561462.4654
     -3338.4534      -2601.3924
  -1879948.64143  -1350731.79442  24458234.3204   24458238.5044
      1739.2034       1355.2234
 98  7  7 15 46 30.0000000  0  8G24G 4G 5G30G10G 8G 9G 6
   1001025.37446    797169.53146  20379989.7734   20379993.7114
     -1279.3594       -996.9034
   6688687.91046   5203189.13746  22242144.8204   22242147.6454
     -3375.0164      -2629.8824
  -2477397.54647  -1925164.93946  20496063.6024   20496066.3324
       354.7344        276.4164
  -6177700.95546  -4681194.58046  22273403.5864   22273406.1414
      2160.7974       1683.7384
  -4770560.61845  -3557676.66743  23637166.0944   23637170.2074
      2449.9384       1909.0424
   1367058.06446   1065238.81246  21503669.1804   21503672.5204
     -1554.4064      -1211.2264
   6656151.41246   5182203.74045  22570997.3834   22571001.5554
     -3345.3444      -2606.7614
  -1906016.43343  -1371044.37242  24453274.0784   24453280.6524
      1736.4384       1353.0684
 98  7  7 15 46 45.0000000  0  8G24G 4G 5G30G10G 8G 9G 6
   1020293.48746    812183.64346  20383656.3594   20383660.0514
     -1289.6874      -1004.9514
   6739364.02746   5242677.00846  22251788.5164   22251792.1844
     -3381.7974      -2635.1664
  -2482649.24347  -1929257.16746  20495064.5314   20495067.0744
       345.4694        269.1964
  -6210069.83446  -4706417.05746  22267244.1564   22267246.6884
      2155.0474       1679.2574
  -4807277.09745  -3586286.85443  23630179.0634   23630184.5474
      2445.6094       1905.6704
   1390465.38846   1083478.27446  21508123.0634   21508126.5554
     -1566.6254      -1220.7474
   6706383.02246   5221345.22045  22580556.0474   22580559.9964
     -3352.1564      -2612.0704
  -1932043.67243  -1391325.34142  24448322.9694   24448327.9964
      1733.9224       1351.1084
 98  7  7 15 47  0.0000000  0  8G24G 4G 5G30G10G 8G 9G 6
   1039715.43746    827317.63146  20387352.5084   20387355.7544
     -1299.9534      -1012.9504
   6790141.16046   5282243.58246  22261450.8984   22261454.0634
     -3388.5474      -2640.4264
  -2487762.44247  -1933241.47246  20494091.4384   20494093.7234
       336.2664        262.0254
  -6242353.18746  -4731572.89546  22261100.8444   22261103.6804
      2149.3444       1674.8134
  -4843930.89845  -3614848.24243  23623203.6254   23623208.9454
      2441.5474       1902.5044
   1414057.25546   1101861.53146  21512612.4144   21512615.7424
     -1579.0474      -1230.4264
   6756715.76046   5260565.51145  22590133.6884   22590137.7664
     -3358.8754      -2617.3054
  -1958032.80143  -1411576.57342  24443376.4614   24443380.4224
      1731.2664       1349.0384
 98  7  7 15 47 15.0000000  0  8G24G 4G 5G30G10G 8G 9G 6
   1059289.38347    842570.05546  20391077.3054   20391080.6094
     -1310.0004      -1020.7794
   6841018.27046   5321888.06246  22271132.9144   22271136.4654
     -3395.1724      -2645.5884
  -2492740.54947  -1937120.51646  20493144.1094   20493146.2074
       327.4064        255.1224
  -6274552.77346  -4756663.46746  22254973.1954   22254975.8554
      2143.8444       1670.5284
  -4880524.16545  -3643362.45243  23616239.7114   23616244.8094
      2437.4064       1899.2784
   1437836.23246   1120390.59146  21517137.5004   21517140.7584
     -1591.5784      -1240.1914
   6807146.67046   5299862.28945  22599730.2894   22599734.6724
     -3365.3444      -2622.3464
  -1983982.55543  -1431797.14042  24438437.9224   24438442.2114
      1728.5314       1346.9074
 98  7  7 15 47 30.0000000  0  8G24G 4G 5G30G10G 8G 9G 6
   1079015.38447    857940.95946  20394830.7734   20394834.1484
     -1320.1874      -1028.7184
   6891995.07246   5361610.22746  22280833.2194   22280836.3484
     -3401.8124      -2650.7634
  -2497586.26647  -1940896.39746  20492222.2034   20492224.5354
       318.6724        248.3164
  -6306670.84246  -4781690.51646  22248861.6644   22248864.1254
      2138.5314       1666.3884
  -4917053.75745  -3671827.04843  23609289.0394   23609295.2384
      2433.1414       1895.9544
   1461802.13046   1139065.30546  21521698.0474   21521701.1994
     -1603.9374      -1249.8214
   6857673.06146   5339233.48145  22609345.2734   22609349.2344
     -3371.5474      -2627.1794
  -2009890.24243  -1451984.95642  24433508.5004   24433513.0004
      1725.6884       1344.6924
 98  7  7 15 47 45.0000000  0  8G24G 4G 5G30G10G 8G 9G 6
   1098895.53247    873431.98646  20398613.8054   20398617.2974
     -1330.4844      -1036.7414
   6943073.56446   5401411.63246  22290553.0704   22290556.2114
     -3408.6874      -2656.1204
  -2502300.85847  -1944570.10046  20491324.8594   20491327.1454
       310.0004        241.5584
  -6338706.34546  -4806653.22446  22242765.3524   22242767.9654
      2132.8594       1661.9684
  -4953518.20445  -3700240.90543  23602349.2504   23602354.8754
      2428.7974       1892.5694
   1485955.47646   1157886.07746  21526294.3594   21526297.3014
     -1616.5944      -1259.6834
   6908293.39046   5378677.84545  22618978.3364   22618981.9804
     -3377.8594      -2632.0984
  -2035751.57543  -1472136.63742  24428586.6804   24428592.1414
      1722.4844       1342.1964
 98  7  7 15 48  0.0000000  0  8G24G 4G 5G30G10G 8G 9G 6
   1118929.85646    889043.14646  20402426.1174   20402429.3874
     -1340.7034      -1044.7044
   6994256.16746   5441294.16246  22300292.2034   22300295.2974
     -3415.6414      -2661.5384
  -2506885.73947  -1948142.73646  20490452.5084   20490454.6524
       301.3914        234.8504
  -6370656.53446  -4831549.46246  22236685.3444   22236687.4534
      2127.1414       1657.5124
  -4989916.28945  -3728602.97443  23595423.0004   23595429.0594
      2424.3444       1889.0994
   1510299.69846   1176855.58246  21530926.7734   21530930.0204
     -1629.2344      -1269.5334
   6959010.05946   5418197.30045  22628629.3674   22628632.7194
     -3384.3124      -2637.1274
  -2061564.34343  -1492250.45142  24423673.9534   24423680.4574
      1719.2664       1339.6884
 98  7  7 15 48 15.0000000  0  8G24G 4G 5G30G10G 8G 9G 6
   1139116.39747    904772.91246  20406267.6334   20406270.4804
     -1350.9064      -1052.6544
   7045543.25746   5481258.11946  22310052.3914   22310056.2584
     -3422.7664      -2667.0904
  -2511343.05147  -1951615.96146  20489603.9064   20489606.0634
       292.8284        228.1784
  -6402520.51446  -4856378.51246  22230621.6254   22230624.0394
      2121.2664       1652.9344
  -5026250.10245  -3756915.03643  23588509.3524   23588515.6214
      2420.0474       1885.7514
   1534831.84046   1195971.52346  21535595.1094   21535598.6604
     -1641.7504      -1279.2864
   7009821.75246   5457790.77945  22638298.8444   22638302.1954
     -3390.7194      -2642.1194
  -2087331.88343  -1512329.04542  24418770.8444   24418777.0904
      1716.2344       1337.3254
 98  7  7 15 48 30.0000000  0  8G24G 4G 5G30G10G 8G 9G 6
   1159454.46646    920620.75546  20410137.8594   20410140.9414
     -1360.8124      -1060.3734
   7096938.06846   5521305.98346  22319832.8674   22319836.6414
     -3429.8914      -2672.6424
  -2515672.11947  -1954989.25946  20488780.2504   20488782.5944
       284.3444        221.5674
  -6434297.03246  -4881139.41346  22224574.9224   22224577.1954
      2115.5944       1648.5154
  -5062520.38545  -3785177.58143  23581607.0394   23581611.9614
      2416.0004       1882.5974
   1559550.16046   1215232.54046  21540299.1024   21540302.5824
     -1654.0474      -1288.8684
   7060729.94646   5497459.45845  22647986.1954   22647989.8874
     -3397.0624      -2647.0624
  -2113053.15243  -1532371.60642  24413875.9384   24413881.3754
      1713.2814       1335.0244
 98  7  7 15 48 45.0000000  0  8G24G 4G 5G30G10G 8G 9G 6
   1179941.28947    936584.51146  20414036.5084   20414039.4844
     -1370.6564      -1068.0444
   7148441.59046   5561438.57746  22329632.9694   22329636.7894
     -3437.1254      -2678.2794
  -2519871.65247  -1958261.61846  20487981.0704   20487983.5904
       275.6094        214.7614
  -6465986.52646  -4905832.51646  22218544.5394   22218546.4614
      2109.7504       1643.9614
  -5098729.10845  -3813392.11543  23574716.8204   23574721.8714
      2411.9384       1879.4324
   1584453.74346   1234637.92046  21545037.9144   21545041.0904
     -1666.2664      -1298.3894
   7111735.63246   5537204.11845  22657692.0784   22657695.7584
     -3403.6094      -2652.1634
  -2138729.45143  -1552379.06642  24408991.0634   24408997.3094
      1710.2814       1332.6874
 98  7  7 15 49  0.0000000  0  8G24G 4G 5G30G10G 8G 9G 6
   1200575.01747    952662.74446  20417962.5554   20417965.7774
     -1380.6094      -1075.8004
   7200051.54646   5601654.10845  22339454.2504   22339458.0124
     -3444.2344      -2683.8194
  -2523939.89547  -1961431.67646  20487207.0784   20487209.5274
       266.7974        207.8944
  -6497588.95646  -4930457.76346  22212530.8984   22212532.7624
      2103.9064       1639.4074
  -5134878.72445  -3841560.63543  23567837.2584   23567842.7544
      2408.0004       1876.3644
   1609537.65846   1254183.81646  21549811.4534   21549814.4774
     -1678.2504      -1307.7274
   7162837.98746   5577024.09945  22667416.6564   22667420.4414
     -3410.0474      -2657.1794
  -2164360.44943  -1572351.29142  24404113.5704   24404119.3014
      1707.0944       1330.2034
 98  7  7 15 49 15.0000000  0  8G24G 4G 5G30G10G 8G 9G 6
   1221361.14847    968859.72346  20421918.2034   20421921.6134
     -1390.8124      -1083.7504
   7251767.78646   5641952.45145  22349296.1024   22349300.0864
     -3451.2344      -2689.2744
  -2527876.33447  -1964499.03146  20486458.1724   20486460.7034
       258.0784        201.1004
  -6529104.72746  -4955015.49246  22206533.6564   22206535.9774
      2098.2034       1634.9634
  -5170970.02445  -3869683.69544  23560969.2034   23560973.0124
      2404.1724       1873.3814
   1634798.54246   1273867.60846  21554618.2664   21554621.3714
     -1689.8444      -1316.7614
   7214037.56446   5616919.84445  22677159.9304   22677163.9494
     -3416.5004      -2662.2084
  -2189940.53543  -1592283.79342  24399245.1334   24399250.5474
      1703.6094       1327.4884
 98  7  7 15 49 30.0000000  0  8G24G 4G 5G30G10G 8G 9G 6
   1242299.21746    985175.10146  20425902.5314   20425906.0824
     -1400.9224      -1091.6274
   7303587.32346   5682331.28546  22359156.4064   22359159.6054
     -3458.0164      -2694.5584
  -2531682.11547  -1967464.56546  20485734.0554   20485736.6214
       249.3134        194.2694
  -6560534.60646  -4979506.28846  22200552.6254   22200555.1334
      2092.4064       1630.4464
  -5207003.25645  -3897761.50543  23554112.6884   23554117.6094
      2400.3134       1870.3734
   1660229.88846   1293684.22146  21559457.6884   21559460.9574
     -1700.9224      -1325.3944
   7265332.14246   5656889.61345  22686920.9144   22686924.6524
     -3422.8444      -2667.1514
  -2215469.93843  -1612176.80043  24394387.1804   24394390.8484
      1700.3134       1324.9194
 98  7  7 15 49 45.0000000  0  8G24G 4G 5G30G10G 8G 9G 6
   1263391.03746   1001610.27946  20429916.3984   20429919.8094
     -1411.3594      -1099.7614
   7355509.69446   5722790.25145  22369037.0474   22369039.6724
     -3465.0474      -2700.0374
  -2535353.98547  -1970325.76046  20485034.9774   20485037.3674
       240.2034        187.1714
  -6591875.04846  -5003927.40146  22194588.6254   22194590.8984
      2086.2034       1625.6134
  -5242979.87345  -3925795.22243  23547266.2664   23547272.4304
      2396.5004       1867.4034
   1685826.90046   1313629.93046  21564328.6484   21564332.0004
     -1712.1414      -1334.1364
   7316724.37446   5696935.46445  22696700.5784   22696704.8324
     -3429.6094      -2672.4234
  -2240949.70243  -1632031.16142  24389538.6334   24389542.5594
      1696.9384       1322.2894
 98  7  7 15 50  0.0000000  0  8G24G 4G 5G30G10G 8G 9G 6
   1284635.78246   1018164.62246  20433958.8594   20433962.0004
     -1421.3914      -1107.5774
   7407533.62046   5763328.36245  22378937.0474   22378940.2934
     -3471.6254      -2705.1624
  -2538891.93647  -1973082.60046  20484361.7584   20484364.1844
       231.3914        180.3044
  -6623124.21746  -5028277.38646  22188642.1414   22188644.3554
      2080.2194       1620.9504
  -5278901.53645  -3953786.11744  23540431.0314   23540436.5984
      2392.8914       1864.5904
   1711589.41746   1333704.60946  21569231.0234   21569234.0594
     -1722.9694      -1342.5734
   7368216.57546   5737059.22545  22706499.2734   22706503.0234
     -3436.1094      -2677.4884
  -2266382.95043  -1651849.23843  24384699.6024   24384703.1644
      1694.1094       1320.0854
 98  7  7 15 50 15.0000000  0  8G24G 4G 5G30G10G 8G 9G 6
   1306031.98546   1034836.99046  20438030.6724   20438033.7074
     -1431.4534      -1115.4184
   7459656.74046   5803943.76845  22388855.1884   22388858.4924
     -3478.1254      -2710.2274
  -2542294.61447  -1975734.03946  20483714.5084   20483716.9454
       222.2504        173.1824
  -6654283.01746  -5052556.96546  22182713.0084   22182715.5744
      2074.2974       1616.3354
  -5314767.13245  -3981733.24643  23533606.2584   23533612.1174
      2389.2034       1861.7174
   1737514.24046   1353905.75546  21574164.6094   21574167.3404
     -1733.6874      -1350.9254
   7419804.63946   5777257.67645  22716316.1414   22716320.1024
     -3442.2664      -2682.2854
  -2291772.45543  -1671633.24142  24379867.1804   24379872.7114
      1691.1724       1317.7964
 98  7  7 15 50 30.0000000  0  8G24G 4G 5G30G10G 8G 9G 6
   1327578.71946   1051626.65146  20442130.7034   20442134.0664
     -1441.4534      -1123.2104
   7511876.04446   5844634.10445  22398793.0084   22398796.6884
     -3484.3594      -2715.0854
  -2545558.58147  -1978277.38646  20483093.1024   20483095.5274
       212.9384        165.9254
  -6685353.88546  -5076768.00746  22176800.2584   22176803.1764
      2068.5474       1611.8554
  -5350577.66145  -4009637.56444  23526792.1334   23526797.4184
      2385.4384       1858.7824
   1763599.52146   1374231.93546  21579128.3364   21579131.3834
     -1744.3444      -1359.2294
   7471484.21846   5817527.45145  22726150.1254   22726154.3674
     -3448.2974      -2686.9854
  -2317117.05843  -1691382.30542  24375044.8364   24375050.5784
      1688.1414       1315.4344
 98  7  7 15 50 45.0000000  0  8G24G 4G 5G30G10G 8G 9G 6
   1349276.05346   1068533.66346  20446259.6804   20446263.2544
     -1451.5314      -1131.0634
   7564186.14246   5885395.19745  22408747.7584   22408751.2154
     -3490.2974      -2719.7124
  -2548682.04547  -1980711.25046  20482498.7504   20482501.2114
       203.5634        158.6204
  -6716340.65146  -5100913.52746  22170903.7664   22170906.4614
      2063.0634       1607.5814
  -5386329.38645  -4037496.02744  23519988.0784   23519993.6564
      2381.4694       1855.6904
   1789844.77846   1394682.76746  21584122.7034   21584125.8094
     -1755.0164      -1367.5454
   7523252.80546   5857866.59145  22736001.6564   22736005.2074
     -3454.1094      -2691.5144
  -2342417.48543  -1711096.86642  24370229.5474   24370233.3204
      1685.2664       1313.1944
 98  7  7 15 51  0.0000000  0  8G24G 4G 5G30G10G 8G 9G 6
   1371125.32446   1085559.06246  20450417.7034   20450420.8914
     -1461.6874      -1138.9774
   7616585.75046   5926226.04245  22418718.6724   22418722.4574
     -3496.2664      -2724.3634
  -2551663.40047  -1983034.38446  20481931.3524   20481934.1884
       193.9844        151.1574
  -6747244.71446  -5124994.59646  22165022.9844   22165025.7504
      2057.5634       1603.2954
  -5422019.90745  -4065306.78144  23513196.3914   23513201.3364
      2377.2974       1852.4394
   1816249.24346   1415257.66746  21589147.3444   21589150.1804
     -1765.5624      -1375.7634
   7575108.84946   5898273.85845  22745869.5004   22745872.8634
     -3459.9844      -2696.0924
  -2367673.89443  -1730777.21442  24365423.6564   24365429.6564
      1682.2974       1310.8814
 98  7  7 15 51 15.0000000  0  8G24G 4G 5G30G10G 8G 9G 6
   1393128.17946   1102704.14246  20454604.7734   20454608.1954
     -1472.0624      -1147.0624
   7669073.61446   5967125.65945  22428706.6954   22428709.9414
     -3502.2344      -2729.0144
  -2554503.81947  -1985247.69446  20481390.8524   20481393.6524
       184.6884        143.9124
  -6778069.47246  -5149013.87346  22159157.3524   22159160.2704
      2052.2974       1599.1924
  -5457648.87245  -4093069.58844  23506416.0004   23506420.9924
      2373.0944       1849.1644
   1842811.99646   1435955.90046  21594202.2344   21594205.4694
     -1776.2664      -1384.1034
   7627051.85746   5938748.89645  22755754.2034   22755757.5314
     -3465.8914      -2700.6944
  -2392887.52243  -1750424.14442  24360625.1644   24360629.8524
      1679.5314       1308.7264
 98  7  7 15 51 30.0000000  0  8G24G 4G 5G30G10G 8G 9G 6
   1415284.81846   1119969.05646  20458820.6644   20458824.0274
     -1482.1254      -1154.9034
   7721650.56446   6008094.69546  22438712.1174   22438715.3634
     -3508.1094      -2733.5924
  -2557205.75047  -1987353.09046  20480876.8834   20480879.6954
       175.4844        136.7414
  -6808813.46346  -5172970.21946  22153306.8754   22153309.5474
      2046.7814       1594.8944
  -5493213.37245  -4120782.12943  23499648.5634   23499654.5864
      2368.7344       1845.7674
   1869537.07546   1456780.62546  21599287.9144   21599291.3594
     -1787.2194      -1392.6384
   7679084.77346   5979293.98545  22765655.5944   22765658.9104
     -3471.8914      -2705.3694
  -2418062.00643  -1770040.58743  24355835.5004   24355839.3554
      1677.1254       1306.8514
 98  7  7 15 51 45.0000000  0  8G24G 4G 5G30G10G 8G 9G 6
   1437589.72046   1137349.49946  20463065.3754   20463068.6914
     -1491.9694      -1162.5734
   7774315.82946   6049132.54746  22448733.6414   22448736.9924
     -3514.0474      -2738.2184
  -2559769.15747  -1989350.55246  20480388.8364   20480391.4964
       166.2344        129.5334
  -6839474.55946  -5196861.97246  22147472.0784   22147474.8204
      2041.3284       1590.6454
  -5528711.95345  -4148443.36244  23492893.4844   23492898.9924
      2364.3754       1842.3704
   1896428.55746   1477735.01146  21604404.7814   21604408.1914
     -1798.4224      -1401.3684
   7731206.86346   6019908.57445  22775573.8984   22775577.6954
     -3477.8124      -2709.9844
  -2443203.52443  -1789631.38242  24351049.9614   24351055.2234
      1675.0004       1305.1954
 98  7  7 15 52  0.0000000  0  8G24G 4G 5G30G10G 8G 9G 6
   1460043.63246   1154846.04946  20467338.0474   20467341.3874
     -1501.7344      -1170.1834
   7827072.91946   6090241.93846  22458773.0474   22458776.2814
     -3520.1094      -2742.9424
  -2562192.49547  -1991238.86346  20479927.7274   20479930.3054
       156.9844        122.3254
  -6870053.91746  -5220690.02646  22141652.9534   22141655.7304
      2036.0474       1586.5304
  -5564141.84345  -4176051.01944  23486151.5474   23486156.6214
      2359.6414       1838.6814
   1923492.95546   1498824.14346  21609555.3984   21609558.8794
     -1810.0784      -1410.4504
   7783418.76146   6060593.14745  22785509.7974   22785513.8634
     -3483.6254      -2714.5134
  -2468311.63544  -1809196.14542  24346272.8594   24346279.6564
      1672.7814       1303.4664
 98  7  7 15 52 15.0000000  0  8G24G 4G 5G30G10G 8G 9G 6
   1482642.98746   1172455.92946  20471638.5084   20471642.1054
     -1511.5474      -1177.8294
   7879920.24946   6131421.64746  22468829.5944   22468832.1604
     -3526.2504      -2747.7274
  -2564477.09547  -1993019.06946  20479493.0864   20479495.5704
       147.6254        115.0324
  -6900554.38246  -5244456.60846  22135848.8594   22135851.8954
      2030.6724       1582.3424
  -5599498.20145  -4203601.39044  23479423.5864   23479428.3094
      2354.5314       1834.7004
   1950730.87246   1520048.47946  21614738.2584   21614742.1134
     -1821.6414      -1419.4604
   7835715.61846   6101343.91345  22795461.7194   22795465.9734
     -3489.2664      -2718.9084
  -2493385.11743  -1828733.88542  24341502.1724   24341506.3444
      1670.3284       1301.5544
 98  7  7 15 52 30.0000000  0  8G24G 4G 5G30G10G 8G 9G 6
   1505389.68146   1190180.62546  20475967.1334   20475970.4964
     -1521.3754      -1185.4874
   7932858.52346   6172672.24445  22478903.1254   22478905.7624
     -3532.2194      -2752.3784
  -2566621.66647  -1994690.16446  20479085.2274   20479087.6764
       138.3134        107.7764
  -6930974.61646  -5268160.67146  22130060.2504   22130063.1914
      2025.3444       1578.1904
  -5634779.12045  -4231093.01544  23472709.1024   23472715.1844
      2349.5474       1830.8164
   1978141.91546   1541407.72446  21619954.3914   21619957.6024
     -1833.2504      -1428.5064
   7888096.60846   6142160.24545  22805429.0394   22805433.1524
     -3494.9224      -2723.3164
  -2518421.80143  -1848242.92042  24336737.4694   24336743.0234
      1667.8594       1299.6314
 98  7  7 15 52 45.0000000  0  8G24G 4G 5G30G10G 8G 9G 6
   1528283.66346   1208020.09146  20480323.7894   20480327.1294
     -1531.2034      -1193.1454
   7985885.95046   6213992.30145  22488993.9224   22488996.7584
     -3538.2194      -2757.0544
  -2568628.62947  -1996254.03246  20478703.0394   20478705.6524
       129.2814        100.7394
  -6961314.98046  -5291802.50546  22124286.5004   22124289.2424
      2019.9384       1573.9774
  -5669984.13645  -4258525.46444  23466010.7974   23466016.2344
      2344.3594       1826.7744
   2005728.29846   1562903.58946  21625204.1644   21625206.6844
     -1845.0314      -1437.6874
   7940563.71246   6183043.67345  22815413.6174   22815417.8014
     -3500.7974      -2727.8944
  -2543422.39543  -1867723.94742  24331980.0234   24331983.3874
      1665.4694       1297.7684
 98  7  7 15 53  0.0000000  0  8G24G 4G 5G30G10G 8G 9G 6
   1551324.49246   1225973.98146  20484708.1724   20484711.7464
     -1540.8754      -1200.6824
   8039006.69646   6255385.07145  22499102.6024   22499106.0944
     -3544.5784      -2762.0094
  -2570502.24747  -1997713.99046  20478346.6724   20478349.4494
       120.5784         93.9574
  -6991572.81246  -5315380.02346  22118528.7734   22118531.6804
      2014.4534       1569.7044
  -5705111.59645  -4285897.49044  23459326.0164   23459331.2194
      2339.3594       1822.8774
   2033493.05746   1584538.44446  21630487.7274   21630490.6804
     -1856.9064      -1446.9404
   7993120.42346   6223996.91945  22825415.0944   22825419.1024
     -3506.7664      -2732.5454
  -2568385.57244  -1887175.72842  24327229.8134   24327234.6884
      1662.9384       1295.7954
 98  7  7 15 53 15.0000000  0  8G24G 4G 5G30G10G 8G 9G 6
   1574510.45346   1244040.96346  20489120.3364   20489124.0164
     -1550.5624      -1208.2314
   8092223.69346   6296852.82945  22509229.3134   22509232.6524
     -3550.9374      -2766.9644
  -2572245.66047  -1999072.48846  20478014.8754   20478017.3834
       111.9844         87.2614
  -7021746.50846  -5338891.97646  22112786.6644   22112789.6414
      2008.7814       1565.2844
  -5740163.98145  -4313210.97544  23452655.3674   23452661.1684
      2334.3754       1818.9944
   2061437.18846   1606313.07846  21635805.1334   21635808.2274
     -1868.9374      -1456.3154
   8045767.17546   6265020.34445  22835433.1334   22835436.8594
     -3512.7034      -2737.1714
  -2593308.71244  -1906596.35243  24322486.9304   24322492.9534
      1660.2034       1293.6654
 98  7  7 15 53 30.0000000  0  8G24G 4G 5G30G10G 8G 9G 6
   1597842.79546   1262221.99846  20493560.4774   20493564.2734
     -1560.3444      -1215.8524
   8145536.79646   6338395.48745  22519374.6954   22519378.5274
     -3557.3914      -2771.9934
  -2573861.53047  -2000331.60746  20477707.2584   20477709.7074
       103.4534         80.6134
  -7051833.59446  -5362336.45246  22107061.5004   22107064.1254
      2002.8284       1560.6454
  -5775140.67345  -4340465.54044  23445999.4454   23446005.3404
      2329.2194       1814.9764
   2089562.30346   1628228.73346  21641157.1254   21641160.5004
     -1881.0474      -1465.7514
   8098502.24746   6306112.56245  22845468.4614   22845473.0554
     -3518.5624      -2741.7374
  -2618190.85643  -1925984.98243  24317751.4534   24317755.4964
      1657.4534       1291.5224
 98  7  7 15 53 45.0000000  0  8G24G 4G 5G30G10G 8G 9G 6
   1621319.99746   1280515.91846  20498028.1254   20498031.6994
     -1569.9694      -1223.3524
   8198945.68046   6380012.77845  22529538.0234   22529542.1484
     -3563.8284      -2777.0094
  -2575347.41347  -2001489.43846  20477424.6804   20477427.1294
        94.6564         73.7584
  -7081831.71946  -5385711.59346  22101352.7034   22101355.3634
      1996.9224       1556.0434
  -5810040.91245  -4367660.46944  23439358.2584   23439364.0004
      2324.1414       1811.0194
   2117868.54746   1650285.53546  21646543.6094   21646546.7034
     -1893.1094      -1475.1504
   8151323.03046   6347271.59945  22855519.5004   22855523.8134
     -3524.1724      -2746.1084
  -2643029.73343  -1945339.92343  24313025.6334   24313030.9534
      1654.3754       1289.1234
 98  7  7 15 54  0.0000000  0  8G24G 4G 5G30G10G 8G 9G 6
   1644942.07546   1298922.72846  20502523.3984   20502527.0434
     -1579.7194      -1230.9504
   8252451.31246   6421705.44845  22539719.6644   22539723.8954
     -3570.3124      -2782.0624
  -2576701.48747  -2002544.56546  20477166.9534   20477169.1914
        85.8444         66.8914
  -7111742.92446  -5409019.01446  22095661.1094   22095664.0864
      1991.1724       1551.5634
  -5844866.24445  -4394797.08544  23432731.6094   23432738.0204
      2319.2034       1807.1714
   2146353.40746   1672481.51246  21651963.9534   21651967.6804
     -1904.8914      -1484.3304
   8204226.50046   6388495.03845  22865586.7114   22865591.3524
     -3529.7194      -2750.4304
  -2667819.92243  -1964656.97442  24308307.6724   24308312.2074
      1650.8914       1286.4084
 98  7  7 15 54 15.0000000  0  8G24G 4G 5G30G10G 8G 9G 6
   1668709.07446   1317442.46446  20507045.7114   20507049.4144
     -1589.2664      -1238.3894
   8306052.40446   6463472.51045  22549919.7894   22549923.3754
     -3576.5164      -2786.8954
  -2577925.68447  -2003498.48146  20476934.0004   20476936.3554
        77.3444         60.2684
  -7141568.40346  -5432259.62946  22089985.6724   22089988.5314
      1985.4694       1547.1194
  -5879619.24345  -4421877.31244  23426117.7504   23426123.1414
      2314.5784       1803.5674
   2175011.53646   1694812.50746  21657417.6724   21657421.1884
     -1916.1724      -1493.1214
   8257212.58546   6429782.86645  22875670.0864   22875675.1484
     -3535.1564      -2754.6674
  -2692558.03043  -1983933.34442  24303599.9454   24303606.0744
      1647.4534       1283.7304
 98  7  7 15 54 30.0000000  0  8G24G 4G 5G30G10G 8G 9G 6
   1692622.17946   1336076.04746  20511596.3204   20511599.7774
     -1599.1414      -1246.0844
   8359748.58346   6505313.65945  22560137.4224   22560140.7624
     -3582.9224      -2791.8874
  -2579020.32447  -2004351.44946  20476725.7034   20476727.9534
        68.6094         53.4624
  -7171304.18346  -5455430.35546  22084326.8204   22084329.7974
      1979.3444       1542.3464
  -5914304.48645  -4448904.75044  23419517.2114   23419522.5434
      2310.2194       1800.1704
   2203840.01146   1717276.23346  21662903.2424   21662906.6644
     -1927.6564      -1502.0704
   8310283.37146   6471136.68945  22885769.2584   22885772.8204
     -3540.9694      -2759.1964
  -2717242.99243  -2003168.37242  24298903.3364   24298908.9844
      1643.9694       1281.0154
 98  7  7 15 54 45.0000000  0  8G24G 4G 5G30G10G 8G 9G 6
   1716682.23546   1354824.13546  20516174.8594   20516178.1884
     -1608.7664      -1253.5844
   8413540.38746   6547229.33545  22570373.9064   22570377.8794
     -3589.2344      -2796.8064
  -2579984.06747  -2005102.41346  20476542.0784   20476544.3634
        60.0004         46.7534
  -7200949.96046  -5478530.94646  22078685.6884   22078688.4884
      1973.5164       1537.8044
  -5948926.33245  -4475882.78644  23412929.2274   23412934.3834
      2306.1414       1796.9934
   2232841.88346   1739875.08246  21668422.3754   21668426.1724
     -1939.1414      -1511.0194
   8363442.22446   6512559.13845  22895885.1254   22895888.6524
     -3546.8124      -2763.7504
  -2741876.52543  -2022363.30342  24294215.6024   24294221.8364
      1640.5634       1278.3604
 98  7  7 15 55  0.0000000  0  8G24G 4G 5G30G10G 8G 9G 6
   1740886.84446   1373684.86546  20520780.9224   20520784.2974
     -1618.6094      -1261.2544
   8467428.72446   6589220.22045  22580628.9384   22580632.2774
     -3595.9374      -2802.0294
  -2580818.00347  -2005752.23346  20476383.6484   20476386.2624
        51.0784         39.8014
  -7230507.43246  -5501562.72746  22073060.5164   22073063.1054
      1967.4384       1533.0684
  -5983486.67345  -4502812.86344  23406352.4844   23406357.0904
      2301.8594       1793.6574
   2262014.63246   1762607.08046  21673973.8134   21673977.4924
     -1950.5624      -1519.9194
   8416690.43546   6554051.20045  22906017.0944   22906020.2234
     -3552.9844      -2768.5594
  -2766458.78944  -2041518.27943  24289538.0704   24289543.4024
      1637.0004       1275.5844
 98  7  7 15 55 15.0000000  0  8G24G 4G 5G30G10G 8G 9G 6
   1765238.03546   1392659.82146  20525414.7194   20525417.8484
     -1628.6874      -1269.1074
   8521414.72046   6631287.21545  22590902.0704   22590905.0234
     -3602.5784      -2807.2044
  -2581516.12547  -2006296.22846  20476250.7194   20476253.0164
        41.5164         32.3504
  -7259975.06146  -5524524.50246  22067453.1254   22067455.6914
      1961.1414       1528.1624
  -6017985.33145  -4529694.92044  23399787.3444   23399792.5354
      2297.5164       1790.2724
   2291355.98246   1785470.46246  21679557.4454   21679560.5634
     -1962.1094      -1528.9164
   8470028.79346   6595613.52545  22916167.8134   22916171.7034
     -3559.2034      -2773.4054
  -2790988.96944  -2060632.67642  24284869.4614   24284874.5124
      1633.2974       1272.6994
 98  7  7 15 55 30.0000000  0  8G24G 4G 5G30G10G 8G 9G 6
   1789742.50546   1411754.20946  20530077.6804   20530081.3834
     -1638.6094      -1276.8384
   8575498.52346   6673430.41545  22601193.4384   22601196.1684
     -3608.6564      -2811.9404
  -2582067.15247  -2006725.59946  20476145.9614   20476148.4344
        31.8594         24.8254
  -7289346.04846  -5547410.96646  22061864.1334   22061866.7934
      1954.9064       1523.3044
  -6052417.75445  -4556525.34144  23393235.6484   23393241.6724
      2293.4064       1787.0704
   2320871.99246   1808469.92546  21685173.7974   21685177.0554
     -1973.3914      -1537.7074
   8523460.34046   6637248.45745  22926335.4454   22926339.4304
     -3565.0314      -2777.9464
  -2815463.44943  -2079703.66042  24280212.4534   24280218.4414
      1629.9694       1270.1064
 98  7  7 15 55 45.0000000  0  8G24G 4G 5G30G10G 8G 9G 6
   1814393.87046   1430963.05846  20534768.6484   20534772.9964
     -1648.3284      -1284.4124
   8629672.63746   6715643.99745  22611503.0864   22611506.4144
     -3614.6414      -2816.6034
  -2582472.79047  -2007041.67846  20476068.7664   20476070.9454
        22.1094         17.2284
  -7318623.86646  -5570224.84446  22056292.5314   22056295.1094
      1948.7194       1518.4824
  -6086789.09745  -4583308.17344  23386694.4924   23386699.6954
      2289.3594       1783.9164
   2350556.76046   1831600.89946  21690823.0784   21690826.5234
     -1984.6724      -1546.4984
   8576978.57346   6678950.94045  22936519.5704   22936523.8014
     -3570.7974      -2782.4394
  -2839890.42044  -2098737.63242  24275563.7274   24275569.4454
      1626.8754       1267.6954
 98  7  7 15 56  0.0000000  0  8G24G 4G 5G30G10G 8G 9G 6
   1839192.48746   1450286.64546  20539487.6564   20539491.8754
     -1658.1094      -1292.0334
   8683938.66246   6757929.19345  22621829.5164   22621832.2814
     -3620.7814      -2821.3884
  -2582730.30847  -2007242.34346  20476019.6724   20476022.2734
        12.2814          9.5704
  -7347807.09846  -5592965.00546  22050739.3594   22050741.5044
      1942.3914       1513.5514
  -6121098.13945  -4610042.46645  23380165.8834   23380171.1804
      2285.2034       1780.6784
   2380411.96746   1854864.67846  21696504.1804   21696507.7074
     -1995.9224      -1555.2644
   8630584.42346   6720721.70845  22946720.0634   22946724.1764
     -3576.6094      -2786.9684
  -2864269.14643  -2117733.98243  24270925.1804   24270930.4774
      1623.6884       1265.2114
 98  7  7 15 56 15.0000000  0  8G24G 4G 5G30G10G 8G 9G 6
   1864137.55146   1469724.35546  20544234.5784   20544238.2344
     -1667.8284      -1299.6064
   8738296.33646   6800285.81145  22632173.4304   22632176.8404
     -3626.8124      -2826.0884
  -2582841.18047  -2007328.73746  20475998.5704   20476001.0904
         2.5634          1.9974
  -7376895.74846  -5615631.46646  22045203.6484   22045205.9454
      1936.1414       1508.6814
  -6155345.67445  -4636728.81744  23373648.1334   23373653.2774
      2281.2034       1777.5614
   2410434.81946   1878259.09446  21702217.2194   21702220.3594
     -2007.0624      -1563.9454
   8684278.11846   6762560.92345  22956938.0164   22956942.3404
     -3582.4844      -2791.5464
  -2888603.21244  -2136695.62542  24266294.6254   24266300.2624
      1621.0004       1263.1174
 98  7  7 15 56 30.0000000  0  8G24G 4G 5G30G10G 8G 9G 6
   1889229.90146   1489276.83146  20549009.3834   20549012.7114
     -1677.7814      -1307.3624
   8792746.11546   6842714.18445  22642535.2344   22642538.9144
     -3633.0784      -2830.9704
  -2582803.64047  -2007299.48646  20476005.7664   20476008.1804
        -7.5474         -5.8814
  -7405886.81746  -5638221.89546  22039687.1884   22039689.6604
      1929.3914       1503.4214
  -6189529.27545  -4663365.35844  23367143.3444   23367148.2194
      2276.6414       1774.0064
   2440627.34346   1901785.72146  21707962.8364   21707966.2704
     -2018.5944      -1572.9304
   8738060.68646   6804469.38645  22967172.5314   22967176.5634
     -3588.4224      -2796.1734
  -2912897.46744  -2155626.16243  24261671.0784   24261674.5474
      1618.3594       1261.0594
 98  7  7 15 56 45.0000000  0  8G24G 4G 5G30G10G 8G 9G 6
   1914468.26746   1508943.09446  20553811.9614   20553815.4064
     -1687.4374      -1314.8864
   8847286.36146   6885213.06145  22652913.3444   22652916.4734
     -3639.0784      -2835.6454
  -2582616.37247  -2007153.56046  20476041.3834   20476043.5634
       -17.5474        -13.6734
  -7434781.03046  -5660736.84546  22034188.6884   22034191.3364
      1923.0784       1498.5024
  -6223646.23245  -4689949.96444  23360651.1254   23360656.6804
      2272.1094       1770.4754
   2470991.96346   1925446.44646  21713740.8204   21713744.1484
     -2030.1724      -1581.9524
   8791928.54846   6846444.30045  22977423.5474   22977427.6844
     -3594.0784      -2800.5804
  -2937156.16944  -2174529.02143  24257054.7734   24257059.9184
      1616.0784       1259.2824
 98  7  7 15 57  0.0000000  0  8G24G 4G 5G30G10G 8G 9G 6
   1939852.37946   1528722.91346  20558642.7274   20558646.1484
     -1697.2034      -1322.4964
   8901917.35046   6927782.62245  22663309.4534   22663313.0514
     -3645.0944      -2840.3334
  -2582277.83747  -2006889.76746  20476105.8134   20476108.0744
       -27.6254        -21.5264
  -7463579.78846  -5683177.42446  22028708.3134   22028710.9024
      1916.6884       1493.5234
  -6257691.33345  -4716478.58545  23354172.5004   23354178.3954
      2267.1564       1766.6154
   2501529.92546   1949242.23946  21719552.0784   21719555.1604
     -2041.5784      -1590.8404
   8845881.65846   6888485.65145  22987690.5394   22987695.1214
     -3599.6874      -2804.9514
  -2961379.51444  -2193404.33343  24252445.0634   24252451.7304
      1613.6414       1257.3824
 98  7  7 15 57 15.0000000  0  8G24G 4G 5G30G10G 8G 9G 6
   1965383.60246   1548617.37146  20563501.2894   20563504.7934
     -1707.0004      -1330.1304
   8956638.51546   6970422.49045  22673722.5944   22673726.4384
     -3651.0164      -2844.9474
  -2581787.07147  -2006507.35746  20476199.1094   20476201.3834
       -37.7664        -29.4284
  -7492281.44446  -5705542.33746  22023247.0084   22023249.3054
      1910.2034       1488.4704
  -6291661.00045  -4742948.45244  23347708.0784   23347714.0554
      2262.1254       1762.6954
   2532238.84446   1973171.24046  21725395.7814   21725398.5124
     -2052.9844      -1599.7284
   8899917.71146   6930591.62545  22997972.9694   22997977.6914
     -3605.0784      -2809.1524
  -2985566.16444  -2212251.03243  24247843.0164   24247848.3594
      1611.2504       1255.5194
 98  7  7 15 57 30.0000000  0  8G24G 4G 5G30G10G 8G 9G 6
   1991063.71646   1568627.84746  20568388.0314   20568391.2774
     -1716.9694      -1337.8984
   9011448.55346   7013131.58245  22684152.5474   22684156.4964
     -3656.9224      -2849.5504
  -2581144.54447  -2006006.68746  20476321.4694   20476323.8834
       -47.7344        -37.1964
  -7520884.06046  -5727830.06746  22017804.0164   22017806.5004
      1903.5474       1483.2834
  -6325553.00845  -4769357.77544  23341259.1024   23341264.8204
      2256.8594       1758.5924
   2563121.48946   1997235.61646  21731272.9304   21731275.6484
     -2064.6254      -1608.7994
   8954035.67946   6972761.43045  23008271.3284   23008275.2424
     -3610.6094      -2813.4624
  -3009715.56844  -2231068.73743  24243246.7114   24243251.6334
      1608.7344       1253.5594
 98  7  7 15 57 45.0000000  0  8G24G 4G 5G30G10G 8G 9G 6
   2016892.83246   1588754.42646  20573303.2034   20573306.4144
     -1726.9064      -1345.6414
   9066347.26846   7055909.77745  22694599.2584   22694602.9964
     -3662.9694      -2854.2614
  -2580356.57747  -2005392.68746  20476471.3674   20476473.7234
       -57.2814        -44.6354
  -7549387.49446  -5750040.52246  22012379.9694   22012382.3954
      1896.9844       1478.1704
  -6359365.39445  -4795705.07245  23334825.0164   23334830.9224
      2251.4534       1754.3794
   2594176.27346   2021434.13546  21737182.5394   21737185.5394
     -2075.9224      -1617.6014
   9008237.01346   7014996.20645  23018585.7344   23018590.2814
     -3616.2814      -2817.8814
  -3033828.48044  -2249857.97143  24238658.8364   24238662.1414
      1606.3444       1251.6964
 98  7  7 15 58  0.0000000  0  8G24G 4G 5G30G10G 8G 9G 6
   2042869.80846   1608996.21846  20578246.3284   20578249.6804
     -1736.6874      -1353.2634
   9121337.55746   7098759.34045  22705063.2114   22705066.1524
     -3669.0474      -2858.9984
  -2579426.42547  -2004667.89746  20476648.4144   20476650.6764
       -66.7194        -51.9894
  -7577794.21546  -5772175.61646  22006974.2734   22006976.7234
      1890.5944       1473.1904
  -6393096.56445  -4821989.07445  23328405.7344   23328411.6644
      2246.0784       1750.1914
   2625398.34546   2045763.00046  21743123.5944   21743127.1214
     -2087.0004      -1626.2344
   9062525.14646   7057298.60445  23028916.1254   23028920.5434
     -3622.1564      -2822.4594
  -3057905.57744  -2268619.29243  24234076.5084   24234082.0744
      1603.9224       1249.8094
 98  7  7 15 58 15.0000000  0  8G24G 4G 5G30G10G 8G 9G 6
   2068994.45646   1629353.08646  20583217.7894   20583221.0704
     -1746.6254      -1361.0064
   9176419.10146   7141679.99645  22715544.9534   22715548.2814
     -3675.1094      -2863.7224
  -2578353.60347  -2003831.93046  20476852.8284   20476855.3244
       -76.3594        -59.5014
  -7606104.63546  -5794235.66346  22001586.7344   22001588.7734
      1884.1254       1468.1494
  -6426745.81645  -4848209.24245  23322002.9924   23322008.8164
      2240.4694       1745.8204
   2656786.22546   2070221.08446  21749096.7584   21749100.6724
     -2098.0624      -1634.8544
   9116903.56546   7099671.37245  23039264.3754   23039268.0554
     -3628.2814      -2827.2324
  -3081944.92044  -2287351.23043  24229501.8984   24229508.1454
      1601.2814       1247.7524
 98  7  7 15 58 30.0000000  0  8G24G 4G 5G30G10G 8G 9G 6
   2095267.06346   1649825.23346  20588217.6024   20588220.8014
     -1756.4844      -1368.6894
   9231587.92846   7184668.66945  22726043.6414   22726046.8874
     -3680.7814      -2868.1414
  -2577138.00847  -2002884.72446  20477083.8204   20477086.2114
       -85.8444        -66.8914
  -7634320.80846  -5816222.27946  21996217.4614   21996219.7704
      1877.9224       1463.3164
  -6460313.23145  -4874365.62245  23315615.2344   23315621.1994
      2235.0784       1741.6194
   2688338.71546   2094807.41446  21755100.9924   21755104.3094
     -2109.0624      -1643.4254
   9171372.67546   7142114.80345  23049629.4454   23049633.6994
     -3634.3444      -2831.9564
  -3105946.34144  -2306053.59243  24224934.9144   24224939.0164
      1598.7974       1245.8164
 98  7  7 15 58 45.0000000  0  8G24G 4G 5G30G10G 8G 9G 6
   2121689.77247   1670414.35846  20593245.4844   20593248.3674
     -1766.5314      -1376.5184
   9286842.82346   7227724.39845  22736558.6174   22736562.8484
     -3686.4844      -2872.5854
  -2575777.65447  -2001824.71046  20477342.7584   20477344.9844
       -95.5474        -74.4524
  -7662440.92946  -5838134.04446  21990866.1254   21990868.2934
      1871.5004       1458.3124
  -6493795.41645  -4900455.64745  23309243.5234   23309249.5824
      2229.2664       1737.0904
   2720059.91646   2119525.21946  21761137.3914   21761140.5204
     -2120.4224      -1652.2774
   9225934.65745   7184630.58445  23060012.3594   23060016.5434
     -3640.6254      -2836.8514
  -3129906.32644  -2324723.70943  24220376.0704   24220380.3134
      1595.8284       1243.5024
 98  7  7 15 59  0.0000000  0  8G24G 4G 5G30G10G 8G 9G 6
   2148265.20947   1691122.49146  20598302.5784   20598305.4844
     -1776.8444      -1384.5544
   9342183.28646   7270846.80545  22747089.1484   22747093.1914
     -3692.2504      -2877.0784
  -2574271.64447  -2000651.19146  20477629.5864   20477631.6134
      -105.2344        -82.0014
  -7690465.14446  -5859971.07146  21985533.7504   21985536.0124
      1865.0314       1453.2714
  -6527191.40845  -4926478.46545  23302888.6174   23302894.4304
      2223.5784       1732.6584
   2751951.05546   2144375.44046  21767205.7034   21767208.7274
     -2131.6414      -1661.0194
   9280594.25745   7227222.46245  23070413.2894   23070417.8014
     -3647.2814      -2842.0374
  -3153819.08444  -2343356.99843  24215824.4614   24215829.6994
      1592.4844       1240.8974
 98  7  7 15 59 15.0000000  0  8G24G 4G 5G30G10G 8G 9G 6
   2174995.08646   1711950.96746  20603389.0314   20603392.1024
     -1787.1874      -1392.6144
   9397610.50346   7314036.82845  22757636.4304   22757639.7814
     -3698.0944      -2881.6314
  -2572620.74147  -1999364.77846  20477943.5554   20477946.1214
      -114.8914        -89.5254
  -7718391.36046  -5881731.74446  21980219.6174   21980221.7624
      1858.4384       1448.1334
  -6560503.08345  -4952435.58345  23296549.7584   23296555.6054
      2217.9534       1728.2754
   2784007.70346   2169354.61446  21773306.1724   21773308.8914
     -2142.6414      -1669.5904
   9335350.69345   7269889.77245  23080833.3364   23080837.8484
     -3653.6094      -2846.9684
  -3177680.05444  -2361949.93443  24211284.5234   24211290.2194
      1588.9384       1238.1334
 98  7  7 15 59 30.0000000  0  8G24G 4G 5G30G10G 8G 9G 6
   2201880.01546   1732900.25346  20608505.1174   20608508.3164
     -1797.5314      -1400.6744
   9453126.19246   7357295.77145  22768201.0394   22768204.4844
     -3704.0474      -2886.2704
  -2570825.31347  -1997965.74846  20478284.8914   20478287.2934
      -124.5624        -97.0624
  -7746217.98046  -5903414.80746  21974924.2504   21974926.4304
      1851.7034       1442.8864
  -6593730.07145  -4978326.72245  23290226.8444   23290231.2734
      2212.2194       1723.8074
   2816230.98046   2194463.65046  21779438.1644   21779440.8834
     -2153.9374      -1678.3934
   9390203.02545   7312631.82145  23091271.1804   23091275.1414
     -3660.1254      -2852.0454
  -3201488.41044  -2380501.86743  24206753.9844   24206757.9804
      1585.4694       1235.4304
 98  7  7 15 59 45.0000000  0  8G24G 4G 5G30G10G 8G 9G 6
   2228921.63546   1753971.64946  20613650.8284   20613653.8164
     -1807.9534      -1408.7954
   9508732.01846   7400624.97945  22778782.8914   22778786.3484
     -3710.0784      -2890.9704
  -2568882.18447  -1996451.62446  20478654.8754   20478656.9264
      -134.5474       -104.8424
  -7773941.64546  -5925017.64546  21969648.5004   21969650.8094
      1844.7974       1437.5044
  -6626868.84645  -5004149.11445  23283920.9064   23283925.1844
      2206.3284       1719.2174
   2848626.71646   2219707.06346  21785602.6724   21785606.3984
     -2165.5004      -1687.4034
   9445155.69245   7355452.03945  23101728.5474   23101732.2034
     -3666.8444      -2857.2814
  -3225242.45744  -2399011.45543  24202234.0164   24202237.7304
      1581.7974       1232.5694
 98  7  7 16  0  0.0000000  0  8G24G 4G 5G30G10G 8G 9G 6
   2256118.56746   1775164.05946  20618826.3914   20618829.7194
     -1818.3444      -1416.8914
   9564430.52246   7444026.37645  22789381.4224   22789386.1914
     -3716.4374      -2895.9254
  -2566786.57147  -1994818.67646  20479053.8594   20479056.0634
      -144.9844       -112.9754
  -7801560.68446  -5946538.96246  21964392.8594   21964394.8164
      1837.6724       1431.9524
  -6659919.12545  -5029902.55645  23277631.3834   23277637.4414
      2200.3594       1714.5664
   2881197.41146   2245086.81946  21791800.6954   21791804.4224
     -2177.3594      -1696.6444
   9500209.02545   7398350.70945  23112205.1954   23112209.6374
     -3673.5624      -2862.5164
  -3248939.96944  -2417477.02843  24197722.9144   24197727.8134
      1577.7504       1229.4164
 98  7  7 16  0 15.0000000  0  8G24G 4G 5G30G10G 8G 9G 6
   2283468.41646   1796475.62846  20624030.5634   20624034.2074
     -1828.4844      -1424.7934
   9620221.05646   7487499.49345  22799998.0164   22800002.7034
     -3722.4694      -2900.6254
  -2564535.77247  -1993064.81046  20479482.1724   20479484.3634
      -155.2664       -120.9864
  -7829074.50046  -5967978.27646  21959157.1724   21959159.3054
      1830.6564       1426.4854
  -6692883.33945  -5055588.91945  23271358.5704   23271363.9144
      2194.7034       1710.1584
   2913944.66546   2270604.14746  21798032.2734   21798036.1174
     -2189.1414      -1705.8244
   9555357.42845   7441323.46345  23122699.3054   23122703.4774
     -3679.6414      -2867.2524
  -3272578.02244  -2435896.25543  24193226.1094   24193230.7154
      1573.7974       1226.3354
 98  7  7 16  0 30.0000000  0  8G24G 4G 5G30G10G 8G 9G 6
   2310974.16346   1817908.66846  20629265.2734   20629269.2584
     -1839.0784      -1433.0484
   9676106.54646   7531046.60545  22810633.3754   22810637.9344
     -3729.0624      -2905.7634
  -2562127.22347  -1991188.02046  20479940.5164   20479942.9534
      -165.9694       -129.3264
  -7856478.57046  -5989332.08346  21953942.1884   21953944.7194
      1823.0784       1420.5804
  -6725757.47345  -5081205.10045  23265102.9304   23265108.7194
      2188.4224       1705.2644
   2946873.36546   2296262.85346  21804298.2814   21804301.4694
     -2201.5624      -1715.5034
   9610597.84546   7484367.90545  23133211.7274   23133215.8404
     -3685.8444      -2872.0864
  -3296152.81444  -2454266.20743  24188739.3364   24188744.3874
      1569.3594       1222.8774
 98  7  7 16  0 45.0000000  0  8G24G 4G 5G30G10G 8G 9G 6
   2338638.05546   1839464.94146  20634529.3054   20634532.8794
     -1849.5004      -1441.1694
   9732091.65346   7574671.33645  22821286.4064   22821289.9344
     -3735.7974      -2911.0114
  -2559559.41747  -1989187.13146  20480429.0084   20480431.5864
      -176.5314       -137.5574
  -7883767.98346  -6010596.54546  21948749.2424   21948751.9384
      1815.3444       1414.5544
  -6758538.61445  -5106748.83045  23258864.6564   23258870.4224
      2182.2344       1700.4424
   2979989.55746   2322067.66046  21810600.0474   21810603.2234
     -2214.0314      -1725.2194
   9665931.50046   7527485.00845  23143740.5474   23143744.7194
     -3692.0784      -2876.9444
  -3319661.56344  -2472584.64442  24184266.1644   24184272.2814
      1564.9844       1219.4684
 98  7  7 16  1  0.0000000  0  8G24G 4G 5G30G10G 8G 9G 6
   2366458.08846   1861142.88546  20639823.2814   20639826.6454
     -1859.9064      -1449.2784
   9788179.79246   7618376.35245  22831959.8134   22831963.8204
     -3742.7344      -2916.4164
  -2556834.37047  -1987063.71546  20480947.5314   20480950.0984
      -186.8594       -145.6054
  -7910941.02146  -6031770.32546  21943578.4144   21943581.1214
      1807.6414       1408.5514
  -6791226.02545  -5132219.52545  23252644.4774   23252650.3594
      2176.0474       1695.6214
   3013291.61946   2348017.30546  21816937.3054   21816940.2814
     -2226.2504      -1734.7404
   9721357.05046   7570673.72045  23154287.8444   23154291.2774
     -3698.0624      -2881.6074
  -3343103.24744  -2490850.84643  24179805.4694   24179811.2114
      1560.5004       1215.9744
 98  7  7 16  1 15.0000000  0  8G24G 4G 5G30G10G 8G 9G 6
   2394436.78746   1882944.47146  20645147.3134   20645150.6994
     -1870.5784      -1457.5934
   9844376.01946   7662165.60545  22842653.3674   22842657.1994
     -3750.1874      -2922.2244
  -2553951.57047  -1984817.37546  20481496.1724   20481498.6334
      -197.5944       -153.9694
  -7937995.30446  -6052851.56346  21938430.0944   21938433.2934
      1799.5314       1402.2324
  -6823817.99845  -5157615.83545  23246442.5234   23246448.3244
      2169.4534       1690.4834
   3046777.67946   2374110.31846  21823309.9064   21823313.1884
     -2238.6414      -1744.3954
   9776873.51746   7613933.24645  23164852.5944   23164856.6374
     -3704.0944      -2886.3074
  -3366476.56644  -2509063.81243  24175357.4534   24175362.7734
      1555.8754       1212.3704
 98  7  7 16  1 30.0000000  0  8G24G 4G 5G30G10G 8G 9G 6
   2422571.64446   1904867.72846  20650501.1884   20650504.8444
     -1880.8914      -1465.6294
   9900682.25546   7706040.55645  22853368.3444   22853371.4494
     -3757.4224      -2927.8614
  -2550909.83447  -1982447.19046  20482075.1954   20482077.6804
      -208.0944       -162.1514
  -7964929.36246  -6073839.12446  21933304.4924   21933307.2704
      1791.5314       1395.9984
  -6856310.67345  -5182934.76545  23240259.3914   23240264.4534
      2162.7344       1685.2484
   3080449.82646   2400348.33946  21829717.1484   21829720.6054
     -2251.1254      -1754.1234
   9832477.68146   7657261.13645  23175433.8204   23175437.2894
     -3709.9844      -2890.8974
  -3389783.21844  -2527224.78443  24170921.7034   24170925.8054
      1551.5474       1208.9984
 98  7  7 16  1 45.0000000  0  8G24G 4G 5G30G10G 8G 9G 6
   2450862.56146   1926912.59346  20655884.8524   20655888.9304
     -1891.2504      -1473.7014
   9957097.06746   7750000.12345  22864103.4694   22864107.0664
     -3764.5624      -2933.4254
  -2547707.98547  -1979952.25046  20482684.4694   20482686.8244
      -218.8594       -170.5404
  -7991740.25546  -6094730.71346  21928202.7504   21928205.5164
      1783.2194       1389.5214
  -6888700.79945  -5208173.81945  23234095.5864   23234101.1294
      2155.9534       1679.9634
   3114311.31646   2426733.90346  21836160.4534   21836164.5314
     -2263.7344      -1763.9494
   9888173.72346   7700660.61145  23186032.3674   23186036.0594
     -3716.1414      -2895.6944
  -3413023.97444  -2545334.46043  24166499.4774   24166504.1644
      1547.1564       1205.5764
 98  7  7 16  2  0.0000000  0  8G24G 4G 5G30G10G 8G 9G 6
   2479310.88546   1949080.10746  20661298.5394   20661302.3594
     -1901.9534      -1482.0414
  10013622.99346   7794046.28045  22874860.0634   22874863.8134
     -3772.3754      -2939.5134
  -2544341.33347  -1977328.89246  20483325.1174   20483327.1804
      -230.0944       -179.2944
  -8018423.17946  -6115522.58046  21923125.1644   21923127.9884
      1774.4224       1382.6664
  -6920987.11645  -5233331.95645  23227951.4774   23227957.6414
      2148.7814       1674.3754
   3148361.95146   2453266.85746  21842640.4924   21842644.0784
     -2276.4224      -1773.8354
   9943962.28345   7744132.16345  23196649.1254   23196652.7704
     -3722.4064      -2900.5764
  -3436193.62044  -2563388.71043  24162090.7344   24162093.7704
      1542.0784       1201.6194
 98  7  7 16  2 15.0000000  0  8G24G 4G 5G30G10G 8G 9G 6
   2507919.52746   1971372.55946  20666742.4384   20666746.1524
     -1912.5004      -1490.2604
  10070266.78646   7838184.28145  22885639.0394   22885642.4844
     -3780.0164      -2945.4674
  -2540808.26447  -1974575.85446  20483997.5004   20483999.3404
      -240.9064       -187.7194
  -8044976.51946  -6136213.47546  21918072.2974   21918075.3554
      1766.0784       1376.1654
  -6953165.46345  -5258405.95145  23221828.3054   23221834.2344
      2141.6884       1668.8474
   3182600.69646   2479946.37746  21849156.1954   21849159.4414
     -2288.6724      -1783.3814
   9999843.06645   7787675.60345  23207282.9064   23207287.0084
     -3728.2814      -2905.1544
  -3459288.12244  -2581384.38043  24157695.5394   24157699.1254
      1537.2814       1197.8814
 98  7  7 16  2 30.0000000  0  8G24G 4G 5G30G10G 8G 9G 6
   2536689.17646   1993790.45946  20672217.2814   20672220.8794
     -1923.4534      -1498.7954
  10127025.19946   7882411.59645  22896439.7814   22896444.4574
     -3787.7194      -2951.4694
  -2537111.58447  -1971695.32746  20484700.7424   20484702.7234
      -251.9694       -196.3394
  -8071403.99646  -6156806.30246  21913043.1414   21913046.0124
      1757.6094       1369.5664
  -6985235.33445  -5283395.48345  23215725.4384   23215731.6134
      2134.2504       1663.0524
   3217024.38746   2506770.01746  21855706.6564   21855709.8094
     -2301.1874      -1793.1334
  10055813.86845   7831289.20645  23217933.4454   23217937.3134
     -3734.4844      -2909.9884
  -3482310.60943  -2599323.93343  24153314.1334   24153319.9104
      1532.4064       1194.0834
 98  7  7 16  2 45.0000000  0  8G24G 4G 5G30G10G 8G 9G 6
   2565623.51146   2016336.69646  20677723.2814   20677726.9264
     -1934.3914      -1507.3174
  10183898.27045   7926728.24745  22907262.0784   22907266.2384
     -3795.2504      -2957.3384
  -2533248.85647  -1968685.41546  20485435.8364   20485438.1914
      -263.0004       -204.9354
  -8097704.52346  -6177300.20246  21908038.2424   21908040.7504
      1749.2034       1363.0154
  -7017192.95645  -5308297.47745  23209644.3284   23209649.9884
      2126.8754       1657.3054
   3251636.24846   2533740.27246  21862293.2274   21862296.3674
     -2313.6414      -1802.8374
  10111878.14745   7874975.62545  23228602.1954   23228606.0744
     -3740.7194      -2914.8464
  -3505259.78843  -2617206.32443  24148946.1724   24148950.0514
      1527.5634       1190.3084
 98  7  7 16  3  0.0000000  0  8G24G 4G 5G30G10G 8G 9G 6
   2594720.56746   2039009.72346  20683260.2584   20683263.5634
     -1945.2974      -1515.8164
  10240882.94246   7971131.85845  22918105.9064   22918109.2584
     -3802.7034      -2963.1454
  -2529221.70047  -1965547.37346  20486202.2194   20486204.9614
      -274.0314       -213.5314
  -8123881.47646  -6197697.81246  21903056.8754   21903059.4064
      1741.0474       1356.6604
  -7049042.15745  -5333115.00945  23203583.6724   23203589.8954
      2119.6254       1651.6564
   3286431.22846   2560853.22246  21868914.4924   21868917.7734
     -2325.6564      -1812.2004
  10168035.09545   7918734.23245  23239288.0704   23239292.3714
     -3746.8594      -2919.6314
  -3528139.51944  -2635034.73643  24144594.6254   24144599.1374
      1523.0784       1186.8144
 98  7  7 16  3 15.0000000  0  8G24G 4G 5G30G10G 8G 9G 6
   2623984.33546   2061812.65246  20688829.1094   20688832.9654
     -1956.5004      -1524.5454
  10297980.15445   8015623.17245  22928971.1644   22928976.2034
     -3810.1874      -2968.9774
  -2525025.02847  -1962277.23346  20487000.7194   20487003.5314
      -285.5624       -222.5164
  -8149934.73746  -6217999.03946  21898099.3524   21898101.9064
      1732.7194       1350.1704
  -7080779.91045  -5357845.70045  23197543.9064   23197549.8244
      2112.1254       1645.8124
   3321408.94046   2588108.56746  21875570.4144   21875574.1414
     -2338.0004      -1821.8184
  10224284.49045   7962564.90145  23249992.2194   23249996.3324
     -3753.0944      -2924.4894
  -3550950.24044  -2652809.27243  24140252.4924   24140256.7344
      1518.3914       1183.1624
 98  7  7 16  3 30.0000000  0  8G24G 4G 5G30G10G 8G 9G 6
   2653414.68946   2084745.39146  20694429.2664   20694432.7584
     -1967.5004      -1533.1174
  10355187.46245   8060200.25245  22939857.8914   22939861.8164
     -3817.3754      -2974.5784
  -2520654.32047  -1958871.49246  20487832.5234   20487835.1134
      -297.1414       -231.5384
  -8175862.41746  -6238202.41146  21893165.4534   21893167.7734
      1724.2974       1343.6084
  -7112406.19145  -5382489.53745  23191525.3674   23191531.6484
      2104.7344       1640.0534
   3356572.96846   2615509.09546  21882262.1174   21882265.3634
     -2350.5624      -1831.6074
  10280628.12245   8006468.98845  23260714.3444   23260718.3524
     -3759.3594      -2929.3714
  -3573691.17044  -2670529.41243  24135924.8754   24135929.0594
      1513.7194       1179.5214
 98  7  7 16  3 45.0000000  0  8G24G 4G 5G30G10G 8G 9G 6
   2683008.54146   2107805.53646  20700060.6644   20700064.3324
     -1978.4844      -1541.6764
  10412498.56046   8104858.22745  22950763.8674   22950767.8634
     -3824.1874      -2979.8864
  -2516112.41847  -1955332.34746  20488696.9144   20488699.4454
      -308.5784       -240.4504
  -8201664.23146  -6258307.71246  21888255.3754   21888257.7544
      1715.8754       1337.0454
  -7143924.37345  -5407049.13645  23185527.8914   23185532.8134
      2097.6564       1634.5374
   3391923.45446   2643054.89946  21888989.2664   21888992.0904
     -2362.8594      -1841.1894
  10337064.40445   8050445.28945  23271453.5084   23271457.8554
     -3765.6254      -2934.2534
  -3596363.54544  -2688196.17443  24131610.8444   24131614.5824
      1509.2034       1176.0024
 98  7  7 16  4  0.0000000  0  8G24G 4G 5G30G10G 8G 9G 6
   2712770.30846   2130996.52146  20705724.3134   20705728.1214
     -1989.6254      -1550.3574
  10469914.74746   8149598.09145  22961689.4534   22961693.6484
     -3831.2194      -2985.3654
  -2511395.21247  -1951656.60646  20489594.3134   20489596.4924
      -320.2664       -249.5584
  -8227338.85946  -6278313.90346  21883369.8364   21883371.8874
      1707.5944       1330.5934
  -7175335.25245  -5431525.12145  23179550.4144   23179556.2274
      2090.5634       1629.0104
   3427459.59146   2670745.37146  21895751.4144   21895754.4614
     -2375.1564      -1850.7714
  10393597.41745   8094496.95345  23282211.6024   23282216.7344
     -3771.9844      -2939.2094
  -3618965.84244  -2705808.32743  24127309.7114   24127313.6954
      1504.5784       1172.3994
 98  7  7 16  4 15.0000000  0  8G24G 4G 5G30G10G 8G 9G 6
   2742697.81847   2154316.65046  20711419.4924   20711422.4924
     -2000.7664      -1559.0384
  10527434.31046   8194418.49945  22972635.5864   22972640.6374
     -3838.0314      -2990.6744
  -2506505.34947  -1947846.32946  20490525.0554   20490527.1644
      -331.7194       -258.4824
  -8252892.85346  -6298226.09546  21878506.9614   21878508.8714
      1699.6094       1324.3714
  -7206639.49245  -5455918.00445  23173593.9454   23173599.8054
      2083.2814       1623.3364
   3463178.52846   2698578.28546  21902548.5084   21902551.9414
     -2387.3594      -1860.2804
  10450224.75245   8138622.12245  23292987.8054   23292991.8714
     -3778.3754      -2944.1884
  -3641501.56144  -2723368.57743  24123021.1484   24123025.8714
      1500.2344       1169.0144
 98  7  7 16  4 30.0000000  0  8G24G 4G 5G30G10G 8G 9G 6
   2772792.24646   2177766.84346  20717145.7664   20717148.8244
     -2011.7504      -1567.5974
  10585052.66846   8239315.88345  22983599.8364   22983603.7274
     -3844.3124      -2995.5684
  -2501444.27647  -1943902.64546  20491487.9534   20491489.9694
      -343.0944       -267.3464
  -8278327.63246  -6318045.39846  21873667.0784   21873668.8484
      1691.6884       1318.1984
  -7237836.27345  -5480227.18745  23167657.2424   23167662.7504
      2076.3594       1617.9424
   3499079.69746   2726553.19846  21909380.3054   21909383.4924
     -2399.3914      -1869.6554
  10506949.66746   8182823.31545  23303781.6174   23303785.6724
     -3784.9064      -2949.2784
  -3663974.60744  -2740880.01343  24118745.0704   24118748.4224
      1496.2664       1165.9214
 98  7  7 16  4 45.0000000  0  8G24G 4G 5G30G10G 8G 9G 6
   2803053.98846   2201347.42046  20722904.9924   20722908.1214
     -2023.0004      -1576.3644
  10642767.75246   8284288.63245  22994583.1254   22994586.6884
     -3850.9064      -3000.7064
  -2496208.86447  -1939823.10446  20492484.1564   20492486.1954
      -354.8124       -276.4774
  -8303638.44546  -6337768.10546  21868850.3524   21868852.0514
      1683.2034       1311.5874
  -7268927.59145  -5504454.16745  23161740.5234   23161745.6454
      2069.2814       1612.4274
   3535164.67846   2754671.35046  21916246.6804   21916249.8444
     -2411.7814      -1879.3104
  10563776.01245   8227103.54745  23314595.3364   23314598.6414
     -3791.8124      -2954.6594
  -3686386.38544  -2758343.70743  24114480.1094   24114484.5984
      1492.1254       1162.6954
 98  7  7 16  5  0.0000000  0  8G24G 4G 5G30G10G 8G 9G 6
   2833481.81946   2225057.41446  20728694.8524   20728697.8874
     -2033.9064      -1584.8624
  10700581.44346   8329338.24545  23005584.3674   23005588.4694
     -3857.4694      -3005.8204
  -2490799.69647  -1935608.17246  20493513.4454   20493515.4384
      -366.2814       -285.4144
  -8328822.14646  -6357391.75246  21864058.1334   21864060.1134
      1674.7664       1305.0124
  -7299914.11145  -5528599.47645  23155843.6724   23155849.1564
      2062.3594       1607.0334
   3571432.30646   2782931.82246  21923148.3914   21923151.4494
     -2423.7504      -1888.6364
  10620706.28945   8271464.75945  23325429.3134   23325432.2774
     -3798.7974      -2960.1014
  -3708738.46844  -2775760.86943  24110226.1954   24110230.3444
      1488.3284       1159.7364
 98  7  7 16  5 15.0000000  0  8G24G 4G 5G30G10G 8G 9G 6
   2864071.56246   2248893.57146  20734515.9224   20734519.3554
     -2044.7194      -1593.2874
  10758491.10146   8374462.62045  23016603.9614   23016607.3134
     -3863.7344      -3010.7024
  -2485220.05047  -1931260.40046  20494575.6484   20494577.5004
      -377.6564       -294.2784
  -8353881.04846  -6376918.15946  21859289.3834   21859291.4694
      1666.4064       1298.4984
  -7330797.26045  -5552664.24145  23149966.9144   23149971.8594
      2055.3914       1601.6034
   3607877.60946   2811330.72746  21930083.8134   21930086.6484
     -2435.6254      -1897.8904
  10677740.15445   8315906.70045  23336282.5704   23336286.1334
     -3805.6874      -2965.4714
  -3731036.77244  -2793136.16543  24105983.2274   24105988.0904
      1484.7194       1156.9244
 98  7  7 16  5 30.0000000  0  8G24G 4G 5G30G10G 8G 9G 6
   2894819.12746   2272852.70546  20740367.2034   20740370.9534
     -2055.0164      -1601.3114
  10816489.89646   8419656.45445  23027640.5554   23027644.7854
     -3869.5314      -3015.2194
  -2479474.63647  -1926783.45846  20495668.6334   20495670.2854
      -388.4064       -302.6544
  -8378816.20146  -6396348.13946  21854544.6884   21854546.5514
      1658.2194       1292.1194
  -7361579.29545  -5576650.20045  23144109.5634   23144114.8484
      2048.8284       1596.4894
   3644498.47546   2839866.44746  21937052.1644   21937055.3634
     -2447.2344      -1906.9364
  10734875.64745   8360427.83245  23347155.3834   23347159.0164
     -3812.4844      -2970.7674
  -3753281.68244  -2810469.80443  24101750.1884   24101755.9654
      1481.2034       1154.1844
 98  7  7 16  5 45.0000000  0  8G24G 4G 5G30G10G 8G 9G 6
   2925723.77646   2296934.23846  20746248.2734   20746252.0474
     -2065.6254      -1609.5784
  10874579.33746   8464920.93645  23038695.1254   23038699.0274
     -3875.7814      -3020.0894
  -2473567.30547  -1922180.34546  20496793.0084   20496794.7664
      -399.2504       -311.1044
  -8403627.16746  -6415681.34946  21849823.1724   21849824.8244
      1649.9224       1285.6534
  -7392259.26245  -5600556.66845  23138271.2194   23138276.9264
      2041.7814       1590.9984
   3681295.13846   2868539.15846  21944054.6414   21944057.9924
     -2458.9374      -1916.0554
  10792115.78545   8405030.48945  23358047.6954   23358051.2934
     -3819.5784      -2976.2954
  -3775471.90044  -2827760.82643  24097527.1804   24097531.6334
      1477.4534       1151.2624
 98  7  7 16  6  0.0000000  0  8G24G 4G 5G30G10G 8G 9G 6
   2956785.76046   2321138.37746  20752158.9304   20752162.2234
     -2076.0164      -1617.6754
  10932761.77546   8510257.86245  23049767.0634   23049770.1914
     -3882.0314      -3024.9594
  -2467498.26447  -1917451.22546  20497947.6724   20497949.5704
      -410.0624       -319.5294
  -8428317.41646  -6434920.49246  21845124.6724   21845126.5234
      1642.0634       1279.5294
  -7422835.02845  -5624381.91445  23132452.9384   23132458.1524
      2034.8594       1585.6054
   3718262.27546   2897344.71046  21951089.1644   21951092.8914
     -2470.1414      -1924.7854
  10849460.61545   8449714.72845  23368959.5474   23368962.9804
     -3826.5004      -2981.6884
  -3797608.95544  -2845010.48543  24093314.6564   24093319.4144
      1474.0474       1148.6084
 98  7  7 16  6 15.0000000  0  8G24G 4G 5G30G10G 8G 9G 6
   2988001.50946   2345462.33946  20758099.2664   20758102.3594
     -2086.0474      -1625.4914
  10991038.73746   8555668.44045  23060856.4614   23060860.4344
     -3888.1874      -3029.7564
  -2461267.59447  -1912596.16046  20499133.4694   20499135.4384
      -420.6724       -327.7964
  -8452890.90646  -6454068.65546  21840448.6254   21840450.4184
      1634.3754       1273.5394
  -7453306.20645  -5648125.67445  23126654.1884   23126659.6954
      2027.9384       1580.2114
   3755399.14346   2926282.51646  21958156.3984   21958160.1024
     -2481.4844      -1933.6244
  10906907.32045   8494478.38545  23379891.5474   23379896.1054
     -3833.0474      -2986.7904
  -3819695.25144  -2862220.52743  24089112.6174   24089117.3284
      1470.7814       1146.0634
 98  7  7 16  6 30.0000000  0  8G24G 4G 5G30G10G 8G 9G 6
   3019366.17146   2369902.33146  20764067.6254   20764070.5084
     -2095.8754      -1633.1494
  11049406.94046   8601150.13145  23071963.9454   23071967.3094
     -3894.2194      -3034.4564
  -2454878.54947  -1907617.68546  20500349.0164   20500351.2194
      -431.1874       -335.9904
  -8477347.31346  -6473125.58346  21835794.6334   21835796.9304
      1626.5474       1267.4394
  -7483672.80645  -5671787.94445  23120875.8524   23120881.7114
      2021.0474       1574.8424
   3792705.98246   2955352.76046  21965255.5554   21965258.7424
     -2492.7504      -1942.4034
  10964451.17645   8539317.70845  23390841.6884   23390845.6954
     -3839.3594      -2991.7094
  -3841732.23944  -2879392.17643  24084918.7504   24084921.5394
      1467.5164       1143.5194
 98  7  7 16  6 45.0000000  0  8G24G 4G 5G30G10G 8G 9G 6
   3050879.48246   2394458.15146  20770064.4694   20770067.8204
     -2105.8594      -1640.9294
  11107866.46846   8646702.97245  23083088.6484   23083092.1884
     -3900.3594      -3039.2414
  -2448330.62647  -1902515.41446  20501595.1724   20501597.3984
      -441.7974       -344.2574
  -8501686.75846  -6492091.37046  21831162.8444   21831165.1174
      1618.7664       1261.3764
  -7513936.99945  -5695370.39745  23115116.6174   23115121.0704
      2014.1884       1569.4974
   3830183.80446   2984556.23346  21972387.2504   21972389.9574
     -2504.2664      -1951.3764
  11022088.01845   8584229.49145  23401809.9144   23401814.3204
     -3845.4374      -2996.4454
  -3863719.40944  -2896524.96444  24080734.8364   24080738.8444
      1464.1254       1140.8774
 98  7  7 16  7  0.0000000  0  8G24G 4G 5G30G10G 8G 9G 6
   3082541.37746   2419129.74846  20776089.3364   20776092.9224
     -2115.7974      -1648.6734
  11166417.96646   8692327.49845  23094230.4774   23094233.6764
     -3906.5474      -3044.0624
  -2441626.22047  -1897291.20246  20502871.3054   20502873.4734
      -452.1874       -352.3544
  -8525911.12946  -6510967.49246  21826553.1564   21826554.9964
      1611.1254       1255.4224
  -7544096.34345  -5718871.16745  23109377.5164   23109382.3914
      2006.9534       1563.8604
   3867834.10746   3013894.10746  21979552.2274   21979555.1684
     -2515.8124      -1960.3734
  11079812.05845   8629209.24245  23412794.0634   23412797.8014
     -3851.1724      -3000.9134
  -3885653.80344  -2913616.69143  24076560.2584   24076565.5314
      1460.3754       1137.9554
 98  7  7 16  7 15.0000000  0  8G24G 4G 5G30G10G 8G 9G 6
   3114348.96646   2443914.87546  20782142.2504   20782145.7074
     -2125.3444      -1656.1124
  11225059.57046   8738022.22245  23105389.4924   23105392.5744
     -3912.3754      -3048.6044
  -2434767.22547  -1891946.53446  20504176.4694   20504178.3554
      -462.4534       -360.3534
  -8550023.83746  -6529756.60646  21821964.4384   21821966.1484
      1603.8594       1249.7614
  -7574147.41645  -5742287.56945  23103658.9844   23103664.3284
      1999.7974       1558.2834
   3905655.11746   3043365.00646  21986749.1644   21986752.3524
     -2527.0944      -1969.1644
  11137619.40345   8674253.90145  23423794.6954   23423797.7664
     -3856.4844      -3005.0534
  -3907533.26444  -2930665.56643  24072396.8594   24072402.0514
      1456.7664       1135.1424
 98  7  7 16  7 30.0010000  0  8G24G 4G 5G30G10G 8G 9G 6
   3146304.34346   2468815.16346  20788222.8724   20788226.1534
     -2135.0314      -1663.6614
  11283792.95046   8783788.45645  23116566.3104   23116569.5444
     -3918.2194      -3053.1574
  -2427751.83947  -1886480.00246  20505511.3254   20505512.9894
      -472.8284       -368.4374
  -8574027.60146  -6548460.82546  21817396.7084   21817398.2204
      1596.4384       1243.9774
  -7604092.65045  -5765621.50045  23097961.0364   23097966.1344
      1992.6564       1552.7194
   3943649.47546   3072970.98746  21993979.0604   21993982.3764
     -2538.4534      -1978.0154
  11195508.30645   8719362.08245  23434810.7394   23434814.7244
     -3861.5004      -3008.9614
  -3929356.96444  -2947671.03543  24068244.0674   24068248.9544
      1452.8444       1132.0864
 98  7  7 16  7 45.0010000  0  8G24G 4G 5G30G10G 8G 9G 6
   3178401.25846   2493825.74446  20794331.0914   20794334.2784
     -2144.6254      -1671.1364
  11342612.31346   8829621.71745  23127759.1854   23127762.9234
     -3924.3914      -3057.9674
  -2420581.02347  -1880892.35646  20506875.9114   20506877.6924
      -483.3444       -376.6314
  -8597919.31246  -6567077.73646  21812850.4424   21812852.3064
      1589.1254       1238.2794
  -7633928.34245  -5788870.06045  23092283.0914   23092288.3294
      1985.4224       1547.0824
   3981811.16646   3102707.35546  22001241.0604   22001244.2004
     -2549.7504      -1986.8184
  11253468.29945   8764525.68945  23445839.9504   23445843.8174
     -3866.4374      -3012.8084
  -3951120.31344  -2964629.44943  24064101.6854   24064106.6654
      1449.0164       1129.1034
 98  7  7 16  8  0.0010000  0  8G24G 4G 5G30G10G 8G 9G 6
   3210644.21246   2518950.12046  20800467.0914   20800470.2784
     -2154.4224      -1678.7704
  11401525.06946   8875527.71845  23138969.5604   23138971.6924
     -3930.6254      -3062.8254
  -2413249.34947  -1875179.36846  20508271.2394   20508273.3604
      -494.2974       -385.1664
  -8621699.68246  -6585607.87346  21808325.1774   21808326.9934
      1581.5474       1232.3744
  -7663654.05045  -5812032.93745  23086626.6464   23086631.1344
      1978.0634       1541.3474
   4020142.56846   3132575.95446  22008535.4894   22008538.6654
     -2561.1094      -1995.6704
  11311500.12845   8809745.26545  23456883.0214   23456886.8174
     -3871.0944      -3016.4374
  -3972826.77044  -2981543.54043  24059972.0444   24059976.7434
      1445.1884       1126.1204
 98  7  7 16  8 15.0010000  0  8G24G 4G 5G30G10G 8G 9G 6
   3243033.12746   2544188.22046  20806629.8494   20806632.9194
     -2164.1724      -1686.3684
  11460528.94646   8921504.73045  23150197.7784   23150201.5754
     -3936.5784      -3067.4634
  -2405752.33147  -1869337.53746  20509697.5994   20509699.8024
      -505.3124       -393.7504
  -8645366.02746  -6604049.17746  21803821.7554   21803823.5484
      1573.9224       1226.4334
  -7693271.64345  -5835111.56245  23080990.1304   23080994.7594
      1970.9224       1535.7834
   4058646.38146   3162578.90446  22015862.5284   22015865.5754
     -2572.7664      -2004.7524
  11369599.66645   8855017.59445  23467938.3174   23467942.1734
     -3875.5474      -3019.9074
  -3994476.87544  -2998413.72443  24055851.5214   24055854.7674
      1441.4224       1123.1864
 98  7  7 16  8 30.0010000  0  8G24G 4G 5G30G10G 8G 9G 6
   3275568.48146   2569540.44346  20812821.2944   20812824.6924
     -2173.9224      -1693.9654
  11519620.50146   8967550.07145  23161442.9194   23161446.0134
     -3942.2814      -3071.9074
  -2398092.42347  -1863368.77846  20511155.2554   20511157.2124
      -516.0314       -402.1024
  -8668917.70546  -6622401.12646  21799339.8724   21799341.6884
      1566.2664       1220.4674
  -7722783.12245  -5858107.49745  23075374.3564   23075378.6344
      1963.8754       1530.2924
   4097323.59746   3192716.97646  22023222.3964   22023225.5604
     -2584.1564      -2013.6284
  11427765.31245   8900341.42245  23479007.5134   23479011.6614
     -3879.9224      -3023.3164
  -4016070.29844  -3015239.72743  24051742.7714   24051746.5094
      1437.6884       1120.2764
 98  7  7 16  8 45.0010000  0  8G24G 4G 5G30G10G 8G 9G 6
   3308251.10446   2595007.41846  20819040.6464   20819043.8104
     -2183.8124      -1701.6724
  11578797.81446   9013662.22545  23172703.5994   23172707.5484
     -3948.0164      -3076.3764
  -2390270.90347  -1857274.09546  20512643.7244   20512645.7514
      -526.8594       -410.5404
  -8692353.65946  -6640662.89546  21794880.2474   21794882.0404
      1558.5474       1214.4524
  -7752187.48945  -5881019.98145  23069778.8724   23069785.0604
      1956.7504       1524.7404
   4136169.76946   3222986.68946  22030614.9194   22030618.1064
     -2595.2664      -2022.2854
  11485996.44445   8945716.29345  23490088.9814   23490092.9194
     -3884.2034      -3026.6524
  -4037607.31344  -3032021.77443  24047644.8024   24047648.9974
      1433.9844       1117.3904
 98  7  7 16  9  0.0010000  0  8G24G 4G 5G30G10G 8G 9G 6
   3341080.77046   2620588.96346  20825288.3494   20825291.4424
     -2193.5004      -1709.2214
  11638059.77146   9059840.35045  23183980.9664   23183984.0134
     -3953.6724      -3080.7834
  -2382287.08547  -1851052.93946  20514163.1774   20514165.1924
      -537.7344       -419.0144
  -8715673.33046  -6658834.05946  21790442.5754   21790444.6034
      1550.5944       1208.2554
  -7781485.96645  -5903849.91945  23064204.0134   23064209.6144
      1949.6254       1519.1884
   4175180.53146   3253384.67046  22038038.2244   22038041.0834
     -2606.2194      -2030.8204
  11544291.65845   8991141.12045  23501182.1534   23501186.1384
     -3888.5944      -3030.0734
  -4059089.70244  -3048761.26343  24043556.7394   24043559.9034
      1430.2504       1114.4814
 98  7  7 16  9 15.0010000  0  8G24G 4G 5G30G10G 8G 9G 6
   3374053.67446   2646282.13046  20831562.1924   20831565.1224
     -2202.8914      -1716.5384
  11697406.33746   9106084.38045  23195274.6144   23195278.5054
     -3959.1564      -3085.0574
  -2374139.71847  -1844704.34446  20515713.4664   20515715.3644
      -548.5944       -427.4764
  -8738871.34446  -6676910.42746  21786028.3494   21786030.1534
      1542.5004       1201.9484
  -7810678.67945  -5926597.49245  23058648.3884   23058654.0364
      1942.8284       1513.8924
   4214353.37046   3283908.93346  22045492.5604   22045495.4424
     -2616.8284      -2039.0874
  11602653.94445   9036618.17345  23512288.0834   23512292.7004
     -3893.0784      -3033.5674
  -4080516.41744  -3065457.38944  24039478.7084   24039482.0134
      1426.7664       1111.7654
 98  7  7 16  9 30.0010000  0  8G24G 4G 5G30G10G 8G 9G 6
   3407169.44746   2672086.62746  20837864.1854   20837867.1734
     -2212.4844      -1724.0144
  11756836.20646   9152393.32245  23206583.7554   23206587.0364
     -3964.7664      -3089.4284
  -2365826.69547  -1838226.66846  20517295.2314   20517296.9544
      -559.7194       -436.1444
  -8761945.87346  -6694890.57146  21781637.1064   21781638.8414
      1534.1564       1195.4464
  -7839771.00545  -5949266.80345  23053112.4504   23053118.2164
      1936.2344       1508.7544
   4253686.94546   3314558.45446  22052977.7864   22052980.3644
     -2627.6414      -2047.5124
  11661085.83045   9082149.48145  23523407.3174   23523411.1854
     -3897.8124      -3037.2564
  -4101892.23444  -3082113.84543  24035411.4424   24035416.8564
      1423.3754       1109.1234
 98  7  7 16  9 45.0010000  0  8G24G 4G 5G30G10G 8G 9G 6
   3440427.38046   2698001.88546  20844192.9354   20844196.2394
     -2221.8754      -1731.3314
  11816349.48246   9198767.30545  23217908.6694   23217911.6694
     -3970.3284      -3093.7624
  -2357349.02747  -1831620.69846  20518908.3024   20518909.9194
      -570.5944       -444.6194
  -8784896.46746  -6712774.13846  21777269.9664   21777271.7244
      1525.9384       1189.0424
  -7868765.74945  -5971860.09645  23047594.6614   23047599.5834
      1929.7344       1503.6894
   4293181.79646   3345333.64746  22060493.1224   22060496.1814
     -2638.3594      -2055.8644
  11719588.15345   9127735.67545  23534540.1774   23534543.5054
     -3902.5314      -3040.9334
  -4123218.73144  -3098731.86243  24031353.2244   24031357.2904
      1420.2034       1106.6524
 98  7  7 16 10  0.0010000  0  8G24G 4G 5G30G10G 8G 9G 6
   3473825.38446   2724026.29646  20850548.5834   20850551.5714
     -2231.1724      -1738.5754
  11875945.10746   9245205.43745  23229249.5914   23229252.6854
     -3975.7194      -3097.9634
  -2348708.34847  -1824887.70346  20520552.6774   20520554.4934
      -581.4844       -453.1054
  -8807723.72946  -6730561.60646  21772925.9744   21772927.9074
      1517.6564       1182.5894
  -7897663.03445  -5994377.44545  23042096.0834   23042101.7314
      1923.2974       1498.6734
   4332837.58546   3376234.24546  22068039.5364   22068042.1034
     -2649.0944      -2064.2294
  11778161.31145   9173377.06545  23545686.3564   23545689.5674
     -3907.2034      -3044.5744
  -4144497.24344  -3115312.48144  24027303.9974   24027308.9194
      1416.8914       1104.0714
 98  7  7 16 10 15.0010000  0  8G24G 4G 5G30G10G 8G 9G 6
   3507361.53246   2750158.35146  20856930.1774   20856933.0834
     -2240.2814      -1745.6744
  11935619.25746   9291704.70545  23240605.4274   23240608.5324
     -3980.7974      -3101.9204
  -2339906.79147  -1818029.34846  20522227.7634   20522229.4854
      -591.9694       -461.2744
  -8830426.76046  -6748252.27146  21768605.4424   21768607.1304
      1509.4384       1176.1854
  -7926464.39245  -6016820.01845  23036615.5674   23036620.8994
      1916.8914       1493.6814
   4372653.91246   3407259.93146  22075616.1924   22075618.5134
     -2659.7504      -2072.5324
  11836803.97145   9219072.60545  23556844.3644   23556846.7084
     -3911.8444      -3048.1904
  -4165724.86944  -3131853.46043  24023263.8494   24023269.5914
      1413.4534       1101.3924
 98  7  7 16 10 30.0010000  0  8G24G 4G 5G30G10G 8G 9G 6
   3541032.89946   2776395.77846  20863337.6384   20863340.5674
     -2249.2194      -1752.6384
  11995369.36546   9338263.22145  23251975.2394   23251979.0014
     -3985.9224      -3105.9134
  -2330951.69347  -1811051.35346  20523931.7864   20523933.5794
      -602.0004       -469.0914
  -8853007.41546  -6765847.57646  21764308.8724   21764310.7474
      1501.3284       1169.8664
  -7955169.22045  -6039187.39845  23031152.9744   23031157.9894
      1910.4384       1488.6534
   4412629.03446   3438409.35546  22083223.1064   22083226.0244
     -2670.1724      -2080.6534
  11895517.72345   9264823.53945  23568018.2784   23568020.7514
     -3916.6254      -3051.9164
  -4186899.84944  -3148353.43543  24019235.4504   24019241.0174
      1409.9384       1098.6534
 98  7  7 16 10 45.0010000  0  8G24G 4G 5G30G10G 8G 9G 6
   3574836.95746   2802736.59646  20869770.2474   20869773.1884
     -2258.0164      -1759.4934
  12055196.96346   9384882.10345  23263359.9034   23263363.8414
     -3991.0784      -3109.9314
  -2321846.60147  -1803956.47946  20525664.3724   20525666.3414
      -612.0784       -476.9444
  -8875465.58346  -6783347.43946  21760035.2394   21760036.9624
      1493.0634       1163.4254
  -7983777.13845  -6061479.26445  23025708.8884   23025713.5634
      1903.9224       1483.5754
   4452757.88546   3469678.57346  22090859.5524   22090862.0134
     -2680.3754      -2088.6044
  11954302.15345   9310629.55345  23579204.5134   23579208.4154
     -3921.2814      -3055.5444
  -4208023.30444  -3164813.21644  24015215.5754   24015220.4504
      1406.5164       1095.9864
 98  7  7 16 11  0.0010000  0  8G24G 4G 5G30G10G 8G 9G 6
   3608771.19447   2829178.85246  20876227.8254   20876230.4974
     -2266.6094      -1766.1894
  12115100.40746   9431560.07045  23274759.0444   23274762.4194
     -3996.0944      -3113.8394
  -2312590.86847  -1796744.22046  20527425.5284   20527427.4154
      -622.0004       -484.6754
  -8897801.11446  -6800751.73446  21755785.0364   21755786.8644
      1485.0634       1157.1924
  -8012289.82845  -6083696.90045  23020282.9504   23020288.4234
      1897.7664       1478.7784
   4493040.12846   3501067.31746  22098524.8804   22098527.2824
     -2690.6254      -2096.5914
  12013153.50745   9356487.70645  23590403.0674   23590407.6964
     -3925.6254      -3058.9294
  -4229096.39744  -3181233.78244  24011205.4274   24011209.8334
      1403.2504       1093.4424
 98  7  7 16 11 15.0010000  0  8G24G 4G 5G30G10G 8G 9G 6
   3642836.01846   2855722.87146  20882710.2714   20882713.1184
     -2275.2974      -1772.9594
  12175080.79645   9478298.01945  23286172.8334   23286175.6464
     -4001.1724      -3117.7964
  -2303186.52447  -1789416.16846  20529215.1694   20529217.0794
      -631.7344       -492.2614
  -8920015.25446  -6818061.44246  21751557.5054   21751559.1924
      1476.9844       1150.8974
  -8040709.12246  -6105841.80445  23014874.7714   23014879.6224
      1891.5634       1473.9454
   4533478.36646   3532577.61046  22106220.3174   22106222.9424
     -2701.0004      -2104.6754
  12072073.67745   9402399.49945  23601615.4664   23601620.1064
     -3930.2034      -3062.4964
  -4250118.33244  -3197614.46944  24007205.1464   24007208.7784
      1399.8754       1090.8124
 98  7  7 16 11 30.0010000  0  8G24G 4G 5G30G10G 8G 9G 6
   3677032.12046   2882369.17946  20889217.4034   20889220.3564
     -2284.2194      -1779.9114
  12235135.29146   9525093.68045  23297601.2554   23297604.1494
     -4006.1414      -3121.6684
  -2293638.78147  -1781976.36746  20531032.3804   20531034.4194
      -641.3124       -499.7244
  -8942112.00846  -6835279.67946  21747352.7554   21747354.3964
      1469.2504       1144.8704
  -8069035.88345  -6127914.56045  23009484.1694   23009490.1814
      1885.2664       1469.0384
   4574070.71846   3564207.98846  22113944.6224   22113947.3644
     -2711.4224      -2112.7964
  12131060.32545   9448363.08345  23612840.8884   23612845.5524
     -3934.6724      -3065.9784
  -4271092.90344  -3213958.27644  24003213.4974   24003216.3684
      1396.7034       1088.3404
 98  7  7 16 11 45.0010000  0  8G24G 4G 5G30G10G 8G 9G 6
   3711362.85646   2909120.39646  20895750.3564   20895753.2284
     -2293.2344      -1786.9364
  12295265.55245   9571948.35745  23309043.3644   23309046.9274
     -4011.2974      -3125.6864
  -2283946.75547  -1774424.14646  20532876.6694   20532878.0754
      -651.0164       -507.2854
  -8964092.77146  -6852407.53446  21743170.0444   21743171.9194
      1461.4694       1138.8074
  -8097265.32445  -6149911.50245  23004112.2714   23004117.6264
      1878.5314       1463.7914
   4614821.96846   3595962.19946  22121699.4274   22121702.4744
     -2722.0624      -2121.0884
  12190113.66545   9494378.63645  23624078.9814   23624084.2554
     -3939.1414      -3069.4604
  -4292018.10444  -3230263.58044  23999231.6774   23999236.6104
      1393.2504       1085.6494
 98  7  7 16 12  0.0010000  0  8G24G 4G 5G30G10G 8G 9G 6
   3745825.68346   2935974.54146  20902308.5524   20902311.5874
     -2301.9064      -1793.6934
  12355469.30645   9618860.37945  23320499.5054   23320503.4424
     -4015.8754      -3129.2534
  -2274112.61947  -1766761.18246  20534747.9194   20534749.6654
      -660.2664       -514.4934
  -8985960.90846  -6869447.62246  21739008.5284   21739010.2514
      1454.2194       1133.1574
  -8125394.65845  -6171830.44845  22998759.9274   22998765.8564
      1871.9694       1458.6774
   4655728.04446   3627837.04646  22129483.7474   22129486.9814
     -2732.1254      -2128.9294
  12249230.37245   9540443.56145  23635328.0214   23635331.7004
     -3943.1874      -3072.6144
  -4312894.30744  -3246530.70344  23995258.5284   23995262.7244
      1390.1564       1083.2394
 98  7  7 16 12 15.0010000  0  8G24G 4G 5G30G10G 8G 9G 6
   3780420.19046   2962931.29546  20908891.2944   20908894.3994
     -2310.6724      -1800.5244
  12415740.66946   9665825.00945  23331969.2714   23331972.0364
     -4020.2504      -3132.6624
  -2264138.68947  -1758989.29046  20536645.9744   20536648.0714
      -669.5164       -521.7004
  -9007719.55846  -6886402.40646  21734868.0524   21734869.8564
      1447.0164       1127.5454
  -8153424.06045  -6193671.51945  22993425.8884   22993431.0094
      1865.3444       1453.5154
   4696785.25546   3659829.66346  22137296.7864   22137299.7044
     -2742.0314      -2136.6484
  12308408.52845   9586556.36745  23646589.3414   23646593.8994
     -3947.1414      -3075.6944
  -4333722.09244  -3262760.15443  23991295.4744   23991299.6574
      1387.0474       1080.8164
 98  7  7 16 12 30.0010000  0  8G24G 4G 5G30G10G 8G 9G 6
   3815149.51746   2989993.10446  20915500.3494   20915503.4664
     -2319.8124      -1807.6464
  12476079.46446   9712842.27845  23343451.0054   23343454.6264
     -4024.8284      -3136.2304
  -2254024.20247  -1751107.87446  20538570.6774   20538572.8924
      -679.0474       -529.1274
  -9029369.78346  -6903272.69346  21730747.6614   21730749.3964
      1439.7814       1121.9074
  -8181351.36845  -6215433.03145  22988111.5834   22988116.7514
      1858.4064       1448.1094
   4737992.65746   3691939.31046  22145137.9504   22145140.8334
     -2752.2034      -2144.5744
  12367648.65245   9632717.46545  23657862.3174   23657866.5134
     -3951.4224      -3079.0304
  -4354504.97444  -3278954.55744  23987340.4504   23987344.9384
      1384.1724       1078.5754
 98  7  7 16 12 45.0010000  0  8G24G 4G 5G30G10G 8G 9G 6
   3850014.37546   3017160.51746  20922134.6774   20922138.0994
     -2328.9224      -1814.7444
  12536484.97246   9759911.45845  23354945.8644   23354948.3374
     -4029.2664      -3139.6874
  -2243765.49747  -1743114.07946  20540522.8494   20540525.0284
      -688.9224       -536.8224
  -9050913.40246  -6920059.92046  21726648.5134   21726650.5054
      1432.6414       1116.3434
  -8209177.76145  -6237115.90245  22982816.3104   22982821.3134
      1851.7034       1442.8864
   4779350.26946   3724166.00246  22153008.4504   22153011.1344
     -2762.2194      -2152.3784
  12426951.26145   9678927.25045  23669147.5444   23669151.5994
     -3955.5944      -3082.2814
  -4375248.85044  -3295118.60544  23983392.9744   23983396.0674
      1381.6414       1076.6034
 98  7  7 16 13  0.0010000  0  8G24G 4G 5G30G10G 8G 9G 6
   3885017.60946   3044435.75546  20928795.7004   20928799.0054
     -2338.1564      -1821.9404
  12596954.42646   9807030.49145  23366453.0444   23366456.7594
     -4033.3284      -3142.8534
  -2233356.62147  -1735003.26546  20542503.4894   20542505.3764
      -698.9064       -544.6024
  -9072350.15846  -6936763.87346  21722569.2394   21722570.8454
      1425.6724       1110.9134
  -8236902.02145  -6258719.18645  22977540.6534   22977545.5054
      1844.8594       1437.5534
   4820858.53946   3756510.07846  22160906.8254   22160909.3104
     -2772.2664      -2160.2074
  12486315.88445   9725185.36545  23680444.4274   23680448.8924
     -3959.7034      -3085.4834
  -4395953.83045  -3311252.31544  23979453.7634   23979458.0994
      1378.9844       1074.5334
 98  7  7 16 13 15.0010000  0  8G24G 4G 5G30G10G 8G 9G 6
   3920159.72546   3071819.21846  20935483.0524   20935485.9464
     -2347.4224      -1829.1604
  12657485.89346   9854197.84545  23377971.3494   23377973.9384
     -4037.4694      -3146.0804
  -2222798.36447  -1726776.05246  20544512.7244   20544514.5994
      -708.8444       -552.3464
  -9093684.85046  -6953388.29946  21718509.6304   21718511.2714
      1418.9694       1105.6904
  -8264522.72045  -6280241.78045  22972284.3414   22972289.1464
      1837.8754       1432.1104
   4862518.32946   3788972.23646  22168834.4584   22168837.4234
     -2782.3284      -2168.0484
  12545743.76345   9771492.75845  23691753.0284   23691757.8924
     -3964.0474      -3088.8684
  -4416618.46145  -3327354.57544  23975520.4974   23975523.1574
      1376.3914       1072.5124
 98  7  7 16 13 30.0010000  0  8G24G 4G 5G30G10G 8G 9G 6
   3955440.92147   3099311.06346  20942197.0054   20942199.8174
     -2356.6564      -1836.3564
  12718077.87246   9901412.33445  23389502.2314   23389505.9704
     -4041.4224      -3149.1604
  -2212089.84347  -1718431.75546  20546550.3804   20546552.0794
      -718.9694       -560.2354
  -9114917.23346  -6969933.00046  21714468.8494   21714470.3844
      1412.1094       1100.3454
  -8292036.70545  -6301681.23545  22967048.4814   22967054.3764
      1830.7194       1426.5344
   4904328.90046   3821551.87946  22176790.8564   22176794.1264
     -2792.3594      -2175.8644
  12605238.43245   9817852.22645  23703073.9974   23703079.2824
     -3968.4844      -3092.3254
  -4437242.82445  -3343425.47044  23971595.9584   23971597.7984
      1373.6254       1070.3574
 98  7  7 16 13 45.0010000  0  8G24G 4G 5G30G10G 8G 9G 6
   3990859.57046   3126910.00046  20948936.8644   20948939.9704
     -2365.7344      -1843.4294
  12778730.08646   9948673.78045  23401043.9894   23401047.2824
     -4045.5164      -3152.3504
  -2201227.31147  -1709967.44946  20548617.6224   20548619.3564
      -729.3754       -568.3444
  -9136048.50746  -6986398.92146  21710447.8174   21710449.5054
      1405.3914       1095.1104
  -8319443.24945  -6323036.93545  22961833.6774   22961839.6654
      1823.5314       1420.9334
   4946290.32646   3854249.08746  22184775.7634   22184779.1144
     -2802.4534      -2183.7304
  12664798.55245   9864262.66245  23714408.0524   23714412.7984
     -3972.8594      -3095.7354
  -4457825.63045  -3359463.99144  23967679.1854   23967684.0714
      1370.7974       1068.1534
 98  7  7 16 14  0.0010000  0  8G24G 4G 5G30G10G 8G 9G 6
   4026412.32446   3154613.43846  20955702.2864   20955705.4274
     -2374.6414      -1850.3694
  12839444.00345   9995983.31945  23412596.9974   23412600.5244
     -4049.6874      -3155.6014
  -2190208.79347  -1701381.59646  20550714.3964   20550715.9424
      -739.7504       -576.4294
  -9157079.19746  -7002786.45646  21706445.8104   21706447.1814
      1398.6724       1089.8744
  -8346743.01145  -6344309.45745  22956638.3414   22956643.9194
      1816.4224       1415.3944
   4988400.28546   3887062.01846  22192788.9194   22192791.5564
     -2812.2034      -2191.3274
  12724424.36745   9910724.30345  23725754.2474   23725758.8064
     -3977.2974      -3099.1924
  -4478366.91545  -3375470.16044  23963770.2244   23963774.0914
      1368.0634       1066.0234
 98  7  7 16 14 15.0010000  0  8G24G 4G 5G30G10G 8G 9G 6
   4062099.93246   3182421.95646  20962493.6224   20962496.7164
     -2383.6564      -1857.3944
  12900222.03246  10043342.75645  23424162.8494   23424166.2944
     -4054.0784      -3159.0224
  -2179033.94147  -1692673.92046  20552840.8564   20552842.5914
      -750.2344       -584.5984
  -9178007.21846  -7019093.99646  21702463.1614   21702464.9544
      1391.7194       1084.4564
  -8373935.64946  -6365498.48345  22951463.5994   22951469.0134
      1809.2814       1409.8304
   5030659.13246   3919990.96046  22200830.4584   22200833.1184
     -2822.3124      -2199.2054
  12784118.07945   9957238.85045  23737113.0214   23737116.0094
     -3981.8594      -3102.7484
  -4498866.30845  -3391443.68344  23959869.4194   23959872.6424
      1365.2034       1063.7954
 98  7  7 16 14 30.0010000  0  8G24G 4G 5G30G10G 8G 9G 6
   4097920.30646   3210333.93246  20969309.5364   20969312.3134
     -2392.5164      -1864.2984
  12961067.26545  10090754.59845  23435741.3494   23435745.5564
     -4058.8124      -3162.7114
  -2167701.85647  -1683843.73046  20554997.3334   20554998.8684
      -760.8914       -592.9024
  -9198830.49446  -7035319.91246  21698500.5284   21698502.1814
      1384.5784       1078.8924
  -8401023.45546  -6386605.85245  22946309.0524   22946314.1034
      1802.3134       1404.3994
   5073067.42046   3953036.36946  22208900.6774   22208903.6774
     -2832.2974      -2206.9854
  12843878.14945  10003805.09845  23748485.7084   23748489.7744
     -3986.2974      -3106.2054
  -4519324.78445  -3407385.34044  23955976.1064   23955979.3414
      1362.5474       1061.7254
 98  7  7 16 14 45.0010000  0  8G24G 4G 5G30G10G 8G 9G 6
   4133872.76346   3238348.82546  20976151.3334   20976154.0994
     -2401.2814      -1871.1284
  13021984.75645  10138222.73045  23447333.2474   23447336.8804
     -4063.6724      -3166.4984
  -2156208.98547  -1674888.24846  20557184.1304   20557185.9354
      -771.6414       -601.2784
  -9219545.78046  -7051461.68146  21694558.7944   21694560.5874
      1377.2664       1073.1944
  -8428007.15045  -6407632.08345  22941174.2004   22941179.5564
      1795.3444       1398.9694
   5115627.85346   3986200.31646  22216999.6064   22217002.8644
     -2842.5314      -2214.9594
  12903704.56145  10050423.06245  23759870.2634   23759873.8254
     -3990.6874      -3109.6274
  -4539743.35445  -3423295.86744  23952091.3174   23952094.6104
      1359.7664       1059.5584
 98  7  7 16 15  0.0010000  0  8G24G 4G 5G30G10G 8G 9G 6
   4169956.62846   3266466.11846  20983017.7784   20983020.7434
     -2409.8914      -1877.8374
  13082975.69045  10185748.07545  23458939.7314   23458943.6464
     -4068.5004      -3170.2604
  -2144553.98347  -1665806.43546  20559402.1614   20559403.7314
      -782.3594       -609.6314
  -9240148.64246  -7067515.84546  21690638.0674   21690639.8844
      1369.7194       1067.3134
  -8454885.72145  -6428576.38545  22936059.4034   22936065.1924
      1788.4064       1393.5634
   5158339.88746   4019482.40646  22225127.3644   22225130.9854
     -2852.4534      -2222.6914
  12963597.22445  10097092.63845  23771267.5604   23771272.0014
     -3994.9844      -3112.9754
  -4560117.90245  -3439172.09044  23948213.4114   23948218.3684
      1356.8134       1057.2564
 98  7  7 16 15 15.0010000  0  8G24G 4G 5G30G10G 8G 9G 6
   4206168.95746   3294683.50746  20989909.1924   20989912.5444
     -2418.3444      -1884.4244
  13144042.10945  10233332.29245  23470560.4424   23470564.4744
     -4073.7504      -3174.3514
  -2132738.48447  -1656599.54846  20561650.6464   20561652.4274
      -793.0784       -617.9834
  -9260636.46846  -7083480.37146  21686739.3334   21686741.3494
      1361.9534       1061.2624
  -8481658.28045  -6449438.10345  22930964.6694   22930970.0834
      1781.2814       1388.0114
   5201204.06646   4052883.05146  22233284.4194   22233287.9814
     -2862.7194      -2230.6904
  13023555.22745  10143813.11145  23782676.8964   23782680.7984
     -3999.4224      -3116.4334
  -4580446.61045  -3455012.61345  23944345.9974   23944348.8214
      1353.7664       1054.8824
 98  7  7 16 15 30.0010000  0  8G24G 4G 5G30G10G 8G 9G 6
   4242505.46346   3322997.65646  20996823.3564   20996826.6614
     -2426.5624      -1890.8284
  13205187.33945  10280977.91245  23482195.9194   23482199.2824
     -4078.9694      -3178.4174
  -2120762.95447  -1647267.96746  20563929.3494   20563931.1774
      -803.7194       -626.2744
  -9281006.72346  -7099353.28546  21682862.9974   21682865.2824
      1353.9844       1055.0534
  -8508326.01745  -6470218.13645  22925890.1924   22925896.1694
      1774.3754       1382.6304
   5244221.15846   4086402.84246  22241469.9584   22241473.3684
     -2872.8914      -2238.6164
  13083577.40845  10190583.61845  23794098.8644   23794103.5284
     -4003.5944      -3119.6834
  -4600733.19145  -3470820.31245  23940484.7164   23940487.7744
      1351.0784       1052.7884
 98  7  7 16 15 45.0010000  0  8G24G 4G 5G30G10G 8G 9G 6
   4278966.29646   3351408.68946  21003761.7314   21003765.0714
     -2434.7664      -1897.2204
  13266412.42745  10328685.72645  23493846.2944   23493849.5634
     -4084.3754      -3182.6304
  -2108626.66647  -1637811.12546  20566238.9424   20566240.7594
      -814.3754       -634.5784
  -9301254.74746  -7115130.94946  21679010.0134   21679012.4384
      1345.8284       1048.6974
  -8534890.27846  -6490917.53345  22920835.0444   22920840.5404
      1767.6094       1377.3584
   5287389.36746   4120040.38346  22249684.6224   22249687.6574
     -2882.7664      -2246.3114
  13143660.90745  10237401.88945  23805532.6464   23805536.6534
     -4007.4374      -3122.6794
  -4620978.13745  -3486595.65345  23936632.6614   23936638.0404
      1348.3444       1050.6574
 98  7  7 16 16  0.0010000  0  8G24G 4G 5G30G10G 8G 9G 6
   4315548.67346   3379914.43246  21010723.0674   21010725.9624
     -2442.8914      -1903.5514
  13327719.19545  10376457.20845  23505513.2084   23505517.4744
     -4089.7974      -3186.8554
  -2096331.01647  -1628230.10346  20568578.6224   20568580.3924
      -824.9844       -642.8454
  -9321379.14446  -7130812.28346  21675180.2944   21675182.3214
      1337.3594       1042.0984
  -8561353.47346  -6511538.17545  22915799.3334   22915805.1694
      1760.7974       1372.0504
   5330704.83746   4153792.66746  22257927.4274   22257930.3334
     -2892.6094      -2253.9814
  13203801.05845  10284264.30445  23816977.0284   23816981.0484
     -4011.2344      -3125.6374
  -4641183.31444  -3502339.84144  23932787.1854   23932791.9664
      1345.6884       1048.5884
 98  7  7 16 16 15.0010000  0  8G24G 4G 5G30G10G 8G 9G 6
   4352252.03546   3408514.44846  21017707.5524   21017710.3294
     -2450.8594      -1909.7614
  13389104.42545  10424289.81545  23517193.8414   23517197.9784
     -4094.8284      -3190.7754
  -2083877.89747  -1618526.37046  20570948.5754   20570950.3334
      -835.4224       -650.9784
  -9341375.91646  -7146394.17246  21671375.1614   21671377.0244
      1328.8444       1035.4634
  -8587714.86046  -6532079.49745  22910782.4814   22910787.9784
      1754.0634       1366.8024
   5374167.14646   4187659.38246  22266198.3564   22266201.3924
     -2902.3754      -2261.5914
  13263996.37745  10331169.72445  23828431.4744   23828436.0794
     -4014.7664      -3128.3894
  -4661349.00645  -3518053.35044  23928949.2164   23928954.2204
      1343.1254       1046.5914
 98  7  7 16 16 30.0010000  0  8G24G 4G 5G30G10G 8G 9G 6
   4389076.40446   3437208.76146  21024715.0674   21024717.6224
     -2459.0004      -1916.1044
  13450564.40546  10472180.65245  23528890.1304   23528893.6224
     -4099.7504      -3194.6104
  -2071266.82247  -1608699.56246  20573348.4664   20573350.3294
      -846.0474       -659.2574
  -9361243.19046  -7161875.15246  21667594.4114   21667596.4154
      1320.1564       1028.6934
  -8613973.44146  -6552540.67945  22905786.1614   22905791.8214
      1747.0944       1361.3724
   5417776.68946   4221640.82246  22274496.5444   22274499.3804
     -2912.1094      -2269.1764
  13324244.32445  10378116.15045  23839896.7394   23839902.0714
     -4018.2504      -3131.1044
  -4681475.03245  -3533735.95244  23925119.7244   23925123.9314
      1340.3914       1044.4604
 98  7  7 16 16 45.0010000  0  8G24G 4G 5G30G10G 8G 9G 6
   4426021.56646   3465997.19646  21031745.1384   21031748.0214
     -2467.0944      -1922.4114
  13512094.28245  10520126.00945  23540598.4424   23540602.9074
     -4104.2194      -3198.0934
  -2058497.91347  -1598749.77046  20575778.1384   20575779.6384
      -856.4694       -667.3784
  -9380981.09846  -7177255.32446  21663838.6304   21663840.3174
      1311.5474       1021.9854
  -8640128.35446  -6572921.11845  22900808.7474   22900814.7714
      1740.2034       1356.0024
   5461528.66746   4255733.25346  22282822.7944   22282825.7244
     -2921.5624      -2276.5424
  13384542.54145  10425101.73145  23851370.8024   23851375.9814
     -4021.5624      -3133.6854
  -4701562.32545  -3549388.33744  23921297.5834   23921301.7674
      1337.8914       1042.5124
 98  7  7 16 17  0.0010000  0  8G24G 4G 5G30G10G 8G 9G 6
   4463088.71746   3494880.67946  21038798.9034   21038802.3254
     -2475.1724      -1928.7054
  13573689.90745  10568122.51645  23552320.1144   23552324.2394
     -4108.4844      -3201.4164
  -2045574.27147  -1588679.40146  20578237.5134   20578239.1534
      -866.6414       -675.3044
  -9400589.61647  -7192534.67346  21660107.0604   21660108.5134
      1302.9064       1015.2524
  -8666179.17245  -6593220.43745  22895851.6464   22895856.4854
      1733.2194       1350.5604
   5505422.63646   4289936.32746  22291175.2714   22291178.6694
     -2930.9064      -2283.8234
  13444891.24045  10472126.65145  23862854.8414   23862859.5754
     -4024.9064      -3136.2914
  -4721609.98945  -3565009.87344  23917482.5444   23917487.7354
      1335.1414       1040.3694
 98  7  7 16 17 15.0010000  0  8G24G 4G 5G30G10G 8G 9G 6
   4500275.39446   3523857.30246  21045875.4584   21045879.0564
     -2483.1094      -1934.8904
  13635347.35345  10616167.28645  23564053.2004   23564056.6694
     -4112.6254      -3204.6434
  -2032500.74447  -1578492.23846  20580725.2864   20580727.3254
      -876.5164       -682.9994
  -9420070.47047  -7207714.54846  21656400.0054   21656401.3534
      1294.5314       1008.7264
  -8692126.60046  -6613439.19145  22890913.9034   22890918.5094
      1726.3134       1345.1794
   5549453.87746   4324246.35946  22299554.2164   22299557.4384
     -2940.0624      -2290.9584
  13505288.11045  10519189.12145  23874348.1064   23874352.3374
     -4028.1094      -3138.7874
  -4741617.96745  -3580600.48644  23913675.0444   23913679.3924
      1332.4694       1038.2874
 98  7  7 16 17 30.0010000  0  8G24G 4G 5G30G10G 8G 9G 6
   4537582.12746   3552927.46746  21052974.7714   21052977.9464
     -2491.2504      -1941.2344
  13697067.53046  10664260.88045  23575798.3174   23575801.8104
     -4116.7664      -3207.8694
  -2019280.40447  -1568190.68346  20583241.0364   20583243.1694
      -886.2344       -690.5724
  -9439427.05847  -7222797.59146  21652716.6224   21652717.9704
      1286.3134       1002.3214
  -8717969.04246  -6633576.11945  22885996.7474   22886001.2944
      1719.3284       1339.7364
   5593623.36046   4358664.12046  22307959.2084   22307962.5134
     -2949.1874      -2298.0684
  13565733.88145  10566289.68345  23885850.9814   23885855.8684
     -4031.3594      -3141.3194
  -4761585.17545  -3596159.32144  23909875.1224   23909879.2004
      1329.7344       1036.1574
 98  7  7 16 17 45.0010000  0  8G24G 4G 5G30G10G 8G 9G 6
   4575012.40446   3582093.91146  21060097.4664   21060100.7354
     -2499.5164      -1947.6754
  13758847.67045  10712401.21845  23587554.3724   23587557.8884
     -4120.6094      -3210.8644
  -2005916.08447  -1557776.92446  20585784.0134   20585786.1694
      -895.7194       -697.9634
  -9458661.69747  -7237785.61446  21649056.5834   21649057.7084
      1278.2504        996.0394
  -8743708.30746  -6653632.66245  22881098.3564   22881102.7394
      1712.5314       1334.4404
   5637927.54346   4393186.83646  22316390.0834   22316393.7744
     -2957.9694      -2304.9114
  13626227.85145  10613427.81445  23897361.9034   23897365.9704
     -4034.5164      -3143.7784
  -4781509.38145  -3611684.64445  23906083.7944   23906087.5564
      1326.7664       1033.8434
 98  7  7 16 18  0.0010000  0  8G24G 4G 5G30G10G 8G 9G 6
   4612567.86046   3611357.89446  21067243.9354   21067246.9584
     -2507.7814      -1954.1154
  13820685.16246  10760586.19445  23599321.7944   23599325.3104
     -4124.3284      -3213.7624
  -1992408.77347  -1547251.74246  20588354.2784   20588356.2594
      -905.2194       -705.3654
  -9477774.70747  -7252678.85646  21645419.2394   21645420.3764
      1270.1884        989.7564
  -8769344.35246  -6673608.77445  22876219.8964   22876224.8414
      1705.6414       1329.0714
   5682364.05846   4427812.67246  22324846.0054   22324849.2984
     -2966.9224      -2311.8874
  13686770.37745  10660603.77745  23908882.9664   23908888.7084
     -4037.8124      -3146.3474
  -4801387.16145  -3627173.80444  23902300.8644   23902305.1534
      1323.6564       1031.4204
 98  7  7 16 18 15.0010000  0  8G24G 4G 5G30G10G 8G 9G 6
   4650246.20746   3640717.63946  21074414.3104   21074417.4384
     -2516.0164      -1960.5324
  13882575.17645  10808812.18645  23611098.9274   23611102.9584
     -4127.7194      -3216.4044
  -1978759.57847  -1536616.01546  20590951.8414   20590953.8684
      -914.6564       -712.7194
  -9496767.18747  -7267478.17646  21641805.1694   21641806.8334
      1262.1884        983.5234
  -8794877.29446  -6693504.54145  22871361.3174   22871367.3174
      1698.7194       1323.6774
   5726935.43146   4462543.58546  22333327.7004   22333330.7594
     -2975.9534      -2318.9254
  13747363.00245  10707818.76845  23920413.5914   23920418.3134
     -4041.2034      -3148.9894
  -4821220.04145  -3642627.98444  23898526.9114   23898531.6694
      1320.6564       1029.0834
 98  7  7 16 18 30.0010000  0  8G24G 4G 5G30G10G 8G 9G 6
   4688048.04346   3670173.60446  21081607.3414   21081609.9784
     -2524.2344      -1966.9364
  13944517.06546  10857078.52145  23622886.3024   23622890.2744
     -4131.1564      -3219.0834
  -1964968.81447  -1525869.96246  20593576.1924   20593578.1964
      -924.0624       -720.0494
  -9515641.40347  -7282185.34346  21638213.4744   21638215.0324
      1254.4534        977.4964
  -8820305.17446  -6713318.44745  22866522.3884   22866527.3684
      1691.7194       1318.2224
   5771642.97246   4497380.61046  22341835.4424   22341838.7824
     -2985.0004      -2325.9744
  13808006.38445  10755073.33745  23931953.9034   23931958.6144
     -4044.5314      -3151.5834
  -4841006.56044  -3658046.01844  23894760.9744   23894766.5054
      1317.5944       1026.6964
 98  7  7 16 18 45.0010000  0  8G24G 4G 5G30G10G 8G 9G 6
   4725976.23846   3699728.04146  21088825.2474   21088828.1534
     -2532.7814      -1973.5964
  14006512.40645  10905386.56845  23634683.7714   23634687.0404
     -4134.8754      -3221.9814
  -1951036.23747  -1515013.40946  20596227.3884   20596229.5794
      -933.5784       -727.4634
  -9534398.52647  -7296801.27346  21634643.9504   21634645.4274
      1246.5784        971.3604
  -8845627.37546  -6733050.01945  22861703.3884   22861709.2594
      1684.6414       1312.7074
   5816486.45346   4532323.55946  22350369.3494   22350372.8174
     -2994.1094      -2333.0724
  13868701.49445  10802368.21845  23943503.3024   23943507.2634
     -4048.1094      -3154.3714
  -4860744.79244  -3673426.43745  23891005.6614   23891010.2084
      1314.2344       1024.0794
 98  7  7 16 19  0.0010000  0  8G24G 4G 5G30G10G 8G 9G 6
   4764031.22546   3729381.27446  21096066.9894   21096070.1654
     -2541.2344      -1980.1834
  14068564.29845  10953738.69645  23646491.6384   23646495.5994
     -4138.7664      -3225.0124
  -1936960.73847  -1504045.48946  20598905.8724   20598908.0994
      -943.2034       -734.9634
  -9553038.34747  -7311325.79846  21631096.8964   21631098.7474
      1238.7194        965.2354
  -8870844.12446  -6752699.39645  22856905.1224   22856910.7944
      1677.5784       1307.2044
   5861467.66646   4567373.82846  22358928.7554   22358932.3644
     -3003.4534      -2340.3534
  13929450.15445  10849704.78445  23955064.2474   23955068.7714
     -4051.6874      -3157.1594
  -4880433.27845  -3688768.10244  23887259.4894   23887264.0244
      1310.8444       1021.4374
 98  7  7 16 19 15.0010000  0  8G24G 4G 5G30G10G 8G 9G 6
   4802210.19846   3759131.11446  21103332.1854   21103335.3374
     -2549.3124      -1986.4774
  14130672.98646  11002134.98945  23658310.7554   23658313.9314
     -4142.3914      -3227.8374
  -1922741.20447  -1492965.33346  20601611.9664   20601614.2744
      -952.7814       -742.4274
  -9571562.69346  -7325760.34146  21627571.8564   21627573.7084
      1231.1884        959.3674
  -8895955.63046  -6772266.78645  22852126.4114   22852131.9194
      1670.5784       1301.7494
   5906586.95246   4602531.69445  22367514.4194   22367518.2394
     -3012.4064      -2347.3304
  13990250.23745  10897081.46145  23966633.3174   23966636.7744
     -4054.9694      -3159.7164
  -4900070.89045  -3704070.09344  23883522.3564   23883526.3534
      1307.5474       1018.8684
 98  7  7 16 19 30.0010000  0  8G24G 4G 5G30G10G 8G 9G 6
   4840512.72746   3788977.23546  21110620.7784   21110623.8024
     -2557.5314      -1992.8814
  14192838.39346  11050575.55145  23670140.3334   23670143.8604
     -4146.2344      -3230.8324
  -1908374.79047  -1481770.72846  20604345.6694   20604347.8724
      -962.6874       -750.1464
  -9589973.10046  -7340106.10046  21624068.6774   21624070.2944
      1223.5944        953.4504
  -8920960.06146  -6791750.71845  22847368.2784   22847373.4464
      1663.4534       1296.1974
   5951843.14946   4637796.23445  22376126.2244   22376129.6464
     -3021.6724      -2354.5504
  14051101.40945  10944497.91344  23978212.9974   23978217.4624
     -4058.4224      -3162.4074
  -4919660.29345  -3719334.54045  23879794.4034   23879797.6494
      1304.4844       1016.4814
 98  7  7 16 19 45.0010000  0  8G24G 4G 5G30G10G 8G 9G 6
   4878936.89346   3818918.13746  21117932.5674   21117935.9424
     -2565.5784      -1999.1524
  14255060.46646  11099060.26345  23681981.4114   23681984.8454
     -4149.9064      -3233.6934
  -1893857.28647  -1470458.38746  20607108.2784   20607110.5634
      -972.9374       -758.1334
  -9608267.93446  -7354361.80946  21620587.1774   21620589.0174
      1215.8134        947.3864
  -8945858.04546  -6811151.71845  22842630.2084   22842634.2864
      1656.4064       1290.7064
   5997239.35146   4673169.87145  22384765.2084   22384768.4894
     -3031.0474      -2361.8554
  14112003.23445  10991953.85545  23989802.3724   23989806.3564
     -4061.7664      -3165.0124
  -4939204.87045  -3734564.03145  23876075.0134   23876078.7514
      1301.5784       1014.2174
 98  7  7 16 20  0.0010000  0  8G24G 4G 5G30G10G 8G 9G 6
   4917480.78846   3848952.32946  21125267.2864   21125270.5214
     -2573.5314      -2005.3494
  14317337.49546  11147587.77645  23693831.9814   23693836.0134
     -4153.6564      -3236.6154
  -1879184.30647  -1459024.90146  20609900.4974   20609902.5244
      -983.4534       -766.3274
  -9626446.28847  -7368526.74746  21617128.2084   21617129.9424
      1207.9844        941.2874
  -8970649.64946  -6830469.82445  22837912.3174   22837915.9854
      1649.1564       1285.0574
   6042775.33946   4708652.43945  22393430.4274   22393433.6264
     -3040.4064      -2369.1484
  14172954.16745  11039448.04945  24001400.8254   24001404.5524
     -4065.0314      -3167.5574
  -4958707.23645  -3749760.68845  23872363.9584   23872367.8374
      1298.8444       1012.0864
 98  7  7 16 20 15.0010000  0  8G24G 4G 5G30G10G 8G 9G 6
   4956143.85346   3879079.39446  21132624.3024   21132627.4664
     -2581.5624      -2011.6074
  14379670.91946  11196159.23045  23705693.6774   23705697.8494
     -4157.5474      -3239.6474
  -1864352.85147  -1447467.92246  20612722.7634   20612724.5564
      -994.1254       -774.6434
  -9644507.92246  -7382600.73446  21613691.0834   21613692.6534
      1200.2034        935.2234
  -8995331.19146  -6849702.17145  22833215.7004   22833219.6854
      1641.6414       1279.2004
   6088454.04446   4744246.21545  22402122.8494   22402125.9194
     -3050.1414      -2376.7334
  14233954.03745  11086980.38945  24013008.3174   24013012.1264
     -4068.3284      -3170.1264
  -4978170.36945  -3764926.73344  23868659.8254   23868665.4624
      1296.2034       1010.0284
 98  7  7 16 20 30.0010000  0  8G24G 4G 5G30G10G 8G 9G 6
   4994927.77447   3909300.61746  21140004.7004   21140007.8064
     -2589.6254      -2017.8904
  14442063.21046  11244776.57345  23717566.3564   23717570.3534
     -4161.4694      -3242.7034
  -1849361.45347  -1435786.32046  20615575.5914   20615577.2904
     -1004.7034       -782.8864
  -9662454.56346  -7396585.12346  21610275.6694   21610277.4854
      1192.7034        929.3794
  -9019899.09846  -6868845.96145  22828540.5604   22828544.8494
      1634.0944       1273.3204
   6134278.06646   4779953.21845  22410843.0054   22410846.2634
     -3059.7034      -2384.1844
  14295002.67045  11134550.73645  24024625.2784   24024629.9664
     -4071.4224      -3172.5374
  -4997595.35345  -3780063.08044  23864963.6614   23864969.7554
      1293.7974       1008.1534
 98  7  7 16 20 45.0010000  0  8G24G 4G 5G30G10G 8G 9G 6
   5033834.31746   3939617.40746  21147407.9744   21147411.0914
     -2597.8914      -2024.3304
  14504515.96945  11293441.02345  23729450.8254   23729455.3724
     -4165.5314      -3245.8694
  -1834210.65547  -1423980.50946  20618458.6534   20618460.3414
     -1015.3594       -791.1894
  -9680288.02947  -7410481.31546  21606882.2314   21606884.1884
      1185.1094        923.4624
  -9044353.36946  -6887901.22345  22823887.2004   22823891.7714
      1626.5474       1267.4394
   6180246.74246   4815772.93545  22419590.2004   22419593.8334
     -3069.3914      -2391.7334
  14356098.36545  11182157.73344  24036251.9354   24036257.5954
     -4074.6564      -3175.0574
  -5016983.93645  -3795171.02745  23861274.1064   23861279.0524
      1291.4224       1006.3034
 98  7  7 16 21  0.0010000  0  8G24G 4G 5G30G10G 8G 9G 6
   5072863.68346   3970029.88246  21154835.2474   21154838.9744
     -2605.9694      -2030.6254
  14567029.68545  11342152.94445  23741347.0134   23741350.8454
     -4169.5944      -3249.0344
  -1818899.87047  -1412050.03446  20621372.2714   20621374.0754
     -1026.0474       -799.5174
  -9698006.95447  -7424288.25446  21603510.3254   21603512.3764
      1177.4694        917.5084
  -9068695.39846  -6906869.01045  22819254.7244   22819260.1144
      1619.0944       1261.6314
   6226360.36546   4851705.60145  22428365.4974   22428369.0954
     -3079.0624      -2399.2694
  14417242.72245  11229802.67145  24047888.1614   24047893.0244
     -4077.9064      -3177.5894
  -5036338.69345  -3810252.64745  23857591.4664   23857595.6034
      1289.2974       1004.6474
 98  7  7 16 21 15.0010000  0  8G24G 4G 5G30G10G 8G 9G 6
   5112012.11446   4000535.14446  21162284.9354   21162288.6384
     -2613.8754      -2036.7864
  14629603.89445  11390912.06945  23753254.0754   23753257.5094
     -4173.6414      -3252.1874
  -1803428.85047  -1399994.69546  20624316.4274   20624318.2314
     -1036.7504       -807.8574
  -9715611.67847  -7438006.20946  21600160.4424   21600162.4704
      1169.8134        911.5424
  -9092925.55646  -6925749.61145  22814643.8174   22814648.8104
      1611.6254       1255.8124
   6272618.91746   4887751.19645  22437168.2784   22437171.7714
     -3088.7034      -2406.7824
  14478434.89545  11277484.83945  24059532.3494   24059538.1494
     -4081.0784      -3180.0614
  -5055662.90345  -3825310.46444  23853913.9894   23853917.7984
      1287.2504       1003.0524
 98  7  7 16 21 30.0010000  0  8G24G 4G 5G30G10G 8G 9G 6
   5151280.55546   4031133.91646  21169757.8644   21169761.6034
     -2621.8444      -2042.9954
  14692239.35945  11439718.86445  23765173.3964   23765177.7904
     -4177.6874      -3255.3414
  -1787797.78147  -1387814.64246  20627290.8494   20627292.9934
     -1047.2504       -816.0394
  -9733101.55647  -7451634.67846  21596832.0914   21596833.9074
      1162.2344        905.6374
  -9117043.62646  -6944542.89645  22810054.4274   22810059.5484
      1604.2344       1250.0534
   6319021.94346   4923909.37545  22445998.5284   22446001.8564
     -3098.2974      -2414.2574
  14539676.93845  11325205.90945  24071186.1304   24071190.7474
     -4084.4694      -3182.7034
  -5074955.79945  -3840343.81945  23850243.0364   23850247.2554
      1285.2664       1001.5064
 98  7  7 16 21 45.0010000  0  8G24G 4G 5G30G10G 8G 9G 6
   5190668.71846   4061825.98846  21177253.2714   21177256.8104
     -2630.0004      -2049.3514
  14754937.24345  11488574.31845  23777104.8724   23777108.6104
     -4182.1094      -3258.7874
  -1772010.04847  -1375512.51446  20630295.1694   20630297.2204
     -1057.8914       -824.3304
  -9750476.84147  -7465173.84846  21593525.7784   21593527.4424
      1154.3594        899.5014
  -9141051.62246  -6963250.39745  22805486.1534   22805490.9464
      1596.7194       1244.1964
   6365568.70446   4960179.56045  22454855.9504   22454859.7354
     -3108.0474      -2421.8554
  14600969.15845  11372966.04845  24082850.0674   24082855.2004
     -4087.9374      -3185.4064
  -5094219.05745  -3855354.14445  23846577.0914   23846580.6884
      1282.9534        999.7044
 98  7  7 16 22  0.0010000  0  8G24G 4G 5G30G10G 8G 9G 6
   5230180.60246   4092614.46546  21184772.0134   21184775.4814
     -2638.3594      -2055.8644
  14817700.17445  11537480.43145  23789047.7394   23789051.9464
     -4186.3754      -3262.1104
  -1756064.08747  -1363087.09146  20633329.4814   20633331.6144
     -1068.2344       -832.3904
  -9767734.59147  -7478621.43146  21590241.7714   21590243.5054
      1146.6564        893.4984
  -9164946.59646  -6981869.83245  22800938.9894   22800944.0284
      1589.2664       1238.3894
   6412259.99046   4996562.34245  22463741.2474   22463745.4074
     -3117.4064      -2429.1484
  14662311.99745  11420765.62844  24094523.2944   24094528.7314
     -4091.1564      -3187.9144
  -5113444.78945  -3870335.18745  23842918.0524   23842921.0284
      1280.3914        997.7074
 98  7  7 16 22 15.0010000  0  8G24G 4G 5G30G10G 8G 9G 6
   5269819.22046   4123501.69546  21192315.0754   21192318.7554
     -2646.7814      -2062.4274
  14880529.24045  11586438.11344  23801003.6694   23801008.1224
     -4190.7504      -3265.5194
  -1739964.96447  -1350542.32446  20636393.0674   20636395.1184
     -1078.3124       -840.2444
  -9784875.44647  -7491977.93246  21586979.9504   21586981.8374
      1138.7504        887.3384
  -9188728.69946  -7000401.31545  22796412.9894   22796417.6064
      1581.6884       1232.4844
   6459089.70246   5033053.01345  22472652.5604   22472656.3804
     -3126.5944      -2436.3074
  14723704.34245  11468603.79144  24106204.9274   24106209.2394
     -4094.4844      -3190.5074
  -5132630.27145  -3885284.89045  23839267.1224   23839271.2004
      1277.6884        995.6014
 98  7  7 16 22 30.0010000  0  8G24G 4G 5G30G10G 8G 9G 6
   5309581.90546   4154485.58746  21199881.6224   21199885.5604
     -2654.8444      -2068.7094
  14943421.69345  11635445.18645  23812971.9894   23812976.1384
     -4194.9374      -3268.7824
  -1723716.10847  -1337880.87246  20639485.0914   20639487.1424
     -1088.1874       -847.9384
  -9801897.96847  -7505242.22846  21583740.5914   21583742.7944
      1130.9064        881.2264
  -9212398.29146  -7018845.13245  22791909.2944   22791914.3104
      1574.2814       1226.7134
   6506057.24146   5069651.06745  22481589.9744   22481593.4784
     -3135.6724      -2443.3814
  14785145.56645  11516480.04345  24117897.7714   24117901.4384
     -4097.6564      -3192.9794
  -5151775.82945  -3900203.47745  23835623.7554   23835629.2864
      1275.0474        993.5434
 98  7  7 16 22 45.0010000  0  8G24G 4G 5G30G10G 8G 9G 6
   5349466.52946   4185564.50546  21207471.3494   21207475.0524
     -2662.9844      -2075.0534
  15006378.77745  11684502.60045  23824952.5284   23824956.8534
     -4199.2814      -3272.1674
  -1707316.98847  -1325102.34646  20642605.7004   20642607.8454
     -1098.3444       -855.8524
  -9818799.60647  -7518412.32346  21580524.2004   21580526.1464
      1122.6724        874.8094
  -9235955.67546  -7037201.50345  22787426.4274   22787431.8174
      1566.7664       1220.8564
   6553159.85546   5106354.35745  22490553.5754   22490557.0324
     -3144.6414      -2450.3694
  14846634.58645  11564393.54945  24129598.5834   24129602.5794
     -4100.8754      -3195.4874
  -5170879.35945  -3915089.32445  23831988.7474   23831994.6534
      1272.0784        991.2304
 98  7  7 16 23  0.0010000  0  8G24G 4G 5G30G10G 8G 9G 6
   5389470.03746   4216736.06646  21215083.6464   21215087.0674
     -2670.8284      -2081.1654
  15069399.39345  11733609.53945  23836944.9114   23836950.2784
     -4203.5004      -3275.4554
  -1690765.59947  -1312205.16346  20645755.4034   20645757.4784
     -1108.5944       -863.8394
  -9835578.81646  -7531487.02146  21577331.1774   21577333.3804
      1114.4694        868.4174
  -9259402.00846  -7055471.35245  22782964.5054   22782969.9784
      1559.2974       1215.0374
   6600394.24746   5143160.35145  22499542.0134   22499545.3414
     -3153.3124      -2457.1274
  14908170.71345  11612343.73744  24141309.0444   24141313.3214
     -4103.9534      -3197.8864
  -5189938.31745  -3929940.44544  23828362.4424   23828368.8294
      1269.0314        988.8564
 98  7  7 16 23 15.0010000  0  8G24G 4G 5G30G10G 8G 9G 6
   5429589.67947   4247998.11846  21222718.2394   21222721.8724
     -2678.4224      -2087.0824
  15132482.11045  11782764.87244  23848949.3494   23848954.8454
     -4207.5004      -3278.5714
  -1674059.03747  -1299187.06046  20648934.3804   20648936.5834
     -1118.8754       -871.8514
  -9852233.75046  -7544464.87646  21574161.7864   21574163.9664
      1106.2504        862.0134
  -9282735.19246  -7073653.02045  22778524.3804   22778529.5484
      1551.8134       1209.2054
   6647758.00546   5180067.14545  22508554.9274   22508558.4074
     -3161.7814      -2463.7264
  14969752.14745  11660329.24944  24153026.8174   24153030.6854
     -4106.7974      -3200.1014
  -5208949.82245  -3944754.57045  23824744.9504   23824749.5324
      1265.8594        986.3844
 98  7  7 16 23 30.0010000  0  8G24G 4G 5G30G10G 8G 9G 6
   5469823.16146   4279348.87946  21230374.3964   21230378.0634
     -2686.0314      -2093.0114
  15195623.92345  11831966.25645  23860964.4354   23860968.4424
     -4211.3284      -3281.5544
  -1657198.95047  -1286049.33646  20652142.7864   20652144.7674
     -1129.0624       -879.7894
  -9868765.79447  -7557346.97646  21571016.0054   21571018.3374
      1098.0314        855.6094
  -9305956.80646  -7091747.76745  22774105.0914   22774110.7284
      1544.4384       1203.4584
   6695246.81846   5217071.38845  22517591.8724   22517595.2944
     -3170.0164      -2470.1424
  15031374.82545  11708346.90145  24164753.7084   24164758.5244
     -4109.5474      -3202.2444
  -5227912.65445  -3959530.78445  23821135.8804   23821140.2394
      1262.5314        983.7914
 98  7  7 16 23 45.0010000  0  8G24G 4G 5G30G10G 8G 9G 6
   5510172.63546   4310790.02046  21238052.6064   21238056.2164
     -2693.9374      -2099.1724
  15258822.55845  11881211.88645  23872990.5674   23872994.1884
     -4215.2034      -3284.5744
  -1640187.20247  -1272793.43346  20655380.2244   20655382.4274
     -1139.1874       -887.6794
  -9885173.31447  -7570132.04046  21567893.7244   21567895.5994
      1089.5474        848.9984
  -9329066.23546  -7109755.07745  22769707.6224   22769713.2824
      1536.7814       1197.4924
   6742859.60846   5254172.22945  22526652.1384   22526655.0794
     -3178.4064      -2476.6804
  15093038.78845  11756396.71544  24176487.9744   24176492.5444
     -4112.2974      -3204.3874
  -5246825.68145  -3974268.18045  23817537.2244   23817541.0794
      1259.1884        981.1854
 98  7  7 16 24  0.0010000  0  8G24G 4G 5G30G10G 8G 9G 6
   5550640.90746   4342323.72846  21245753.3804   21245757.1184
     -2701.7814      -2105.2844
  15322078.89645  11930502.47844  23885027.8884   23885032.6224
     -4218.9064      -3287.4594
  -1623023.27447  -1259418.94646  20658646.2084   20658648.1774
     -1149.2974       -895.5564
  -9901452.65447  -7582817.23346  21564795.7864   21564797.7084
      1081.0784        842.3994
  -9352060.99646  -7127673.04945  22765331.9814   22765337.9814
      1529.1884       1191.5754
   6790598.20146   5291371.09745  22535736.8964   22535740.3534
     -3186.7034      -2483.1454
  15154743.46045  11804478.23844  24188229.8964   24188234.8294
     -4114.9844      -3206.4814
  -5265689.30745  -3988967.07145  23813947.8644   23813952.0014
      1255.9844        978.6894
 98  7  7 16 24 15.0010000  0  8G24G 4G 5G30G10G 8G 9G 6
   5591226.73646   4373949.04046  21253476.7084   21253480.1884
     -2709.6094      -2111.3844
  15385389.31745  11979835.26644  23897075.8724   23897080.0324
     -4222.4694      -3290.2354
  -1605708.08447  -1245926.59446  20661941.1464   20661943.2554
     -1159.4064       -903.4334
  -9917604.74546  -7595403.27146  21561722.1614   21561724.1654
      1072.5314        835.7394
  -9374940.63946  -7145501.33245  22760978.3564   22760984.4744
      1521.4534       1185.5484
   6838462.88246   5328668.23545  22544845.2944   22544848.3764
     -3195.2344      -2489.7934
  15216490.67345  11852592.93644  24199980.4034   24199986.0874
     -4118.0004      -3208.8314
  -5284505.24445  -4003628.82945  23810366.7394   23810371.3684
      1252.8914        976.2784
 98  7  7 16 24 30.0010000  0  8G24G 4G 5G30G10G 8G 9G 6
   5631926.21746   4405662.91446  21261222.0444   21261225.5604
     -2717.0164      -2117.1554
  15448749.94645  12029207.16444  23909133.2004   23909137.6654
     -4225.5944      -3292.6704
  -1588241.13647  -1232315.98946  20665265.1384   20665267.1424
     -1169.5944       -911.3724
  -9933628.89047  -7607889.60846  21558672.7784   21558674.6064
      1064.0314        829.1154
  -9397704.90446  -7163239.68745  22756646.3804   22756651.5484
      1513.7504       1179.5454
   6886455.80146   5366065.28345  22553977.8414   22553981.2744
     -3203.8754      -2496.5264
  15278281.64545  11900741.71944  24211738.0834   24211741.9154
     -4120.7814      -3210.9984
  -5303277.81845  -4018256.77145  23806794.1774   23806797.2824
      1250.1254        974.1234
 98  7  7 16 24 45.0010000  0  8G24G 4G 5G30G10G 8G 9G 6
   5672738.92747   4437465.01646  21268988.4194   21268991.8884
     -2724.7194      -2123.1574
  15512158.94345  12078616.75744  23921199.2474   23921203.1494
     -4228.9224      -3295.2644
  -1570618.69647  -1218584.22046  20668618.6694   20668620.9074
     -1180.0944       -919.5544
  -9949524.94247  -7620276.13246  21555647.8884   21555649.7164
      1055.4384        822.4194
  -9420353.39846  -7180887.84945  22752336.2474   22752340.9934
      1506.0634       1173.5554
   6934579.84446   5403564.51345  22563135.7164   22563139.5364
     -3212.5944      -2503.3204
  15340115.96345  11948924.27045  24223505.1304   24223510.4034
     -4123.7974      -3213.3484
  -5322007.62945  -4032851.41545  23803230.4814   23803234.3374
      1247.1884        971.8344
 98  7  7 16 25  0.0010000  0  8G24G 4G 5G30G10G 8G 9G 6
   5713668.30846   4469358.03346  21276776.9504   21276780.7594
     -2732.5474      -2129.2574
  15575616.08145  12128063.80844  23933275.0914   23933280.4814
     -4232.0314      -3297.6874
  -1552838.97847  -1204729.89746  20672002.0914   20672004.1424
     -1190.5474       -927.6994
  -9965292.17747  -7632562.28246  21552647.5214   21552649.3254
      1046.8754        815.7474
  -9442887.95146  -7198447.20145  22748048.0364   22748052.5244
      1498.5314       1167.6874
   6982833.72946   5441164.90845  22572317.8964   22572322.3844
     -3221.3284      -2510.1264
  15401996.00245  11997142.46744  24235280.3024   24235285.0134
     -4126.9224      -3215.7834
  -5340693.72545  -4047411.98945  23799674.2164   23799678.3884
      1244.2664        969.5584
 98  7  7 16 25 15.0010000  0  8G24G 4G 5G30G10G 8G 9G 6
   5754717.63146   4501344.50646  21284588.2784   21284591.8534
     -2740.7034      -2135.6134
  15639121.78445  12177548.67145  23945359.5524   23945364.3214
     -4235.3754      -3300.2924
  -1534902.72047  -1190753.59646  20675415.2784   20675417.4584
     -1200.8444       -935.7224
  -9980929.97747  -7644747.57646  21549671.8964   21549673.8884
      1038.1564        808.9534
  -9465307.90046  -7215917.25945  22743781.6774   22743787.1494
      1490.8134       1161.6724
   7031220.10746   5478868.55845  22581525.6304   22581529.8024
     -3230.1724      -2517.0174
  15463924.13345  12045398.12444  24247065.5284   24247069.7824
     -4130.1874      -3218.3284
  -5359335.31845  -4061937.88045  23796126.7084   23796131.1144
      1241.3284        967.2694
 98  7  7 16 25 30.0010000  0  8G24G 4G 5G30G10G 8G 9G 6
   5795890.78646   4533427.47046  21292423.3494   21292426.8064
     -2749.1874      -2142.2244
  15702677.35545  12227072.45445  23957453.7164   23957458.1104
     -4238.8284      -3302.9834
  -1516814.19847  -1176658.64646  20678857.2314   20678859.6464
     -1211.0314       -943.6614
  -9996435.68947  -7656829.93946  21546721.1924   21546723.2434
      1029.2194        801.9894
  -9487612.07146  -7233297.11645  22739537.3024   22739542.2714
      1482.9534       1155.5484
   7079740.31146   5516676.49445  22590759.2554   22590763.4624
     -3239.2814      -2524.1154
  15525902.91145  12093693.26344  24258859.1694   24258863.7514
     -4133.6874      -3221.0554
  -5377933.57745  -4076429.99645  23792587.7314   23792592.2314
      1238.4384        965.0164
 98  7  7 16 25 45.0010000  0  8G24G 4G 5G30G10G 8G 9G 6
   5837191.36446   4565609.73046  21300282.5134   21300286.0404
     -2757.6564      -2148.8234
  15766284.63745  12276636.52245  23969557.9194   23969562.2434
     -4242.2194      -3305.6254
  -1498573.90147  -1162445.42746  20682328.2314   20682330.3644
     -1221.1094       -951.5144
 -10011808.07647  -7668808.41146  21543795.7084   21543797.6774
      1020.3594        795.0854
  -9509797.29446  -7250584.26845  22735315.3884   22735320.7674
      1474.9384       1149.3024
   7128398.07846   5554591.60045  22600018.2474   22600021.9504
     -3248.5164      -2531.3114
  15587933.04145  12142028.40044  24270663.5914   24270668.5834
     -4137.0624      -3223.6854
  -5396491.15645  -4090890.42845  23789055.9584   23789059.8374
      1235.8134        962.9714
 98  7  7 16 26  0.0010000  0  8G24G 4G 5G30G10G 8G 9G 6
   5878619.84346   4597891.65446  21308165.6924   21308169.3134
     -2766.0624      -2155.3734
  15829944.60745  12326241.64845  23981672.0284   23981676.4234
     -4245.7814      -3308.4014
  -1480181.25947  -1148113.50646  20685828.4034   20685830.4664
     -1231.2974       -959.4524
 -10027047.22447  -7680683.06746  21540895.8334   21540897.9074
      1011.5314        788.2064
  -9531860.40246  -7267776.28145  22731117.1534   22731121.9814
      1466.7974       1142.9594
   7177195.33846   5592615.40345  22609303.9664   22609307.5634
     -3257.7664      -2538.5194
  15650012.18545  12190401.74244  24282475.6924   24282481.1774
     -4140.2344      -3226.1574
  -5415008.79445  -4105319.74245  23785531.9424   23785536.5014
      1233.2034        960.9384
 98  7  7 16 26 15.0010000  0  8G24G 4G 5G30G10G 8G 9G 6
   5920170.99846   4630269.16546  21316072.9744   21316076.6534
     -2774.0784      -2161.6194
  15893657.16545  12375887.75544  23993796.1774   23993801.2984
     -4249.2194      -3311.0804
  -1461633.26247  -1133660.51946  20689357.7634   20689359.8494
     -1241.8124       -967.6464
 -10042154.36947  -7692454.86646  21538021.2004   21538023.4384
      1002.7664        781.3764
  -9553801.12346  -7284872.93145  22726942.0134   22726947.1104
      1458.6094       1136.5794
   7226131.23046   5630747.24445  22618616.5054   22618619.8334
     -3267.0314      -2545.7394
  15712138.83845  12238812.07944  24294298.2554   24294303.2124
     -4143.2664      -3228.5194
  -5433486.43545  -4119717.85745  23782016.2714   23782020.0914
      1230.4844        958.8194
 98  7  7 16 26 30.0010000  0  8G24G 4G 5G30G10G 8G 9G 6
   5961842.57246   4662740.51646  21324002.5054   21324006.0674
     -2782.0784      -2167.8534
  15957422.68445  12425575.16643  24005930.6774   24005934.4744
     -4252.8284      -3313.8924
  -1442925.85447  -1119083.32246  20692917.6384   20692919.5604
     -1252.4694       -975.9504
 -10057128.73247  -7704123.18746  21535171.3964   21535173.7164
       993.8594        774.4364
  -9575618.00746  -7301873.06645  22722790.4114   22722796.2354
      1450.3914       1130.1754
   7275207.36846   5668988.36545  22627955.2314   22627959.0404
     -3276.3124      -2552.9714
  15774310.36445  12287257.40844  24306130.1304   24306135.0174
     -4146.0944      -3230.7224
  -5451922.75145  -4134083.79145  23778508.0444   23778512.4744
      1227.7974        956.7254
 98  7  7 16 26 45.0010000  0  8G24G 4G 5G30G10G 8G 9G 6
   6003632.82646   4695304.33646  21331955.0834   21331958.7394
     -2790.0004      -2174.0264
  16021242.50845  12475304.88343  24018075.4894   24018079.0634
     -4256.5784      -3316.8144
  -1424059.22347  -1104382.05446  20696507.9034   20696510.1184
     -1263.0784       -984.2174
 -10071969.82647  -7715687.66846  21532347.4814   21532350.0244
       984.9384        767.4844
  -9597312.47946  -7318777.81445  22718662.0994   22718667.3374
      1442.2034       1123.7954
   7324420.58246   5707336.29245  22637319.8414   22637323.4744
     -3285.3914      -2560.0454
  15836521.13545  12335733.30344  24317968.2244   24317972.8294
     -4148.6874      -3232.7444
  -5470320.38545  -4148419.59045  23775006.3334   23775010.5524
      1225.2034        954.7044
 98  7  7 16 27  0.0010000  0  8G24G 4G 5G30G10G 8G 9G 6
   6045542.26446   4727961.02946  21339929.9814   21339933.7314
     -2797.9064      -2180.1874
  16085120.92045  12525080.24543  24030230.8024   24030234.5754
     -4260.4844      -3319.8584
  -1405034.50047  -1089557.59446  20700128.0524   20700130.1964
     -1273.5474       -992.3744
 -10086677.07347  -7727147.85146  21529548.7164   21529551.1184
       976.0004        760.5194
  -9618885.09046  -7335587.61045  22714557.0834   22714561.8414
      1434.0944       1117.4764
   7373768.32746   5745789.07345  22646710.2864   22646713.8494
     -3294.3124      -2566.9974
  15898770.30945  12384239.13144  24329813.9974   24329819.1184
     -4151.1874      -3234.6924
  -5488678.70445  -4162724.74445  23771512.7944   23771515.5604
      1222.5474        952.6344
 98  7  7 16 27 15.0010000  0  8G24G 4G 5G30G10G 8G 9G 6
   6087569.25146   4760709.31746  21347927.7474   21347931.3804
     -2805.6254      -2186.2014
  16149058.56445  12574901.74944  24042397.7244   24042401.4974
     -4264.4844      -3322.9754
  -1385852.71047  -1074610.74646  20703778.4114   20703780.6494
     -1283.9534      -1000.4834
 -10101249.64047  -7738503.08746  21526775.6464   21526777.9424
       967.0944        753.5804
  -9640333.30246  -7352300.48445  22710475.4034   22710480.4424
      1425.7034       1110.9384
   7423252.02046   5784347.76945  22656127.2004   22656131.1964
     -3303.4374      -2574.1074
  15961056.91345  12432774.11244  24341666.1064   24341670.9704
     -4153.6414      -3236.6034
  -5506996.19245  -4176998.07945  23768027.7634   23768032.2634
      1219.7974        950.4914
 98  7  7 16 27 30.0010000  0  8G24G 4G 5G30G10G 8G 9G 6
   6129711.78546   4793547.64846  21355947.4584   21355950.9624
     -2813.2504      -2192.1434
  16213056.68345  12624770.32445  24054576.3804   24054580.7634
     -4268.4534      -3326.0674
  -1366514.65947  -1059542.13846  20707458.1384   20707460.4584
     -1294.3754      -1008.6044
 -10115687.78347  -7749753.58646  21524028.2004   21524030.2984
       958.0944        746.5674
  -9661653.11046  -7368913.27345  22706418.4504   22706423.8884
      1417.0474       1104.1924
   7472872.15846   5823012.78745  22665569.1614   22665572.4424
     -3312.4844      -2581.1574
  16023380.27145  12481337.75844  24353526.7084   24353531.7244
     -4156.0314      -3238.4664
  -5525271.59945  -4191238.62245  23764550.0364   23764554.4424
      1217.0164        948.3244
 98  7  7 16 27 45.0010000  0  8G24G 4G 5G30G10G 8G 9G 6
   6171965.52146   4826472.62646  21363988.1614   21363991.3024
     -2820.5164      -2197.8044
  16277111.26445  12674682.94645  24066765.1224   24066769.7044
     -4272.1874      -3328.9774
  -1347019.96247  -1044351.47046  20711167.7784   20711170.0284
     -1305.0004      -1016.8834
 -10129993.38047  -7760900.79646  21521306.1854   21521308.1534
       949.3444        739.7484
  -9682845.51646  -7385426.81645  22702385.6774   22702390.9154
      1408.5944       1097.6064
   7522626.75746   5861782.57445  22675037.3334   22675040.2744
     -3321.4064      -2588.1094
  16085736.51745  12529927.01044  24365392.1464   24365397.7714
     -4158.1254      -3240.0974
  -5543507.22245  -4205448.18445  23761079.6224   23761082.5284
      1214.3594        946.2544
 98  7  7 16 28  0.0010000  0  8G24G 4G 5G30G10G 8G 9G 6
   6214324.81446   4859479.86146  21372048.6304   21372051.8414
     -2827.4374      -2203.1984
  16341220.82845  12724638.38645  24078965.0364   24078969.9234
     -4275.8124      -3331.8024
  -1327365.69947  -1029036.46446  20714907.9664   20714910.0054
     -1315.6414      -1025.1754
 -10144169.14847  -7771946.84646  21518608.5364   21518610.3884
       940.7344        733.0404
  -9703913.49446  -7401843.40345  22698376.3804   22698381.3134
      1400.4534       1091.2624
   7572511.36146   5900653.66145  22684530.2394   22684533.3804
     -3329.8594      -2594.6964
  16148123.56945  12578540.26744  24377263.9744   24377269.0364
     -4160.1874      -3241.7054
  -5561701.37245  -4219625.40445  23757617.5364   23757621.1464
      1211.4844        944.0144
 98  7  7 16 28 15.0010000  0  8G24G 4G 5G30G10G 8G 9G 6
   6256786.85046   4892567.15446  21380128.7164   21380131.9854
     -2834.0944      -2208.3854
  16405385.89545  12774637.08045  24091174.9354   24091178.9894
     -4279.4224      -3334.6144
  -1307551.20447  -1013596.59946  20718678.7244   20718680.3064
     -1326.2664      -1033.4544
 -10158215.37147  -7782891.94846  21515935.5364   21515937.2354
       932.1724        726.3684
  -9724858.77846  -7418164.38145  22694390.6464   22694395.5214
      1392.3284       1084.9314
   7622521.83446   5939622.81945  22694046.9894   22694049.9074
     -3338.1254      -2601.1364
  16210543.55245  12627179.19144  24389142.2474   24389146.9814
     -4162.4224      -3243.4464
  -5579852.44645  -4233769.06545  23754163.3884   23754166.9854
      1208.7504        941.8834
 98  7  7 16 28 30.0010000  0  8G24G 4G 5G30G10G 8G 9G 6
   6299348.54746   4925732.10646  21388228.2004   21388231.8214
     -2840.9224      -2213.7054
  16469602.43045  12824675.88145  24103395.2164   24103399.7284
     -4282.8124      -3337.2564
  -1287578.19647   -998033.22346  20722479.6854   20722481.4784
     -1336.7974      -1041.6604
 -10172134.82647  -7793738.27446  21513286.7164   21513288.3214
       923.7344        719.7934
  -9745683.89746  -7434391.72245  22690427.8174   22690432.8804
      1384.3444       1078.7094
   7672654.37946   5978687.10245  22703586.8644   22703590.2164
     -3346.1874      -2607.4194
  16272995.45045  12675842.99444  24401026.9744   24401030.7714
     -4164.4694      -3245.0414
  -5597964.77045  -4247882.54745  23750716.6224   23750720.8644
      1206.1254        939.8384
 98  7  7 16 28 45.0010000  0  8G24G 4G 5G30G10G 8G 9G 6
   6342015.64347   4958979.18246  21396347.7084   21396351.5174
     -2848.0164      -2219.2334
  16533869.42945  12874754.01644  24115624.6144   24115628.2714
     -4286.1254      -3339.8384
  -1267448.32147   -982347.60946  20726310.0834   20726311.8174
     -1347.1874      -1049.7564
 -10185927.16047  -7804485.54646  21510662.2714   21510663.9354
       915.2344        713.1704
  -9766387.65246  -7450524.49545  22686487.8964   22686492.8644
      1376.1724       1072.3424
   7722906.38546   6017844.48745  22713149.7004   22713152.7004
     -3354.0474      -2613.5434
  16335480.22745  12724532.38044  24412916.7784   24412921.7594
     -4166.8444      -3246.8914
  -5616035.61745  -4261963.68645  23747277.9274   23747282.7784
      1203.3134        937.6464
 98  7  7 16 29  0.0010000  0  8G24G 4G 5G30G10G 8G 9G 6
   6384788.73246   4992308.85446  21404486.7084   21404490.6574
     -2855.0314      -2224.7004
  16598185.08345  12924870.08543  24127864.1614   24127868.9784
     -4289.2504      -3342.2734
  -1247162.43547   -966540.43246  20730170.3334   20730172.2904
     -1357.5784      -1057.8534
 -10199592.56147  -7815133.91146  21508061.8724   21508063.5014
       906.9064        706.6804
  -9786968.70646  -7466561.66345  22682571.4974   22682576.3844
      1368.0314       1065.9984
   7773275.87846   6057093.40645  22722734.2554   22722738.1224
     -3361.8914      -2619.6554
  16398002.02245  12773250.66244  24424815.0284   24424820.5244
     -4169.3124      -3248.8154
  -5634062.32945  -4276010.45045  23743848.1384   23743853.2354
      1200.2664        935.2724
 98  7  7 16 29 15.0010000  0  8G24G 4G 5G30G10G 8G 9G 6
   6427667.02846   5025720.49746  21412646.2084   21412650.2864
     -2862.0314      -2230.1544
  16662545.48745  12975021.00443  24140111.8724   24140115.6344
     -4292.0944      -3344.4894
  -1226720.00947   -950611.26846  20734060.1614   20734062.1184
     -1368.0474      -1066.0114
 -10213134.67447  -7825686.20046  21505484.8724   21505486.3724
       898.7664        700.3374
  -9807427.80946  -7482503.79245  22678678.3564   22678682.9504
      1359.8444       1059.6194
   7823763.24146   6096434.17045  22732341.8414   22732345.1344
     -3369.7034      -2625.7434
  16460560.01045  12821997.13043  24436718.4974   24436722.8454
     -4171.7504      -3250.7144
  -5652043.58845  -4290021.80745  23740426.1064   23740430.8534
      1197.2814        932.9464
 98  7  7 16 29 30.0010000  0  8G24G 4G 5G30G10G 8G 9G 6
   6470651.63746   5059214.98446  21420825.9504   21420830.1924
     -2869.2664      -2235.7914
  16726950.04444  13025206.34443  24152367.0444   24152371.4274
     -4295.1094      -3346.8384
  -1206119.42747   -934558.87046  20737980.4274   20737982.4784
     -1378.6724      -1074.2904
 -10226555.25947  -7836143.79746  21502930.7944   21502932.4464
       890.6254        693.9944
  -9827762.60546  -7498349.06445  22674808.5674   22674813.6304
      1351.5004       1053.1174
   7874367.80946   6135866.27945  22741971.2944   22741974.7514
     -3377.4534      -2631.7824
  16523155.41845  12870772.74144  24448629.9114   24448634.0014
     -4174.2974      -3252.6994
  -5669980.58945  -4303998.64945  23737012.4354   23737015.3414
      1194.3914        930.6944
 98  7  7 16 29 45.0010000  0  8G24G 4G 5G30G10G 8G 9G 6
   6513744.36246   5092793.71446  21429026.2394   21429030.5994
     -2876.4224      -2241.3684
  16791397.20943  13075424.85942  24164631.3024   24164635.3564
     -4297.8594      -3348.9814
  -1185360.00047   -918382.69546  20741930.9584   20741933.0794
     -1389.2504      -1082.5324
 -10239852.87147  -7846505.56346  21500400.3804   21500402.2554
       882.4384        687.6144
  -9847973.59946  -7514097.85545  22670962.3494   22670967.6814
      1343.3754       1046.7864
   7925085.06646   6175386.18545  22751623.1924   22751627.0834
     -3384.8444      -2637.5414
  16585787.63745  12919577.06244  24460548.6384   24460552.1304
     -4176.6414      -3254.5254
  -5687876.81445  -4317943.73045  23733607.1224   23733610.5324
      1191.7814        928.6614
 98  7  7 16 30  0.0010000  0  8G24G 4G 5G30G10G 8G 9G 6
   6556944.92246   5126456.47446  21437247.2394   21437251.1534
     -2883.6564      -2247.0054
  16855887.92243  13125677.30842  24176903.2084   24176911.4154
     -4300.9064      -3351.3564
  -1164440.17547   -902081.54446  20745911.8884   20745914.1384
     -1400.0314      -1090.9334
 -10253026.95847  -7856771.07746  21497893.4424   21497895.5524
       874.1094        681.1244
  -9868061.86846  -7529751.03645  22667139.5444   22667145.5094
      1335.0634       1040.3084
   7975913.42646   6214992.68145  22761295.3494   22761299.3924
     -3392.2504      -2643.3124
  16648456.19745  12968409.67643  24472474.4504   24472478.7044
     -4179.1874      -3256.5104
  -5705732.22745  -4331857.00945  23730209.3564   23730212.0634
      1188.9844        926.4814
 98  7  7 16 30 15.0010000  0  8G24G 4G 5G30G10G 8G 9G 6
   6600254.08846   5160203.87146  21445488.7864   21445492.6064
     -2890.8754      -2252.6304
  16920423.03042  13175964.44441  24189183.6304   24189187.5214
     -4303.6724      -3353.5114
  -1143361.19947   -885656.37046  20749923.0134   20749925.0994
     -1410.4844      -1099.0794
 -10266077.17347  -7866940.06946  21495409.9894   21495412.3454
       865.9224        674.7444
  -9888026.62046  -7545307.96345  22663340.8804   22663347.0094
      1326.9064       1033.9534
   8026852.55446   6254685.48245  22770988.5524   22770992.7474
     -3399.7034      -2649.1194
  16711161.98545  13017271.28544  24484406.8104   24484409.9154
     -4181.5474      -3258.3484
  -5723547.23145  -4345738.80345  23726819.1924   23726823.9274
      1186.4534        924.5094
 98  7  7 16 30 30.0010000  0  8G24G 4G 5G30G10G 8G 9G 6
   6643674.12047   5194037.65446  21453751.2244   21453754.7984
     -2898.4844      -2258.5594
  16984999.87242  13226284.09441  24201473.1384   24201483.9114
     -4306.6094      -3355.8004
  -1122124.57747   -869108.35146  20753964.1534   20753966.4384
     -1421.0474      -1107.3094
 -10279001.65247  -7877011.07946  21492950.6064   21492952.9504
       857.3284        668.0484
  -9907866.71646  -7560767.75445  22659565.4114   22659570.9664
      1318.4064       1027.3304
   8077907.79046   6294468.75245  22780704.1694   22780708.3534
     -3407.7034      -2655.3534
  16773904.17945  13066161.28744  24496346.8644   24496351.1534
     -4184.0474      -3260.2964
  -5741323.51445  -4359590.41345  23723436.2714   23723440.2314
      1183.6564        922.3304
 98  7  7 16 30 45.0010000  0  8G24G 4G 5G30G10G 8G 9G 6
   6687208.38146   5227960.44246  21462035.6924   21462039.3374
     -2906.1724      -2264.5504
  17049618.98641  13276636.54341  24213768.7474   24213776.1344
     -4309.4374      -3358.0034
  -1100733.26147   -852439.80446  20758034.8414   20758037.0324
     -1431.2814      -1115.2844
 -10291798.07047  -7886982.31246  21490515.6774   21490518.1734
       848.6724        661.3034
  -9927582.20446  -7576130.44945  22655813.4744   22655818.5484
      1310.1564       1020.9014
   8129081.63846   6334344.45545  22790442.3564   22790446.2004
     -3415.6724      -2661.5624
  16836682.31445  13115079.30743  24508292.8334   24508298.2944
     -4186.5164      -3262.2204
  -5759058.68445  -4373409.99245  23720061.7164   23720065.8764
      1180.8914        920.1754
 98  7  7 16 31  0.0010000  0  8G24G 4G 5G30G10G 8G 9G 6
   6730858.12046   5261973.21646  21470341.9194   21470345.9974
     -2913.8124      -2270.5034
  17114283.34241                  24226074.6694
     -4312.6254
  -1079186.39047   -835650.03346  20762135.0604   20762137.6384
     -1441.6564      -1123.3694
 -10304461.53747  -7896849.94146  21488105.9114   21488108.4074
       839.7974        654.3874
  -9947171.95946  -7591395.17445  22652085.5604   22652089.7084
      1301.8444       1014.4244
   8180379.14646   6374316.50945  22800204.0754   22800208.0604
     -3424.0784      -2668.1134
  16899500.88245  13164028.78044  24520246.2784   24520252.0094
     -4189.2034      -3264.3144
  -5776751.40045  -4387196.52645  23716694.9664   23716699.9704
      1178.1884        918.0684
 98  7  7 16 31 15.0010000  0  8G24G 4G 5G30G10G 8G 9G 6
   6774623.67946   5296076.23546  21478669.9114   21478674.0714
     -2921.6094      -2276.5794
  17178998.58741                  24238391.0054
     -4316.1094
  -1057482.51847   -818737.93246  20766265.1534   20766267.8724
     -1452.1254      -1131.5264
 -10316991.19747  -7906613.31346  21485721.3964   21485723.4934
       830.8284        647.3994
  -9966637.12646  -7606562.81345  22648381.5134   22648386.3994
      1293.5314       1007.9464
   8231804.91546   6414388.49645  22809990.0214   22809993.8764
     -3432.6094      -2674.7614
  16962359.19145  13213009.27244  24532207.9974   24532212.3804
     -4191.7974      -3266.3354
  -5794404.94345  -4400952.51545  23713335.7554   23713339.4934
      1175.6724        916.1084
 98  7  7 16 31 30.0010000  0  8G24G 4G 5G30G10G 8G 9G 6
   6818506.72347   5330270.80246  21487020.9744   21487025.0524
     -2929.3914      -2282.6424
  17243766.62441                  24250713.3494
     -4319.5944
  -1035623.73147   -801705.11246  20770424.6854   20770427.2164
     -1462.3284      -1139.4764
 -10329385.82447  -7916271.45446  21483362.8564   21483364.8724
       821.7974        640.3614
  -9985977.43146  -7621633.14845  22644700.9194   22644706.2164
      1285.2034       1001.4574
   8283356.00345   6454558.14945  22819799.8644   22819804.1304
     -3440.8444      -2681.1774
  17025255.32345  13262019.20744  24544176.9274   24544182.5054
     -4194.2974      -3268.2834
  -5812021.44445  -4414679.61845  23709983.2314   23709987.2864
      1173.2344        914.2094
 98  7  7 16 31 45.0010000  0  8G24G 4G 5G30G10G 8G 9G 6
   6862505.74346   5364555.74246  21495393.1694   21495397.2124
     -2937.2974      -2288.8034
  17308588.14541                  24263049.4034
     -4323.2814
  -1013612.42947   -784553.45246  20774613.4114   20774615.8134
     -1472.5944      -1147.4764
 -10341642.78847  -7925822.33546  21481030.4664   21481032.4464
       812.3444        632.9954
 -10005191.97246  -7636605.48945  22641044.9354   22641050.3964
      1276.6414        994.7854
   8335031.75845   6494824.94945  22829633.3724   22829637.6144
     -3449.3754      -2687.8254
  17088189.06445  13311058.47644  24556153.0524   24556158.4664
     -4196.9534      -3270.3534
  -5829599.22045  -4428376.56445  23706638.3024   23706642.5324
      1170.3444        911.9564
 98  7  7 16 32  0.0010000  0  8G24G 4G 5G30G10G 8G 9G 6
   6906620.85846   5398931.14246  21503788.2314   21503792.1104
     -2944.7664      -2294.6234
  17373461.80341                  24275392.0754
     -4326.6564
   -991449.17047   -767283.38546  20778831.0054   20778833.3024
     -1482.5784      -1155.2564
 -10353759.88447  -7935264.21746  21478724.3334   21478726.5364
       803.2504        625.9094
 -10024280.75646  -7651479.85145  22637412.0134   22637418.0014
      1268.5004        988.4424
   8386835.31246   6535191.32445  22839490.9744   22839494.8764
     -3457.8914      -2694.4604
  17151160.58045  13360127.14843  24568136.2474   24568140.5954
     -4199.2814      -3272.1674
  -5847133.55745  -4442039.64945  23703301.4744   23703306.0794
      1167.5474        909.7774
 98  7  7 16 32 15.0010000  0  7G24G 5G30G10G 8G 9G 6
   6950851.32146   5433396.42846  21512204.9744   21512209.0524
     -2952.6094      -2300.7354
   -969133.40547   -749894.48546  20783077.4894   20783079.6344
     -1492.8124      -1163.2314
 -10365737.88847  -7944597.72846  21476445.0364   21476447.3804
       793.8284        618.5674
 -10043244.15546  -7666256.50045  22633803.7394   22633809.0604
      1260.0164        981.8304
   8438771.01546   6575660.67445  22849374.5444   22849378.6344
     -3466.8124      -2701.4124
  17214169.26545  13409224.79443  24580126.1774   24580131.3214
     -4201.7814      -3274.1154
  -5864623.38445  -4455668.05845  23699973.1304   23699977.7714
      1164.5164        907.4154
 98  7  7 16 32 30.0010000  0  7G24G 5G30G10G 8G 9G 6
   6995201.25246   5467954.79946  21520644.9664   21520649.2674
     -2960.6414      -2306.9934
   -946663.64647   -732385.59046  20787353.3804   20787355.9464
     -1503.0944      -1171.2424
 -10377573.07647  -7953819.93846  21474192.8724   21474195.2514
       784.2974        611.1404
 -10062079.86946  -7680933.64845  22630219.6064   22630224.4704
      1251.4694        975.1704
   8490842.39746   6616235.75145  22859282.8804   22859286.6304
     -3475.9534      -2708.5354
  17277214.23744  13458350.73244  24592123.3104   24592128.1264
     -4204.1094      -3275.9294
  -5882068.18445  -4469261.38445  23696653.5134   23696656.8294
      1161.5164        905.0774
 98  7  7 16 32 45.0010000  0  7G24G 5G30G10G 8G 9G 6
   7039669.61246   5502605.46146  21529106.4424   21529110.3334
     -2968.5474      -2313.1534
   -924040.92247   -714757.49846  20791658.1534   20791660.9544
     -1513.3444      -1179.2294
 -10389267.03847  -7962932.11147  21471967.4894   21471969.5874
       774.8914        603.8114
 -10080787.74746  -7695511.18245  22626659.1304   22626664.4034
      1242.8444        968.4504
   8543047.64846   6656915.15545  22869217.3724   22869221.0404
     -3484.7344      -2715.3774
  17340291.48244  13507501.79643  24604126.8804   24604132.3644
     -4206.2664      -3277.6104
  -5899469.26645  -4482820.62845  23693341.9504   23693346.7434
      1158.5634        902.7764
 98  7  7 16 33  0.0010000  0  7G24G 5G30G10G 8G 9G 6
   7084257.17647   5537349.00546  21537591.5754   21537595.3724
     -2976.4374      -2319.3024
   -901260.77847   -697006.73846  20795993.3884   20795996.2004
     -1524.0944      -1187.6064
 -10400819.72347  -7971934.19847  21469769.3804   21469771.4074
       765.5004        596.4944
 -10099364.59246  -7709986.62445  22623124.2634   22623129.6884
      1234.0474        961.5954
   8595384.88045   6697697.38045  22879177.0604   22879181.5364
     -3493.5474      -2722.2444
  17403402.68744  13556679.35343  24616135.7164   24616140.7674
     -4208.5944      -3279.4244
  -5916825.32945  -4496344.82545  23690039.3644   23690044.0874
      1155.5314        900.4144
 98  7  7 16 33 15.0010000  0  7G24G 5G30G10G 8G 9G 6
   7128961.43947   5572183.48846  21546098.6144   21546102.5054
     -2984.1724      -2325.3294
   -878319.53447   -679130.44946  20800358.7084   20800361.4504
     -1534.8124      -1195.9584
 -10412235.15747  -7980829.34447  21467597.0284   21467598.8454
       756.5004        589.4814
 -10117809.63946  -7724359.36745  22619614.3964   22619619.9274
      1225.2034        954.7044
   8647852.13545   6738580.92745  22889161.2634   22889166.6064
     -3502.0784      -2728.8924
  17466546.66244  13605882.42744  24628152.3174   24628157.3924
     -4210.6254      -3281.0064
  -5934135.23045  -4509833.03745  23686745.1924   23686749.8214
      1152.3754        897.9554
 98  7  7 16 33 30.0010000  0  7G24G 5G30G10G 8G 9G 6
   7173778.59847   5607105.93546  21554626.6694   21554630.7004
     -2991.6724      -2331.1734
   -855217.82547   -661129.12446  20804754.7474   20804757.6184
     -1545.6254      -1204.3834
 -10423515.74347  -7989619.40847  21465450.4814   21465452.1464
       747.3754        582.3704
 -10136120.92646  -7738627.88245  22616129.6774   22616135.8644
      1216.0634        947.5814
   8700443.89645   6779561.50745  22899169.3174   22899173.7474
     -3510.3444      -2735.3334
  17529719.03644  13655107.59743  24640173.7554   24640178.3494
     -4212.5784      -3282.5284
  -5951396.88245  -4523283.65545  23683460.3414   23683465.2044
      1148.9224        895.2644
 98  7  7 16 33 45.0010000  0  7G24G 5G30G10G 8G 9G 6
   7218705.18546   5642113.65146  21563175.8414   21563180.2474
     -2998.7034      -2336.6524
   -831954.17147   -643001.60146  20809181.9664   20809184.5914
     -1556.3754      -1212.7604
 -10434660.24647  -7998303.43347  21463329.9744   21463331.7434
       738.3594        575.3454
 -10154295.01346  -7752789.48845  22612671.4974   22612676.9354
      1207.0474        940.5564
   8753158.71046   6820637.95145  22909200.4424   22909205.1654
     -3518.5164      -2741.7004
  17592920.00345  13704355.08743  24652200.1854   24652205.7284
     -4214.4064      -3283.9534
  -5968606.46845  -4536693.70445  23680185.7394   23680190.0634
      1145.5634        892.6464
 98  7  7 16 34  0.0010000  0  7G24G 5G30G10G 8G 9G 6
   7263740.16847   5677205.82646  21571746.0754   21571750.8104
     -3005.9534      -2342.3014
   -808527.25247   -624746.86946  20813639.9584   20813642.5134
     -1567.2664      -1221.2464
 -10445667.29747  -8006880.35047  21461235.2944   21461237.1574
       729.2814        568.2714
 -10172333.87546  -7766845.71245  22609238.5994   22609243.3104
      1198.1884        933.6534
   8805999.62646   6861812.65045  22919255.5914   22919260.1034
     -3526.9224      -2748.2514
  17656151.08744  13753626.01443  24664232.2314   24664239.0404
     -4216.3444      -3285.4634
  -5985765.18745  -4550064.10245  23676920.5524   23676924.9234
      1142.3284        890.1264
 98  7  7 16 34 15.0010000  0  7G24G 5G30G10G 8G 9G 6
   7308882.18847   5712381.40946  21580336.6614   21580340.8564
     -3012.9534      -2347.7564
   -784935.51647   -606363.71246  20818129.3884   20818131.6964
     -1578.2974      -1229.8424
 -10456539.20847  -8015351.96647  21459166.1854   21459168.1424
       720.2974        561.2704
 -10190242.13046  -7780800.19145  22605830.6854   22605835.5604
      1189.5314        926.9074
   8858965.57546   6903084.80045  22929334.6534   22929338.5214
     -3535.1874      -2754.6924
  17719409.58844  13802918.35843  24676270.1534   24676276.3294
     -4218.0784      -3286.8144
  -6002876.46445  -4563397.54545  23673664.5524   23673668.9814
      1139.2034        887.6914
 98  7  7 16 34 30.0010000  0  7G24G 5G30G10G 8G 9G 6
   7354128.82646   5747638.52046  21588945.8644   21588949.6494
     -3019.8594      -2353.1374
   -761179.18047   -587852.28746  20822649.9194   20822652.6614
     -1589.1414      -1238.2914
 -10467275.98747  -8023718.28147  21457123.2554   21457125.3414
       711.3594        554.3064
 -10208018.45746  -7794651.83745  22602448.2164   22602452.7634
      1180.7034        920.0284
   8912054.12545   6944452.46145  22939437.1224   22939441.5754
     -3543.2034      -2760.9374
  17782693.69044  13852230.55643  24688313.4424   24688318.0364
     -4219.7344      -3288.1054
  -6019940.77045  -4576694.38445  23670417.1774   23670420.9384
      1136.0944        885.2684
 98  7  7 16 34 45.0020000  0  7G24G 5G30G10G 8G 9G 6
   7399479.19947   5782976.46046  21597576.2754   21597579.6864
     -3026.4374      -2358.2634
   -737259.75347   -569213.78146  20827201.5644   20827204.5764
     -1599.8914      -1246.6684
 -10477882.46147  -8031983.06247  21455104.9164   21455107.0614
       702.7664        547.6104
 -10225664.04546  -7808401.62045  22599090.0494   22599095.0414
      1171.8754        913.1494
   8965264.44145   6985915.01845  22949562.6354   22949567.1464
     -3550.9694      -2766.9894
  17846007.09744  13901565.69043  24700361.5644   24700366.9674
     -4221.4534      -3289.4444
  -6036960.15345  -4589956.21645  23667178.5184   23667182.5614
      1132.9844        882.8454
 98  7  7 16 35  0.0020000  0  7G24G 5G30G10G 8G 9G 6
   7444925.58246   5818389.20946  21606224.4394   21606228.4124
     -3033.0474      -2363.4134
   -713179.90247   -550450.26346  20831784.0334   20831787.1154
     -1610.7034      -1255.0934
 -10488357.87247  -8040145.71347  21453111.4474   21453113.4864
       694.0004        540.7794
 -10243175.00746  -7822046.49845  22595758.1044   22595762.9674
      1162.9844        906.2224
   9018586.12646   7027464.35745  22959709.7604   22959715.0454
     -3558.5784      -2772.9184
  17909344.39944  13950919.39543  24712413.9474   24712419.3384
     -4223.4694      -3291.0154
  -6053930.99645  -4603180.23345  23663949.0334   23663954.1314
      1129.8594        880.4104
 98  7  7 16 35 15.0020000  0  7G24G 5G30G10G 8G 9G 6
   7490469.10146   5853877.65246  21614891.3464   21614895.0024
     -3039.4534      -2368.4054
   -688939.40547   -531561.56946  20836396.7754   20836400.0454
     -1621.3754      -1263.4094
 -10498703.40247  -8048207.15847  21451142.8304   21451145.0924
       685.3134        534.0104
 -10260555.45846  -7835589.67645  22592450.2754   22592455.4204
      1154.3594        899.5014
   9072020.93045   7069101.84045  22969878.0104   22969882.9904
     -3566.1254      -2778.7994
  17972709.86444  14000295.07843  24724472.2604   24724476.2444
     -4225.2814      -3292.4274
  -6070856.39145  -4616368.83245  23660728.2214   23660733.5644
      1126.8284        878.0484
 98  7  7 16 35 30.0020000  0  7G24G 5G30G10G 8G 9G 6
   7536108.39347   5889440.72346  21623576.3074   21623580.1154
     -3045.8284      -2373.3734
   -664540.14847   -512549.16846  20841039.8694   20841042.9634
     -1631.9064      -1271.6154
 -10508916.41347  -8056165.34247  21449199.1894   21449201.2994
       676.3284        527.0094
 -10277805.10046  -7849030.92045  22589168.1044   22589173.5644
      1145.5474        892.6344
   9125568.63746   7110827.29545  22980067.7684   22980071.4714
     -3573.6094      -2784.6314
  18036102.38944  14049691.76943  24736534.9944   24736539.5884
     -4227.0474      -3293.8034
  -6087736.30745  -4629521.99145  23657515.8144   23657520.6194
      1123.8444        875.7224
 98  7  7 16 35 45.0020000  0  7G24G 5G30G10G 8G 9G 6
   7581844.63147   5925079.33246  21632279.5024   21632283.4164
     -3052.3914      -2378.4864
   -639983.25947   -493413.93646  20845712.7214   20845715.7214
     -1642.3284      -1279.7364
 -10518992.77247  -8064017.04547  21447281.9244   21447284.0214
       667.2034        519.8994
 -10294923.04446  -7862369.55146  22585910.5494   22585915.6114
      1136.8754        885.8774
   9179228.78146   7152640.35145  22990278.7054   22990282.4554
     -3581.1254      -2790.4874
  18099521.31344  14099109.09443  24748603.0804   24748608.2254
     -4228.8284      -3295.1914
  -6104573.74845  -4642642.04245  23654312.0724   23654316.7604
      1121.2034        873.6654
 98  7  7 16 36  0.0020000  0  7G24G 5G30G10G 8G 9G 6
   7627680.85146   5960795.85746  21641001.7604   21641005.7794
     -3059.0944      -2383.7094
   -615271.14547   -474157.75546  20850415.4164   20850418.1114
     -1652.5314      -1287.6874
 -10528932.49147  -8071762.27447  21445390.5024   21445392.5414
       658.1724        512.8614
 -10311911.93546  -7875607.61145  22582677.3614   22582682.8224
      1128.4064        879.2784
   9233002.90946   7194542.25045  23000511.9864   23000516.3344
     -3588.7344      -2796.4164
  18162967.06644  14148547.32243  24760676.1744   24760680.9904
     -4230.5314      -3296.5184
  -6121373.32345  -4655732.60345  23651115.1824   23651119.1074
      1118.8134        871.8024
 98  7  7 16 36 15.0020000  0  7G24G 5G30G10G 8G 9G 6
   7673617.85447   5996590.90646  21649743.3384   21649747.2874
     -3065.7974      -2388.9334
   -590406.85747   -454782.98446  20855146.7054   20855149.4944
     -1662.7194      -1295.6254
 -10538738.80247  -8079403.55147  21443524.3694   21443526.3144
       649.3444        505.9824
 -10328772.60046  -7888745.76345  22579469.1044   22579474.8224
      1119.6094        872.4234
   9286889.62545   7236531.87145  23010766.2994   23010770.0614
     -3596.1094      -2802.1634
  18226436.73444  14198004.16443  24772753.4324   24772757.1004
     -4232.0624      -3297.7114
  -6138136.66745  -4668794.91945  23647924.9944   23647928.7794
      1116.3134        869.8544
 98  7  7 16 36 30.0020000  0  7G24G 5G30G10G 8G 9G 6
   7719652.86346   6032462.33446  21658503.5184   21658507.2564
     -3072.2344      -2393.9494
   -565392.03947   -435290.92746  20859907.2754   20859909.7364
     -1672.5624      -1303.2954
 -10548413.14147  -8086941.99347  21441683.4244   21441685.5804
       640.5634        499.1404
 -10345500.65046  -7901780.56346  22576286.1354   22576290.8574
      1110.6724        865.4594
   9340883.87445   7278605.27645  23021041.0884   23021045.3654
     -3603.1564      -2807.6544
  18289928.98045  14247478.60243  24784837.3304   24784842.8144
     -4233.5624      -3298.8804
  -6154863.25245  -4681828.62545  23644742.2054   23644745.5574
      1114.0164        868.0644
 98  7  7 16 36 45.0020000  0  7G24G 5G30G10G 8G 9G 6
   7765785.38547   6068409.73946  21667282.4164   21667286.0614
     -3078.8594      -2399.1114
   -540230.49447   -415684.53846  20864695.2444   20864697.8574
     -1682.4374      -1310.9904
 -10557955.66547  -8094377.72047  21439867.4474   21439869.6154
       631.6724        492.2124
 -10362093.28146  -7914709.86645  22573128.5104   22573133.0214
      1101.6564        858.4334
   9394982.65846   7320760.12945  23031336.0414   23031340.5764
     -3610.1094      -2813.0724
  18353444.07944  14296970.84843  24796923.1434   24796928.2404
     -4235.2194      -3300.1704
  -6171556.89645  -4694836.60845  23641565.4244   23641568.8114
      1111.7974        866.3354
 98  7  7 16 37  0.0020000  0  7G24G 5G30G10G 8G 9G 6
   7812018.85846   6104435.80546  21676079.7604   21676083.4864
     -3085.5784      -2404.3474
   -514918.42647   -395960.85746  20869511.8144   20869514.4754
     -1692.4694      -1318.8074
 -10567362.75147  -8101707.91147  21438077.4084   21438079.6704
       622.5784        485.1264
 -10378552.19046  -7927534.94445  22569996.2834   22570000.5144
      1092.8754        851.5914
   9449185.79046   7362996.29345  23041650.2754   23041654.0844
     -3616.9224      -2818.3814
  18416985.44944  14346483.59543  24809014.1274   24809019.0144
     -4236.9534      -3301.5224
  -6188217.81745  -4707819.13245  23638394.7524   23638398.1154
      1109.6414        864.6554
 98  7  7 16 37 15.0020000  0  7G24G 5G30G10G 8G 9G 6
   7858353.47846   6140540.69046  21684896.6974   21684901.0104
     -3092.3594      -2409.6314
   -489456.62247   -376120.50046  20874357.0804   20874359.5064
     -1702.4534      -1326.5874
 -10576632.11647  -8108930.79147  21436313.2524   21436315.5614
       613.3134        477.9064
 -10394879.64246  -7940257.59846  22566889.2914   22566893.9554
      1084.0944        844.7484
   9503492.72846   7405313.34745  23051985.0024   23051988.7294
     -3624.0474      -2823.9334
  18480552.07043  14396015.98643  24821110.7604   24821117.1004
     -4238.6414      -3302.8374
  -6204844.98645  -4720775.33745  23635230.9394   23635234.3034
      1107.2664        862.8044
 98  7  7 16 37 30.0020000  0  7G24G 5G30G10G 8G 9G 6
   7904786.55446   6176722.28746  21693733.1894   21693737.3614
     -3098.8284      -2414.6714
   -463848.00447   -356165.74146  20879230.2134   20879232.5454
     -1712.1254      -1334.1234
 -10585764.23947  -8116046.72447  21434575.6894   21434578.1744
       604.1564        470.7714
 -10411077.08746  -7952878.94746  22563806.7524   22563811.5334
      1075.4534        838.0154
   9557904.74645   7447712.28945  23062339.0414   23062343.3894
     -3630.9694      -2829.3264
  18544141.84743  14445566.42743  24833211.2524   24833217.5804
     -4240.0944      -3303.9694
  -6221437.07045  -4733704.21845  23632073.3464   23632077.2014
      1104.9224        860.9784
 98  7  7 16 37 45.0020000  0  7G24G 5G30G10G 8G 9G 6
   7951317.79846   6212980.38146  21702587.6894   21702591.5804
     -3105.4224      -2419.8094
   -438094.12647   -336097.79246  20884131.2134   20884133.7684
     -1721.8284      -1341.6844
 -10594757.33947  -8123054.33147  21432864.3074   21432866.6154
       594.9064        463.5634
 -10427143.81846  -7965398.44546  22560749.4394   22560754.6784
      1066.7194        831.2094
   9612420.95245   7490192.40345  23072712.8304   23072717.5184
     -3637.9374      -2834.7564
  18607755.64944  14495135.56543  24845316.5724   24845322.3964
     -4241.7504      -3305.2604
  -6237993.22945  -4746605.11145  23628922.8694   23628927.0294
      1102.5474        859.1274
 98  7  7 16 38  0.0020000  0  7G24G 5G30G10G 8G 9G 6
   7997948.58246   6249316.04746  21711461.0644   21711464.6744
     -3111.9534      -2424.8994
   -412192.62647   -315914.81346  20889059.7054   20889062.3654
     -1731.7034      -1349.3794
 -10603611.96147  -8129954.03447  21431179.3614   21431181.9514
       585.7664        456.4414
 -10443079.53646  -7977815.85946  22557717.0254   22557722.1354
      1058.0474        824.4524
   9667042.44245   7532754.57245  23083107.4164   23083111.8934
     -3644.9534      -2840.2234
  18671394.30144  14544724.10443  24857427.5724   24857432.2014
     -4243.4064      -3306.5504
  -6254514.02245  -4759478.43345  23625779.3854   23625783.6864
      1100.2194        857.3134
 98  7  7 16 38 15.0020000  0  7G24G 5G30G10G 8G 9G 6
   8044675.92847   6285726.95246  21720353.3304   21720357.4084
     -3118.3594      -2429.8904
   -386141.70847   -295615.40646  20894017.3464   20894020.2294
     -1741.7814      -1357.2324
 -10612330.51847  -8136747.70747  21429520.2364   21429522.4984
       576.6884        449.3674
 -10458884.39246  -7990131.29446  22554709.5254   22554714.3304
      1049.2504        817.5974
   9721768.86145   7575398.50745  23093521.3304   23093526.0534
     -3651.8914      -2845.6294
  18735058.94444  14594332.86743  24869542.2754   24869546.9754
     -4245.1724      -3307.9264
  -6270998.06045  -4772323.11045  23622642.7364   23622646.8384
      1097.6414        855.3044
 98  7  7 16 38 30.0020000  0  7G24G 5G30G10G 8G 9G 6
   8091500.83146   6322213.87546  21729263.4794   21729268.1314
     -3124.8914      -2434.9804
   -359935.68047   -275195.13646  20899004.1824   20899006.8074
     -1752.3444      -1365.4634
 -10620910.89447  -8143433.70747  21427887.5494   21427889.9394
       567.3594        442.0984
 -10474554.83346  -8002341.98646  22551727.4634   22551732.2914
      1040.2504        810.5844
   9776600.21245   7618124.19945  23103955.3074   23103960.6864
     -3658.9224      -2851.1084
  18798752.04544  14643963.85842  24881662.0644   24881666.8464
     -4247.1724      -3309.4854
  -6287441.13145  -4785135.86945  23619513.2994   23619518.2094
      1094.8284        853.1134
 98  7  7 16 38 45.0020000  0  7G24G 5G30G10G 8G 9G 6
   8138423.62746   6358777.07146  21738193.1274   21738197.2644
     -3131.4844      -2440.1184
   -333570.40347   -254650.77546  20904021.3304   20904024.0254
     -1763.0314      -1373.7914
 -10629350.56747  -8150010.07447  21426281.3774   21426284.0254
       557.9384        434.7564
 -10490092.35546  -8014449.11646  22548770.9394   22548776.4714
      1031.4064        803.6934
   9831537.93646   7660932.78345  23114409.8144   23114414.0804
     -3666.1094      -2856.7094
  18862474.90044  14693617.99743  24893789.5804   24893794.9714
     -4249.1564      -3311.0314
  -6303842.45145  -4797916.09245  23616392.1824   23616395.9904
      1092.0004        850.9094
 98  7  7 16 39  0.0020000  0  7G24G 5G30G10G 8G 9G 6
   8185444.94946   6395417.05046  21747141.2604   21747145.2094
     -3138.0944      -2445.2684
   -307045.25647   -233981.83746  20909068.8934   20909071.9044
     -1773.6564      -1382.0704
 -10637648.96647  -8156476.35447  21424702.1664   21424704.6274
       548.4694        427.3784
 -10505498.61346  -8026453.94446  22545838.9004   22545844.0574
      1022.7504        796.9484
   9886582.69645   7703824.75845  23124883.9794   23124888.0574
     -3673.2344      -2862.2614
  18926225.78544  14743293.91743  24905920.0884   24905923.6624
     -4250.9534      -3312.4314
  -6320200.64345  -4810662.72345  23613279.3224   23613283.2834
      1089.0784        848.6324
 98  7  7 16 39 15.0020000  0  7G24G 5G30G10G 8G 9G 6
   8232564.55346   6432133.60346  21756107.2834   21756111.6194
     -3144.5474      -2450.2964
   -280363.13147   -213190.57946  20914146.4164   20914149.3224
     -1783.9374      -1390.0814
 -10645807.26147  -8162833.46347  21423149.8694   21423151.8264
       539.2974        420.2314
 -10520775.08846  -8038357.66246  22542931.8144   22542936.7714
      1014.0314        790.1544
   9941735.09645   7746800.63045  23135379.2444   23135383.2994
     -3680.4534      -2867.8864
  18990001.78044  14792989.52043  24918055.6744   24918061.0064
     -4252.4844      -3313.6244
  -6336514.78245  -4823375.01245  23610175.0024   23610178.6234
      1086.1094        846.3194
 98  7  7 16 39 30.0020000  0  7G24G 5G30G10G 8G 9G 6
   8279781.87946   6468926.30946  21765092.4634   21765096.5644
     -3151.1724      -2455.4594
   -253525.77947   -192278.36346  20919253.3224   20919256.1114
     -1794.4694      -1398.2874
 -10653826.75847  -8169082.41447  21421623.8774   21421625.8114
       529.8754        412.8904
 -10535918.60346  -8050157.76346  22540049.9474   22540054.7994
      1005.0314        783.1414
   9996998.36645   7789862.88245  23145895.8224   23145900.1234
     -3687.9694      -2873.7424
  19053800.75244  14842702.94743  24930196.6744   24930201.1394
     -4254.0624      -3314.8544
  -6352784.28345  -4836052.52445  23607079.2524   23607084.1624
      1083.1564        844.0184
 98  7  7 16 39 45.0020000  0  7G24G 5G30G10G 8G 9G 6
   8327099.45646   6505797.12546  21774096.8074   21774101.1194
     -3157.8754      -2460.6824
   -226528.40747   -171241.46046  20924390.8144   20924393.8614
     -1805.2344      -1406.6764
 -10661703.85847  -8175220.41447  21420124.9864   21420127.0724
       520.3594        405.4754
 -10550925.24146  -8061851.21746  22537194.5884   22537199.6154
       995.8444        775.9824
  10052373.18645   7833012.06445  23156433.4004   23156437.9714
     -3695.3594      -2879.5014
  19117622.90244  14892434.44643  24942342.5574   24942347.1274
     -4255.5314      -3315.9984
  -6369011.31745  -4848696.94145  23603990.8854   23603995.5614
      1080.4534        841.9124
 98  7  7 16 40  0.0020000  0  7G24G 5G30G10G 8G 9G 6
   8374518.62646   6542747.11246  21783119.9634   21783124.4284
     -3164.7194      -2466.0154
   -199367.38947   -150077.04146  20929559.2134   20929562.2714
     -1816.2814      -1415.2844
 -10669438.09147  -8181247.08447  21418652.9004   21418655.1394
       510.8754        398.0844
 -10565793.41846  -8073436.77846  22534365.2294   22534371.0534
       986.5634        768.7504
  10107859.08245   7876247.79645  23166992.6354   23166997.0764
     -3702.7504      -2885.2604
  19181467.93144  14942183.76542  24954490.5024   24954494.1234
     -4257.0314      -3317.1674
  -6385198.22445  -4861310.10045  23600910.2214   23600914.2294
      1077.7814        839.8304
 98  7  7 16 40 15.0020000  0  7G24G 5G30G10G 8G 9G 6
   8422039.18046   6579776.10046  21792163.1354   21792167.3654
     -3171.4534      -2471.2624
   -172042.46647   -128784.90446  20934759.2054   20934762.1464
     -1827.0164      -1423.6494
 -10677031.43147  -8187163.96647  21417208.1434   21417210.4044
       501.5164        390.7914
 -10580523.32846  -8084914.59746  22531562.0964   22531567.7564
       977.4064        761.6154
  10163454.81445   7919569.11845  23177571.3774   23177576.1114
     -3710.0314      -2890.9334
  19245332.47745  14991948.29942  24966645.0884   24966650.8074
     -4258.3284      -3318.1784
  -6401344.18945  -4873891.35545  23597838.0884   23597842.1434
      1074.9064        837.5894
 98  7  7 16 40 30.0020000  0  7G24G 5G30G10G 8G 9G 6
   8469663.01446   6616885.56746  21801226.0254   21801229.9864
     -3178.2974      -2476.5954
   -144557.56947   -107368.10546  20939989.2294   20939992.0644
     -1837.5004      -1431.8184
 -10684482.19347  -8192969.75347  21415790.3144   21415792.2714
       492.0164        383.3894
 -10595115.54046  -8096285.12846  22528785.5024   22528790.3654
       968.2974        754.5174
  10219160.73045   7962976.29045  23188172.2054   23188177.2444
     -3717.2504      -2896.5584
  19309217.73944  15041729.00443  24978801.1354   24978804.4164
     -4259.5314      -3319.1154
  -6417444.90345  -4886437.34245  23594774.0494   23594777.1314
      1072.0004        835.3254
 98  7  7 16 40 45.0020000  0  7G24G 5G30G10G 8G 9G 6
   8517389.73346   6654075.20046  21810307.7834   21810311.7324
     -3185.2504      -2482.0134
   -116916.16247    -85829.35646  20945249.4394   20945252.1114
     -1847.8754      -1439.9034
 -10691788.79547  -8198663.20147  21414399.6824   21414401.5804
       482.1884        375.7314
 -10609569.97046  -8107548.28546  22526034.7364   22526039.7524
       959.0314        747.2974
  10274975.17545   8006468.03745  23198793.2834   23198798.4984
     -3724.6414      -2902.3174
  19373120.60044  15091523.39242  24990961.4324   24990965.3344
     -4260.7664      -3320.0774
  -6433502.71745  -4898949.90545  23591718.9944   23591722.3114
      1069.1094        833.0724
 98  7  7 16 41  0.0020000  0  7G24G 5G30G10G 8G 9G 6
   8565217.91346   6691343.89646  21819409.2834   21819413.5614
     -3191.9534      -2487.2364
    -89125.19847    -64174.07046  20950537.7754   20950540.4594
     -1857.6724      -1447.5374
 -10698949.95147  -8204243.31647  21413036.9864   21413038.8144
       472.5314        368.2064
 -10623888.97846  -8118705.91346  22523309.7364   22523314.1314
       950.0474        740.2964
  10330896.73745   8050043.23445  23209434.9864   23209439.4864
     -3731.6874      -2907.8084
  19437038.53544  15141329.54043  25003124.0644   25003127.7794
     -4261.7194      -3320.8204
  -6449521.79645  -4911432.28045  23588670.4794   23588674.1114
      1066.6564        831.1614
 98  7  7 16 41 15.0020000  0  7G24G 5G30G10G 8G 9G 6
   8613147.03146   6728691.24746  21828529.7134   21828533.5104
     -3198.5474      -2492.3744
    -61186.99647    -42404.05046  20955854.0884   20955856.7484
     -1867.4064      -1455.1224
 -10705966.64447  -8209710.86647  21411701.7834   21411703.7174
       463.0944        360.8524
 -10638072.61446  -8129758.06146  22520610.6974   22520616.0294
       941.1414        733.3564
  10386923.82245   8093700.67645  23220096.3934   23220101.3034
     -3738.5624      -2913.1664
  19500971.97044  15191147.74542  25015290.8614   25015295.7834
     -4262.6724      -3321.5624
  -6465504.54845  -4923886.35245  23585628.9394   23585632.7134
      1064.4534        829.4444
 98  7  7 16 41 30.0020000  0  7G24G 5G30G10G 8G 9G 6
   8661174.18547   6766114.99046  21837669.2364   21837673.2564
     -3205.0164      -2497.4154
    -33100.44747    -20518.43846  20961198.8464   20961201.6934
     -1877.5004      -1462.9874
 -10712841.32447  -8215067.75147  21410393.5414   21410395.4984
       453.5474        353.4134
 -10652121.41346  -8140705.16346  22517937.2134   22517942.6974
       932.0784        726.2954
  10443054.39845   8137438.75545  23230777.7214   23230782.0574
     -3745.3914      -2918.4864
  19564920.29043  15240977.56242  25027460.4554   25027467.9364
     -4263.7194      -3322.3784
  -6481454.09145  -4936314.53145  23582593.5184   23582597.1744
      1062.1884        827.6794
 98  7  7 16 41 45.0020000  0  7G24G 5G30G10G 8G 9G 6
   8709298.18946   6803614.20146  21846826.9394   21846831.0644
     -3211.4534      -2502.4314
     -4860.62447      1486.61746  20966572.7604   20966575.9124
     -1887.7664      -1470.9864
 -10719570.96747  -8220311.61847  21409112.6894   21409114.7524
       443.8284        345.8404
 -10666034.25846  -8151546.31446  22515289.9004   22515295.9004
       922.9534        719.1844
  10499285.38945   8181255.08145  23241478.0724   23241482.8544
     -3751.9844      -2923.6244
  19628884.80444  15290820.00443  25039633.2754   25039638.7834
     -4264.8284      -3323.2434
  -6497369.71345  -4948716.30045  23579565.0494   23579569.5144
      1059.9844        825.9624
 98  7  7 16 42  0.0020000  0  7G24G 5G30G10G 8G 9G 6
   8757518.05646   6841188.10246  21856002.9004   21856007.1784
     -3217.8284      -2507.3994
     23531.44847     23610.29646  20971975.5024   20971978.6784
     -1897.8124      -1478.8154
 -10726157.79147  -8225444.20547  21407859.3304   21407861.4284
       434.4844        338.5594
 -10679810.40646  -8162280.94946  22512668.3854   22512673.8814
       913.9844        712.1964
  10555612.97945   8225146.68945  23252197.2444   23252201.4284
     -3758.3284      -2928.5674
  19692865.75744  15340675.26842  25051807.1114   25051813.0414
     -4265.9224      -3324.0954
  -6513254.07345  -4961093.71145  23576542.5024   23576546.3694
      1057.9224        824.3554
 98  7  7 16 42 15.0020000  0  7G24G 5G30G10G 8G 9G 6
   8805833.90746   6878836.80446  21865197.2294   21865201.1314
     -3224.3284      -2512.4634
     52073.66947     45850.98146  20977407.0724   20977410.1664
     -1907.8284      -1486.6194
 -10732604.36247  -8230467.50047  21406632.7214   21406634.9594
       425.0314        331.1934
 -10693452.80946  -8172911.35646  22510072.2604   22510076.8304
       904.9224        705.1344
  10612036.26445   8269112.84845  23262933.9794   23262937.8574
     -3764.8594      -2933.6574
  19756864.17044  15390544.14442  25063986.2684   25063991.8344
     -4267.2344      -3325.1184
  -6529105.51145  -4973445.45945  23573525.9004   23573530.7174
      1055.5784        822.5284
 98  7  7 16 42 30.0020000  0  7G24G 5G30G10G 8G 9G 6
   8854246.81046   6916561.13146  21874409.8224   21874413.6194
     -3230.6724      -2517.4074
     80764.43147     68207.41146  20982866.6894   20982869.5494
     -1917.5944      -1494.2294
 -10738909.36447  -8235380.48247  21405433.0724   21405435.0294
       415.6414        323.8764
 -10706959.36646  -8183435.90946  22507502.0644   22507506.5294
       895.9384        698.1334
  10668557.48045   8313155.31345  23273689.7754   23273694.0764
     -3771.2974      -2938.6734
  19820881.99944  15440428.09442  25076167.7834   25076173.2324
     -4268.4694      -3326.0804
  -6544922.45745  -4985770.33145  23570515.8854   23570520.9474
      1053.4224        820.8484
 98  7  7 16 42 45.0020000  0  7G24G 5G30G10G 8G 9G 6
   8902755.35946   6954359.98346  21883640.5574   21883644.5184
     -3237.1564      -2522.4594
    109604.94247     90680.52846  20988354.8854   20988357.4984
     -1927.9064      -1502.2654
 -10745072.42147  -8240182.85347  21404260.4004   21404262.2994
       406.0474        316.4004
 -10720328.42146  -8193853.32846  22504957.9244   22504962.7404
       886.5164        690.7914
  10725175.96545   8357273.58345  23284463.6584   23284466.9634
     -3777.8754      -2943.7994
  19884918.12744  15490326.30343  25088353.7604   25088358.6824
     -4269.6724      -3327.0174
  -6560708.82845  -4998071.38245  23567511.7214   23567516.1044
      1051.3754        819.2534
 98  7  7 16 43  0.0020000  0  7G24G 5G30G10G 8G 9G 6
   8951358.49346   6992232.53846  21892889.5884   21892893.6894
     -3243.2664      -2527.2204
    138599.65547    113273.79746  20993872.5884   20993875.1664
     -1938.1564      -1510.2524
 -10751093.05447  -8244874.25247  21403114.6584   21403116.6154
       396.6724        309.0954
 -10733558.10246  -8204162.14346  22502440.5334   22502445.0574
       877.4534        683.7304
  10781892.43745   8401468.21045  23295256.8464   23295260.8654
     -3784.3594      -2948.8514
  19948970.09544  15540236.86842  25100542.8224   25100548.9284
     -4270.6254      -3327.7604
  -6576464.80745  -5010348.74645  23564513.2994   23564517.3654
      1049.3594        817.6834
 98  7  7 16 43 15.0020000  0  7G24G 5G30G10G 8G 9G 6
   9000053.14546   7030176.40946  21902155.8774   21902159.8034
     -3249.3754      -2531.9814
    167750.83947    135988.98946  20999419.5964   20999422.4904
     -1948.7974      -1518.5434
 -10756973.43847  -8249456.36547  21401995.4634   21401997.4794
       387.3754        301.8514
 -10746651.82446  -8214365.01846  22499948.8224   22499953.3814
       868.2814        676.5834
  10838706.61345   8445738.96645  23306068.0724   23306071.9284
     -3790.9224      -2953.9654
  20013036.01844  15590158.33843  25112733.5254   25112739.6544
     -4271.5784      -3328.5024
  -6592188.47845  -5022600.94145  23561521.5574   23561525.5884
      1046.9534        815.8084
 98  7  7 16 43 30.0020000  0  7G24G 5G30G10G 8G 9G 6
   9048838.48046   7068190.94346  21911439.5494   21911443.2054
     -3255.3284      -2536.6194
    197062.75547    158829.43546  21004997.4634   21005000.4394
     -1959.4534      -1526.8474
 -10762715.98747  -8253931.07047  21400902.6274   21400904.7134
       378.2344        294.7284
 -10759607.03046  -8224459.94746  22497483.5724   22497488.2134
       859.0784        669.4124
  10895618.17345   8490085.60445  23316897.9084   23316901.9634
     -3797.3124      -2958.9454
  20077115.31943  15640090.25642  25124928.5414   25124934.7294
     -4272.2974      -3329.0624
  -6607874.47445  -5034823.76745  23558536.5334   23558540.2484
      1044.4844        813.8844
 98  7  7 16 43 45.0020000  0  7G24G 5G30G10G 8G 9G 6
   9097713.86847   7106275.64546  21920740.2994   21920744.1544
     -3261.4694      -2541.4044
    226535.45547    181795.16746  21010605.9324   21010608.8264
     -1970.2504      -1535.2604
 -10768318.54447  -8258296.69146  21399836.4634   21399838.6434
       368.7344        287.3254
 -10772422.37446  -8234445.89746  22495044.6434   22495049.1784
       849.5944        662.0214
  10952628.07745   8534508.88845  23327746.6744   23327750.9864
     -3804.0624      -2964.2054
  20141206.20743  15690031.15143  25137123.9004   25137127.4394
     -4273.1874      -3329.7564
  -6623520.09545  -5047015.13345  23555559.1274   23555562.3734
      1041.5314        811.5834
 98  7  7 16 44  0.0020000  0  7G24G 5G30G10G 8G 9G 6
   9146679.68546   7144430.80946  21930057.9324   21930062.1864
     -3267.4224      -2546.0434
    256165.39347    204883.42046  21016244.4944   21016247.4944
     -1980.4844      -1543.2354
 -10773782.94747  -8262554.66547  21398796.6114   21398798.7914
       359.7344        280.3134
 -10785098.09446  -8244323.06046  22492632.3934   22492637.0684
       840.4064        654.8624
  11009737.96045   8579010.05145  23338614.5024   23338619.5294
     -3810.6874      -2969.3674
  20205307.06443  15739979.78542  25149323.3304   25149328.1934
     -4273.6564      -3330.1224
  -6639123.80945  -5059173.85145  23552589.4004   23552592.4714
      1038.8594        809.5014
 98  7  7 16 44 15.0020000  0  7G24G 5G30G10G 8G 9G 6
   9195736.40046   7182656.80246  21939392.7914   21939397.3384
     -3273.3124      -2550.6334
    285950.19847    228092.34946  21021912.1194   21021914.8614
     -1990.6724      -1551.1734
 -10779109.64247  -8266705.32347  21397782.8614   21397785.1464
       350.5944        273.1904
 -10797635.77046  -8254092.65046  22490246.5254   22490251.6464
       831.4064        647.8494
  11066949.97045   8623590.80345  23349501.8774   23349506.3424
     -3817.4534      -2974.6394
  20269416.35843  15789935.03142  25161521.3774   25161527.0844
     -4274.0474      -3330.4264
  -6654682.98445  -5071297.85245  23549629.0104   23549632.0684
      1035.7194        807.0544
 98  7  7 16 44 30.0020000  0  7G24G 5G30G10G 8G 9G 6
   9244880.14446   7220950.60246  21948744.6434   21948749.1664
     -3279.0624      -2555.1144
    315887.20247    251419.87646  21027609.0884   21027611.8074
     -2000.7974      -1559.0624
 -10784298.07147  -8270748.24946  21396795.6114   21396797.8144
       341.3284        265.9704
 -10810036.92546  -8263755.85846  22487886.9324   22487891.9824
       822.1884        640.6664
  11124263.05745   8668250.31745  23360407.8614   23360412.0924
     -3824.1564      -2979.8624
  20333530.27943  15839893.94342  25173721.8224   25173729.0924
     -4274.2814      -3330.6094
  -6670193.66145  -5083384.08545  23546677.1584   23546680.9674
      1032.5164        804.5584
 98  7  7 16 44 45.0020000  0  7G24G 5G30G10G 8G 9G 6
   9294108.59746   7259310.42546  21958112.6504   21958116.9044
     -3284.8914      -2559.6554
    345976.63847    274866.17646  21033335.2444   21033337.9754
     -2011.2664      -1567.2204
 -10789347.47547  -8274682.84347  21395834.6664   21395836.8114
       331.7974        258.5434
 -10822300.48746  -8273311.86846  22485553.3384   22485558.6584
       812.8284        633.3734
  11181675.60045   8712987.32745  23371333.2134   23371337.6194
     -3830.9374      -2985.1464
  20397644.19743  15889852.77442  25185923.4164   25185928.0334
     -4274.3594      -3330.6704
  -6685656.46945  -5095432.99245  23543735.1114   23543738.9794
      1029.0944        801.8914
 98  7  7 16 45  0.0020000  0  7G24G 5G30G10G 8G 9G 6
   9343422.98746   7297737.21046  21967496.5574   21967500.8814
     -3290.5314      -2564.0504
    376223.27947    298434.97646  21039090.7914   21039093.6744
     -2021.7194      -1575.3654
 -10794254.03447  -8278506.12847  21394900.9944   21394903.2564
       322.2814        251.1284
 -10834425.22446  -8282759.69046  22483245.5724   22483250.4004
       803.6564        626.2264
  11239188.38045   8757802.44145  23382277.2604   23382281.1044
     -3837.6254      -2990.3574
  20461760.38943  15939813.39443  25198124.2294   25198130.9204
     -4274.6094      -3330.8644
  -6701068.35445  -5107442.23845  23540802.5644   23540806.0574
      1025.6094        799.1764
 98  7  7 16 45 15.0020000  0  7G24G 5G30G10G 8G 9G 6
   9392821.17946   7336229.28546  21976896.8694   21976901.3934
     -3296.0164      -2568.3244
    406624.03747    322123.86546  21044875.6504   21044878.3814
     -2031.7814      -1583.2064
 -10799019.84147  -8282219.73947  21393994.2604   21393996.3344
       313.0634        243.9454
 -10846413.27546  -8292101.00046  22480964.6664   22480969.4944
       794.6414        619.2004
  11296801.52845   8802695.78045  23393241.3304   23393245.1504
     -3844.1254      -2995.4224
  20525880.13343  15989776.77543  25210325.7604   25210331.6074
     -4274.8284      -3331.0354
  -6716428.10445  -5119410.85645  23537879.5884   23537883.3734
      1022.3284        796.6194
 98  7  7 16 45 30.0020000  0  7G24G 5G30G10G 8G 9G 6
   9442304.53246   7374787.72746  21986313.8544   21986318.2834
     -3301.7814      -2572.8174
    437176.38547    345930.87846  21050689.4714   21050692.0724
     -2041.8124      -1591.0234
 -10803645.63447  -8285824.24547  21393113.9794   21393116.1824
       303.7344        236.6764
 -10858261.48146  -8301333.34046  22478710.0254   22478715.1464
       785.1254        611.7864
  11354512.14145   8847665.05845  23404223.2134   23404227.3964
     -3850.5314      -3000.4144
  20590006.75143  16039745.53142  25222527.9324   25222533.8854
     -4275.3914      -3331.4734
  -6731737.26545  -5131340.05645  23534966.1664   23534969.8694
      1018.9694        794.0024
 98  7  7 16 45 45.0020000  0  7G24G 5G30G10G 8G 9G 6
   9491876.71246   7413415.38246  21995747.3304   21995751.7954
     -3307.8594      -2577.5534
    467878.50947    369854.60646  21056532.5104   21056535.2754
     -2051.7664      -1598.7784
 -10808129.28847  -8289318.00447  21392260.8144   21392262.7714
       294.0634        229.1404
 -10869966.42046  -8310454.05046  22476482.3854   22476487.7524
       775.5164        604.2984
  11412318.42845   8892708.88345  23415222.9794   23415227.8304
     -3857.0004      -3005.4554
  20654142.08643  16089721.07942  25234732.9794   25234740.6934
     -4276.0314      -3331.9724
  -6746998.66545  -5143232.02645  23532061.7684   23532066.0684
      1015.9064        791.6154
 98  7  7 16 46  0.0020000  0  7G24G 5G30G10G 8G 9G 6
   9541539.47446   7452113.62546  22005197.3854   22005201.5104
     -3313.8914      -2582.2524
    498727.89647    393893.08146  21062402.6354   21062405.7874
     -2061.5164      -1606.3764
 -10812469.53347  -8292700.00547  21391434.7524   21391436.9204
       284.6414        221.7984
 -10881528.42046  -8319463.37346  22474282.5024   22474287.3424
       766.0314        596.9074
  11470220.02645   8937826.97145  23426241.4084   23426245.4514
     -3863.2344      -3010.3124
  20718286.15043  16139703.36742  25246938.6434   25246943.7404
     -4276.5784      -3332.3994
  -6762215.59745  -5155089.36645  23529166.2524   23529169.9554
      1013.0314        789.3754
 98  7  7 16 46 15.0020000  0  7G24G 5G30G10G 8G 9G 6
   9591294.40846   7490883.69546  22014665.3384   22014669.6864
     -3320.0944      -2587.0864
    529725.26147    418046.86746  21068301.3304   21068304.6824
     -2071.4844      -1614.1444
 -10816666.21047  -8295970.13347  21390636.3544   21390638.4044
       274.8754        214.1884
 -10892947.10046  -8328361.01846  22472109.4394   22472114.3854
       756.4694        589.4564
  11528215.44245   8983018.17445  23437277.7364   23437281.9554
     -3869.4694      -3015.1704
  20782439.71243  16189693.11742  25259147.0644   25259150.9674
     -4277.2814      -3332.9464
  -6777389.78845  -5166913.37345  23526279.0494   23526282.6824
      1010.2344        787.1964
 98  7  7 16 46 30.0020000  0  7G24G 5G30G10G 8G 9G 6
   9641143.00746   7529726.74046  22024151.3934   22024155.9514
     -3326.3124      -2591.9324
    560874.53447    442319.02446  21074228.7604   21074232.2054
     -2081.7194      -1622.1194
 -10820714.85747  -8299124.91747  21389865.8614   21389867.5494
       265.0004        206.4944
 -10904221.24046  -8337146.03446  22469963.7134   22469968.7994
       746.7504        581.8834
  11586303.70945   9028281.72645  23448331.4324   23448335.1114
     -3875.5784      -3019.9314
  20846606.81743  16239693.38542  25271357.3544   25271362.5574
     -4278.2664      -3333.7134
  -6792522.31845  -5178704.93845  23523398.9394   23523403.2054
      1007.5474        785.1014
 98  7  7 16 46 45.0020000  0  7G24G 5G30G10G 8G 9G 6
   9691083.94746   7568641.74046  22033654.8144   22033659.7254
     -3332.4694      -2596.7294
    592177.72847    466711.12046  21080185.4794   21080188.5254
     -2091.9844      -1630.1184
 -10824616.15647  -8302164.88647  21389123.7444   21389125.4084
       255.2344        198.8844
 -10915349.41646  -8345817.31446  22467846.2524   22467851.7714
       737.0784        574.3474
  11644483.26045   9073616.40445  23459403.1044   23459407.2524
     -3881.6414      -3024.6554
  20910788.27343  16289704.87342  25283571.0104   25283575.6504
     -4279.2504      -3334.4814
  -6807619.20945  -5190468.72145  23520526.1274   23520530.0184
      1005.4694        783.4824
 98  7  7 16 47  0.0020000  0  7G24G 5G30G10G 8G 9G 6
   9741118.29046   7607629.52146  22043176.1114   22043181.0214
     -3338.7034      -2601.5874
    623635.24047    491223.45546  21086171.7834   21086174.8074
     -2102.2664      -1638.1294
 -10828369.86847  -8305089.84947  21388409.3144   21388411.1074
       245.3754        191.2014
 -10926331.45046  -8354374.71846  22465756.3384   22465761.9394
       727.2664        566.7004
  11702754.94145   9119022.88745  23470491.4944   23470496.6154
     -3887.8444      -3029.4894
  20974986.96743  16339729.75042  25295787.7054   25295793.2134
     -4280.5314      -3335.4794
  -6822684.48545  -5202207.88245  23517659.2604   23517663.3614
      1003.3134        781.8024
 98  7  7 16 47 15.0020000  0  7G24G 5G30G10G 8G 9G 6
   9791246.30146   7646690.29846  22052715.0024   22052719.6434
     -3345.0004      -2606.4944
    655245.61747    515854.91046  21092187.0184   21092189.9474
     -2112.3914      -1646.0194
 -10831976.92047  -8307900.53747  21387722.7754   21387724.7094
       235.6254        183.6044
 -10937165.42146  -8362816.76146  22463695.0024   22463700.5454
       717.2974        558.9334
  11761119.48445   9164501.71145  23481597.9944   23481603.0804
     -3894.0004      -3034.2864
  21039205.48543  16389770.11342  25308008.6434   25308014.9244
     -4281.7974      -3336.4654
  -6837717.68145  -5213922.03645  23514798.6044   23514802.7644
      1001.1724        780.1344
 98  7  7 16 47 30.0020000  0  8G24G 5G30G10G 8G 9G 6G17
   9841469.77946   7685825.45446  22062272.4164   22062276.8574
     -3351.5784      -2611.6194
    687008.46747    540605.17046  21098231.2994   21098234.3344
     -2122.7974      -1654.1274
 -10835438.61547  -8310597.95447  21387064.1194   21387066.2054
       225.7664        175.9214
 -10947848.92246  -8371141.54046  22461661.9634   22461666.6394
       707.0784        550.9704
  11819574.64745   9210051.17145  23492721.2294   23492724.6504
     -3900.0784      -3039.0224
  21103443.10943  16439825.35342  25320233.0184   25320236.9794
     -4283.2034      -3337.5614
  -6852719.37345  -5225611.65145  23511943.8464   23511948.4754
       998.9694        778.4174
    -10872.11553                  25765862.3304
      2174.0634
 98  7  7 16 47 45.0020000  0  8G24G 5G30G10G 8G 9G 6G17
   9891790.13446   7725036.10546  22071847.5254   22071851.8734
     -3357.8754      -2616.5264
    718926.52147    565476.37246  21104305.1354   21104308.2294
     -2133.0624      -1662.1274
 -10838753.94347  -8313181.31847  21386433.2444   21386435.3544
       216.1724        168.4464
 -10958381.77346  -8379348.93146  22459657.1664   22459661.8544
       697.2504        543.3124
  11878118.43545   9255669.66345  23503862.0334   23503866.3464
     -3905.8914      -3043.5514
  21167696.45742  16489892.88042  25332458.7054   25332463.9554
     -4284.0314      -3338.2064
  -6867690.12545  -5237277.16445  23509094.9794   23509099.9824
       997.0634        776.9324
    -43455.42042                  25759663.7604
      2170.2504
 98  7  7 16 48  0.0020000  0  8G24G 5G30G10G 8G 9G 6G17
   9942204.88946   7764320.31046  22081441.2754   22081445.7524
     -3364.1094      -2621.3844
    750999.74747    590468.49346  21110408.2684   21110411.3734
     -2143.4534      -1670.2234
 -10841923.94947  -8315651.45047  21385829.9084   21385831.9474
       206.4384        160.8604
 -10968767.60846  -8387441.76346  22457680.9794   22457685.8424
       687.4844        535.7024
  11936752.38745   9301358.42345  23515020.2214   23515024.4754
     -3912.0314      -3048.3364
  21231962.23043  16539970.00042  25344689.0644   25344694.7714
     -4284.8124      -3338.8154
  -6882631.33545  -5248919.63345  23506251.8614   23506256.1864
       995.0314        775.3494
    -75980.00742                  25753474.5104
      2166.3134
 98  7  7 16 48 15.0020000  0  8G24G 5G30G10G 8G 9G 6G17
   9992710.31646   7803675.17946  22091052.7524   22091057.1004
     -3369.9694      -2625.9504
    783230.04647    615583.00046  21116541.5494   21116544.7014
     -2154.0164      -1678.4544
 -10844948.86647  -8318008.52247  21385254.3074   21385256.1704
       196.7814        153.3364
 -10979008.34946  -8395421.54146  22455732.0884   22455737.0574
       677.8444        528.1904
  11995477.65945   9347118.34745  23526195.0644   23526199.6824
     -3918.0944      -3053.0604
  21296239.06342  16590055.78042  25356919.6894   25356925.5024
     -4285.5314      -3339.3754
  -6897541.81445  -5260538.17045  23503414.3144   23503418.0644
       992.9384        773.7184
   -108444.07742                  25747296.3144
      2162.2034
 98  7  7 16 48 30.0020000  0  8G24G 5G30G10G 8G 9G 6G17
  10043302.54146   7843097.68446  22100680.3694   22100684.5764
     -3375.5624      -2630.3084
    815618.80547    640820.98746  21122705.1744   21122708.1394
     -2164.4064      -1686.5504
 -10847828.30447  -8320252.23447  21384706.5104   21384708.4434
       187.2344        145.8974
 -10989104.60746  -8403288.73046  22453811.0104   22453816.0844
       668.3444        520.7874
  12054293.52945   9392948.89445  23537387.4634   23537392.4794
     -3924.0314      -3057.6874
  21360528.10842  16640151.10442  25369153.5024   25369159.5024
     -4286.2814      -3339.9594
  -6912420.31445  -5272131.78345  23500583.2214   23500587.1824
       990.8914        772.1234
   -140846.46842                  25741130.4714
      2158.1884
 98  7  7 16 48 45.0020000  0  8G24G 5G30G10G 8G 9G 6G17
  10093976.47146   7882583.84046  22110323.1894   22110327.4324
     -3380.9694      -2634.5214
    848161.74847    666179.12046  21128897.7444   21128900.6504
     -2174.7034      -1694.5744
 -10850566.50647  -8322385.89347  21384185.4554   21384187.3894
       177.7504        138.5064
 -10999056.92846  -8411043.76046  22451917.2294   22451922.7484
       658.5004        513.1174
  12113198.24845   9438848.64145  23548596.2294   23548600.9394
     -3930.0314      -3062.3624
  21424824.40743  16690252.05842  25381389.4634   25381395.2524
     -4286.5944      -3340.2034
  -6927266.80546  -5283700.45545  23497758.0184   23497761.9204
       988.5634        770.3084
   -173189.04642     -6714.58152  25734974.2994   25734979.8424
      2154.1414       1678.5514
 98  7  7 16 49  0.0020000  0  8G24G 5G30G10G 8G 9G 6G17
  10144732.40747   7922133.90846  22119981.6194   22119985.9794
     -3386.4534      -2638.7954
    880858.81047    691657.34346  21135119.7994   21135122.8574
     -2184.8284      -1702.4634
 -10853160.78947  -8324407.41147  21383691.5024   21383693.3544
       168.1884        131.0554
 -11008860.23046  -8418682.68146  22450051.7754   22450056.9084
       648.5944        505.3984
  12172194.91245   9484820.03845  23559822.7364   23559827.9284
     -3936.1254      -3067.1104
  21489125.23943  16740356.53642  25393625.8614   25393631.6504
     -4286.8124      -3340.3734
  -6942076.88245  -5295240.74545  23494939.7214   23494942.8034
       986.0784        768.3734
   -205472.32842    -31870.28042  25728832.2994   25728839.2174
      2150.3594       1675.6054
 98  7  7 16 49 15.0020000  0  8G24G 5G30G10G 8G 9G 6G17
  10195569.68546   7961747.36646  22129655.4634   22129659.7054
     -3391.7974      -2642.9594
    913706.16647    717252.68046  21141370.4714   21141373.4474
     -2194.7974      -1710.2314
 -10855612.84347  -8326318.10047  21383225.0804   21383226.8384
       158.8284        123.7624
 -11018516.18246  -8426206.77346  22448214.1824   22448218.6464
       638.9694        497.8984
  12231280.61545   9530860.81645  23571067.0494   23571072.4044
     -3941.9064      -3071.6154
  21553426.92243  16790461.69242  25405861.8854   25405867.7684
     -4286.6564      -3340.2524
  -6956848.20145  -5306750.84745  23492129.0804   23492132.4904
       983.5004        766.3644
   -237701.11742    -56983.55542  25722698.8144   25722705.0614
      2146.9384       1672.9384
 98  7  7 16 49 30.0020000  0  8G24G 5G30G10G 8G 9G 6G17
  10246487.77546   8001423.78446  22139344.9714   22139349.3074
     -3397.2504      -2647.2084
    946704.19247    742965.42146  21147649.7294   21147652.7994
     -2204.9374      -1718.1334
 -10857923.13047  -8328118.32047  21382785.1974   21382787.0844
       149.1884        116.2504
 -11028028.08446  -8433618.62246  22446403.9794   22446408.3964
       629.3134        490.3734
  12290452.31745   9576968.60445  23582326.7444   23582332.5104
     -3947.6564      -3076.0964
  21617725.46543  16840564.34442  25418096.2914   25418101.5294
     -4286.4374      -3340.0814
  -6971579.91945  -5318230.09245  23489325.4474   23489329.9824
       980.7504        764.2214
   -269878.05242    -82056.53042  25716576.0414   25716584.3184
      2143.3594       1670.1504
 98  7  7 16 49 45.0020000  0  8G24G 5G30G10G 8G 9G 6G17
  10297486.06947   8041162.70346  22149049.7214   22149053.8224
     -3402.2974      -2651.1404
    979853.04547    768795.69146  21153957.8544   21153961.1354
     -2214.7194      -1725.7554
 -10860088.18847  -8329805.37647  21382373.2914   21382375.1664
       139.6094        108.7874
 -11037396.87946  -8440918.95746  22444621.1974   22444625.9794
       620.0784        483.1784
  12349709.62745   9623143.10745  23593602.9634   23593607.3344
     -3953.2194      -3080.4304
  21682019.28343  16890663.39242  25430330.6744   25430336.4284
     -4285.8914      -3339.6554
  -6986270.49145  -5329677.27045  23486529.3224   23486532.8964
       978.1724        762.2124
   -302000.58742   -107086.95042  25710463.8144   25710468.6664
      2139.8284       1667.3994
 98  7  7 16 50  0.0020000  0  8G24G 5G30G10G 8G 9G 6G17
  10348558.78546   8080959.60946  22158768.7364   22158772.9204
     -3407.2974      -2655.0374
   1013147.60347    794739.49846  21160293.6504   21160296.8034
     -2224.5474      -1733.4134
 -10862108.73947  -8331379.82647  21381988.8854   21381990.8074
       129.7974        101.1404
 -11046628.09246  -8448112.08146  22442864.4794   22442869.5414
       610.7194        475.8854
  12409052.52545   9669384.30945  23604895.8144   23604900.6784
     -3959.1724      -3085.0694
  21746305.98043  16940756.88142  25442565.9794   25442570.3504
     -4285.6874      -3339.4974
  -7000921.66845  -5341093.75045  23483741.4004   23483745.0454
       975.3134        759.9844
   -334071.60342   -132077.30341  25704360.4634   25704367.6864
      2136.3444       1664.6834
 98  7  7 16 50 15.0020000  0  8G24G 5G30G10G 8G 9G 6G17
  10399705.79646   8120814.41146  22168501.2834   22168505.5844
     -3412.3124      -2658.9454
   1046589.90247    820798.42446  21166657.2444   21166660.1504
     -2234.4844      -1741.1574
 -10863981.09547  -8332838.79847  21381632.7214   21381634.8424
       119.8444         93.3854
 -11055717.53746  -8455194.74446  22441134.9084   22441140.2404
       601.1564        468.4334
  12468485.02045   9715695.32645  23616205.2754   23616209.8224
     -3965.1414      -3089.7204
  21810589.97443  16990848.24342  25454797.9324   25454802.1394
     -4285.5314      -3339.3754
  -7015528.95245  -5352476.03645  23480962.0494   23480966.7834
       972.2814        757.6224
   -366090.40942   -157026.97841  25698267.0254   25698271.1864
      2132.8594       1661.9684
 98  7  7 16 50 30.0020000  0  8G24G 5G30G10G 8G 9G 6G17
  10450928.31346   8160728.05046  22178248.3304   22178252.6664
     -3417.3444      -2662.8654
   1080180.68747    846973.05247  21173049.4554   21173052.5964
     -2244.2664      -1748.7784
 -10865704.84247  -8334181.97847  21381304.6894   21381306.6004
       110.0314         85.7394
 -11064661.73746  -8462164.23746  22439432.9714   22439438.1744
       591.3594        460.8004
  12528006.63745   9762075.79045  23627532.5024   23627537.1434
     -3971.0314      -3094.3104
  21874871.92543  17040937.96542  25467031.0104   25467037.2094
     -4285.3914      -3339.2654
  -7030089.79445  -5363822.12945  23478190.9004   23478195.3654
       969.1724        755.1994
   -398057.62742   -181936.44641  25692183.7994   25692190.1274
      2129.5314       1659.3754
 98  7  7 16 50 45.0020000  0  8G24G 5G30G10G 8G 9G 6G17
  10502227.38046   8200701.32546  22188010.3464   22188014.9284
     -3422.5164      -2666.8954
   1113917.35947    873261.36246  21179469.6274   21179472.2994
     -2253.9534      -1756.3274
 -10867281.96947  -8335410.90647  21381004.5574   21381006.5964
       100.2814         78.1414
 -11073458.41246  -8469018.76846  22437758.9474   22437763.8694
       581.4844        453.1054
  12587615.38345   9808524.11845  23638875.5104   23638879.4004
     -3976.7974      -3098.8034
  21939149.66942  17091024.49142  25479263.0494   25479269.2484
     -4284.8914      -3338.8764
  -7044605.36545  -5375132.94345  23475429.2444   23475433.1354
       966.2664        752.9344
   -429975.98542   -206807.76142  25686109.7134   25686115.1274
      2126.2194       1656.7944
 98  7  7 16 51  0.0020000  0  8G24G 5G30G10G 8G 9G 6G17
  10553605.53346   8240736.24346  22197787.5964   22197791.9324
     -3427.8444      -2671.0474
   1147801.19447    899664.34346  21185917.4164   21185920.0414
     -2263.8284      -1764.0224
 -10868710.62247  -8336524.13847  21380732.7134   21380734.7054
        90.2814         70.3494
 -11082105.37646  -8475756.63846  22436113.4794   22436118.2134
       571.5944        445.3984
  12647311.94045   9855040.88845  23650235.5884   23650239.3504
     -3982.6094      -3103.3324
  22003421.25643  17141106.12942  25491492.7444   25491500.3184
     -4284.5944      -3338.6444
  -7059076.49846  -5386409.13145  23472674.9634   23472679.0294
       963.3284        750.6454
   -461842.44642   -231638.74542  25680045.4004   25680053.4324
      2122.7344       1654.0794
 98  7  7 16 51 15.0020000  0  8G24G 5G30G10G 8G 9G 6G17
  10605065.17846   8280834.65046  22207579.6744   22207584.5254
     -3433.4694      -2675.4304
   1181832.95347    926182.58747  21192393.4004   21192396.0494
     -2273.7814      -1771.7784
 -10869991.23647  -8337522.01447  21380488.7834   21380490.7294
        80.4224         62.6664
 -11090608.60446  -8482382.50646  22434495.3544   22434499.6434
       562.1414        438.0324
  12707092.57445   9901623.19045  23661610.6974   23661615.1394
     -3988.1564      -3107.6544
  22067689.97943  17191185.61742  25503723.6114   25503729.2954
     -4284.5944      -3338.6444
  -7073506.68546  -5397653.40645  23469929.2604   23469933.0214
       960.6564        748.5634
   -493658.93443   -256430.79542  25673991.8544   25673997.2214
      2119.3754       1651.4614
 98  7  7 16 51 30.0020000  0  8G24G 5G30G10G 8G 9G 6G17
  10656609.14146   8320998.75846  22217388.0414   22217392.9044
     -3439.0314      -2679.7654
   1216015.26047    952818.14146  21198898.1354   21198900.7484
     -2283.8914      -1779.6554
 -10871123.40747  -8338404.22747  21380273.4324   21380275.6234
        70.5314         54.9594
 -11098969.96646  -8488897.82846  22432904.0724   22432908.8544
       552.6724        430.6534
  12766957.24545   9948270.94845  23673002.5104   23673008.1234
     -3993.7974      -3112.0504
  22131958.58143  17241265.00142  25515952.9324   25515958.8964
     -4284.5624      -3338.6204
  -7087896.07645  -5408865.91045  23467190.9474   23467194.3934
       957.9844        746.4814
   -525422.67042   -281181.66342  25667947.8144   25667952.4674
      2115.7194       1648.6124
 98  7  7 16 51 45.0020000  0  8G24G 5G30G10G 8G 9G 6G17
  10708236.22846   8361227.63546  22227212.3854   22227217.0614
     -3444.5784      -2684.0874
   1250348.68747    979571.45047  21205431.7444   21205434.5574
     -2293.9224      -1787.4724
 -10872106.15347  -8339170.00047  21380086.4944   21380088.8264
        60.4844         47.1314
 -11107186.66746  -8495300.43946  22431340.7364   22431345.9754
       542.8754        423.0194
  12826907.76245   9994985.62145  23684410.9244   23684416.8894
     -3999.5784      -3116.5544
  22196228.25143  17291345.16042  25528183.0804   25528186.6894
     -4284.7664      -3338.7784
  -7102247.58645  -5420048.88245  23464459.7054   23464463.1154
       955.5314        744.5704
   -557131.01342   -305889.45242  25661913.7054   25661916.7644
      2112.0784       1645.7754
 98  7  7 16 52  0.0020000  0  8G24G 5G30G10G 8G 9G 6G17
  10759946.88546   8401521.64546  22237053.0804   22237057.2644
     -3450.1874      -2688.4584
   1284834.36247   1006443.39846  21211993.7994   21211996.7644
     -2304.2344      -1795.5074
 -10872938.51047  -8339818.58047  21379928.0334   21379930.3074
        50.5004         39.3514
 -11115255.89846  -8501588.13146  22429804.7604   22429810.3034
       532.9694        415.3004
  12886945.55845  10041768.29145  23695835.6664   23695841.1974
     -4005.4844      -3121.1574
  22260503.29643  17341429.52142  25540414.5024   25540421.7134
     -4285.2504      -3339.1564
  -7116561.92245  -5431202.89445  23461736.0574   23461739.6314
       953.0634        742.6464
   -588785.88642   -330555.50741  25655890.1504   25655895.3774
      2108.5474       1643.0244
 98  7  7 16 52 15.0020000  0  8G24G 5G30G10G 8G 9G 6G17
  10811743.17846   8441882.38046  22246909.5884   22246913.8184
     -3455.9224      -2692.9264
   1319477.06447   1033437.70046  21218586.1584   21218589.2644
     -2314.6874      -1803.6534
 -10873620.70147  -8340350.15447  21379798.1194   21379800.2644
        40.5164         31.5714
 -11123173.87646  -8507757.96646  22428298.4864   22428303.5844
       522.8444        407.4114
  12947071.84045  10088619.90245  23707277.6824   23707283.1544
     -4011.1414      -3125.5644
  22324785.06343  17391519.18842  25552647.0024   25552652.4864
     -4285.5474      -3339.3874
  -7130838.69946  -5442327.62845  23459019.2364   23459022.4474
       950.6254        740.7474
   -620387.28342   -355179.93341  25649876.2914   25649882.7014
      2105.0164       1640.2724
 98  7  7 16 52 30.0020000  0  8G24G 5G30G10G 8G 9G 6G17
  10863625.25046   8482309.96146  22256782.3304   22256786.6894
     -3461.7974      -2697.5044
   1354274.77347   1060552.79246  21225208.0804   21225211.2214
     -2325.0944      -1811.7614
 -10874153.47847  -8340765.30647  21379696.9634   21379699.1434
        30.4064         23.6934
 -11130942.45446  -8513811.38646  22426820.0104   22426824.3224
       512.8594        399.6314
  13007280.04545  10135535.35445  23718734.4944   23718739.7794
     -4016.6564      -3129.8624
  22389069.66043  17441610.93142  25564880.2994   25564885.8074
     -4285.8124      -3339.5944
  -7145080.94245  -5453425.45845  23456309.0334   23456312.7364
       948.2814        738.9204
   -651936.78642   -379763.94842  25643872.5644   25643877.0534
      2101.4694       1637.5084
 98  7  7 16 52 45.0020000  0  8G24G 5G30G10G 8G 9G 6G17
  10915595.45846   8522806.21046  22266671.7214   22266676.0214
     -3467.5784      -2702.0094
   1389228.40347   1087789.37746  21231859.7054   21231862.4944
     -2335.4224      -1819.8094
 -10874533.60347  -8341061.50147  21379624.6114   21379626.9554
        20.2814         15.8044
 -11138561.22146  -8519748.07146  22425370.1664   22425374.1394
       503.0004        391.9484
  13067569.96745  10182514.49145  23730208.2444   23730212.7794
     -4021.9224      -3133.9654
  22453358.47443  17491706.12342  25577113.5414   25577117.7254
     -4285.9844      -3339.7284
  -7159288.78045  -5464496.49045  23453605.2994   23453608.6274
       946.1254        737.2404
   -683430.28642   -404304.24442  25637879.0884   25637885.8144
      2097.6884       1634.5624
 98  7  7 16 53  0.0020000  0  8G24G 5G30G10G 8G 9G 6G17
  10967653.30346   8563370.74546  22276578.0804   22276582.7094
     -3473.3914      -2706.5384
   1424337.31747   1115146.95946  21238540.4324   21238543.2914
     -2345.6874      -1827.8084
 -10874760.19547  -8341238.06647  21379581.3544   21379583.3464
         9.9694          7.7684
 -11146033.58546  -8525570.66546  22423948.1664   22423952.8654
       493.3754        384.4484
  13127938.36045  10229554.76345  23741695.3384   23741700.8934
     -4027.1414      -3138.0324
  22517650.18043  17541803.42942  25589347.7134   25589352.1784
     -4286.1724      -3339.8744
  -7173465.14845  -5475542.99345  23450907.6664   23450911.8504
       944.0784        735.6454
   -714866.47742   -428799.93041  25631897.2914   25631903.2214
      2093.8444       1631.5674
 98  7  7 16 53 15.0020000  0  8G24G 5G30G10G 8G 9G 6G17
  11019797.84146   8604002.84546  22286500.6894   22286505.0724
     -3479.2194      -2711.0804
   1459600.16047   1142624.48846  21245250.7524   21245253.7874
     -2355.9694      -1835.8204
 -10874831.47047  -8341293.60047  21379567.9004   21379570.0104
        -0.4224         -0.3294
 -11153361.55746  -8531280.76346  22422553.8074   22422558.7524
       483.7194        376.9244
  13188385.16245  10276656.13745  23753198.0644   23753202.9634
     -4032.4064      -3142.1354
  22581946.07643  17591904.05542  25601582.8854   25601588.7794
     -4286.5314      -3340.1544
  -7187608.89745  -5486564.08045  23448216.0964   23448220.2324
       941.7974        733.8684
   -746245.54243   -453251.12942  25625925.7214   25625931.5454
      2090.1254       1628.6694
 98  7  7 16 53 30.0020000  0  8G24G 5G30G10G 8G 9G 6G17
  11072028.55546   8644702.08246  22296440.5494   22296445.6824
     -3484.8594      -2715.4754
   1495015.49847   1170220.84246  21251990.1274   21251992.9864
     -2366.0474      -1843.6734
 -10874746.99947  -8341227.77747  21379583.9634   21379586.1664
       -10.9064         -8.4984
 -11160544.26246  -8536877.67346  22421187.0254   22421192.2054
       473.9064        369.2784
  13248910.44745  10323818.66545  23764715.3384   23764719.9084
     -4037.6874      -3146.2504
  22646245.93043  17642007.80942  25613818.7134   25613825.5574
     -4286.6724      -3340.2644
  -7201718.89846  -5497558.87545  23445530.8854   23445534.6464
       939.4534        732.0414
   -777568.99843   -477658.98242  25619965.9634   25619972.5964
      2086.2344       1625.6374
 98  7  7 16 53 45.0020000  0  8G24G 5G30G10G 8G 9G 6G17
  11124341.29046   8685465.23946  22306394.4714   22306399.1704
     -3490.1414      -2719.5904
   1530580.69247   1197933.97846  21258758.0644   21258760.9124
     -2375.9534      -1851.3924
 -10874504.86747  -8341039.10147  21379629.9324   21379632.0644
       -21.3754        -16.6564
 -11167577.38946  -8542358.02146  22419848.2994   22419853.3144
       463.8594        361.4494
  13309516.15045  10371043.84945  23776248.2214   23776253.2834
     -4042.9844      -3150.3774
  22710545.01543  17692110.85642  25626054.1354   25626058.8934
     -4286.5474      -3340.1664
  -7215792.12746  -5508525.00445  23442853.1744   23442857.2524
       937.0164        730.1424
   -808832.81843   -502020.32442  25614016.0644   25614024.8344
      2082.3134       1622.5814
 98  7  7 16 54  0.0020000  0  8G24G 5G30G10G 8G 9G 6G17
  11176734.19346   8726290.86046  22316365.2604   22316369.8654
     -3495.5314      -2723.7914
   1566294.48147   1225762.89846  21265554.1044   21265557.1504
     -2385.8284      -1859.0874
 -10874104.57647  -8340727.17747  21379705.8774   21379708.0104
       -31.9224        -24.8744
 -11174459.94446  -8547721.02946  22418538.7604   22418543.4944
       453.9224        353.7054
  13370200.49145  10418330.31645  23787796.8464   23787801.0414
     -4048.1874      -3154.4324
  22774842.65843  17742212.88742  25638290.3694   25638295.8654
     -4286.4064      -3340.0574
  -7229827.12046  -5519461.34345  23440182.0334   23440185.6314
       934.3134        728.0364
   -840038.32043   -526336.24642  25608077.5804   25608082.2564
      2078.5164       1619.6234
 98  7  7 16 54 15.0020000  0  8G24G 5G30G10G 8G 9G 6G17
  11229205.58446   8767177.65146  22326349.7684   22326354.1044
     -3500.6724      -2727.7964
   1602155.09947   1253706.22746  21272378.0184   21272380.8184
     -2395.5944      -1866.6964
 -10873549.77947  -8340294.87247  21379811.6824   21379813.7794
       -42.0944        -32.8004
 -11181195.13146  -8552969.21646  22417257.2604   22417261.8774
       444.0474        346.0114
  13430960.62345  10465675.82645  23799358.4634   23799362.3074
     -4053.2194      -3158.3524
  22839134.37043  17792310.19642  25650524.8544   25650531.0534
     -4285.8444      -3339.6194
  -7243822.40646  -5530366.73845  23437519.0104   23437523.4164
       931.6724        725.9784
   -871188.14042   -550608.78642  25602149.8544   25602157.1354
      2074.7344       1616.6764
 98  7  7 16 54 30.0020000  0  8G24G 5G30G10G 8G 9G 6G17
  11281755.08346   8808125.30546  22336350.0334   22336354.7444
     -3505.9374      -2731.8994
   1638161.14947   1281762.88046  21279229.8544   21279232.7834
     -2405.2194      -1874.1964
 -10872840.78547  -8339742.40447  21379946.6114   21379948.6394
       -52.4374        -40.8604
 -11187781.27246  -8558101.26146  22416003.7604   22416008.3774
       434.1254        338.2794
  13491797.29745  10513081.00445  23810935.8694   23810939.5494
     -4058.3754      -3162.3704
  22903417.48043  17842400.88842  25662756.6114   25662761.2404
     -4285.3124      -3339.2054
  -7257776.40246  -5541239.97345  23434864.0574   23434867.9364
       928.8444        723.7744
   -902279.27743   -574835.62042  25596233.0334   25596239.2324
      2070.7504       1613.5714
 98  7  7 16 54 45.0020000  0  8G24G 5G30G10G 8G 9G 6G17
  11334382.51446   8849133.66246  22346364.2444   22346368.8964
     -3511.0474      -2735.8814
   1674310.89647   1309931.50746  21286108.9794   21286112.2014
     -2414.7814      -1881.6484
 -10871978.04447  -8339070.13647  21380110.6354   21380112.4984
       -62.6094        -48.7874
 -11194218.71946  -8563117.44446  22414778.8774   22414783.6114
       424.1564        330.5114
  13552712.43945  10560547.32745  23822527.1894   23822531.4674
     -4063.6564      -3166.4854
  22967693.26143  17892485.83342  25674988.3614   25674994.4904
     -4284.7974      -3338.8034
  -7271688.13146  -5552080.25545  23432215.9864   23432218.7524
       926.0474        721.5954
   -933311.31143   -599016.39742  25590327.4324   25590332.4004
      2066.8284       1610.5154
 98  7  7 16 55  0.0020000  0  8G24G 5G30G10G 8G 9G 6G17
  11387085.86546   8890201.19346  22356393.5494   22356397.8504
     -3516.0784      -2739.8014
   1710604.49247   1338212.22446  21293015.3614   21293018.5144
     -2424.3914      -1889.1364
 -10870964.31947  -8338280.21647  21380303.9004   21380306.0334
       -72.5784        -56.5544
 -11200505.64446  -8568016.33946  22413582.3544   22413587.2524
       414.1094        322.6834
  13613707.31745  10608075.76745  23834134.3074   23834138.8774
     -4068.9534      -3170.6134
  23031961.55243  17942564.90242  25687218.8224   25687223.0184
     -4284.3284      -3338.4374
  -7285557.83446  -5562887.79845  23429576.7754   23429579.7994
       923.2344        719.4034
   -964284.72042   -623151.45842  25584433.4944   25584436.8224
      2063.0004       1607.5324
 98  7  7 16 55 15.0020000  0  8G24G 5G30G10G 8G 9G 6G17
  11439863.59846   8931326.68746  22366437.1434   22366442.1004
     -3521.0314      -2743.6614
   1747041.20547   1366604.46346  21299948.9554   21299951.9904
     -2433.9694      -1896.5994
 -10869800.98147  -8337373.71447  21380525.0724   21380527.2754
       -82.6254        -64.3834
 -11206641.95546  -8572797.86446  22412414.9394   22412419.8384
       403.9534        314.7694
  13674781.91645  10655666.32045  23845756.8304   23845760.8614
     -4074.4064      -3174.8624
  23096222.35043  17992638.16342  25699447.2054   25699454.1234
     -4283.8594      -3338.0724
  -7299385.72846  -5573662.76045  23426945.7364   23426949.3574
       920.3754        717.1754
   -995202.65343   -647243.32842  25578550.6354   25578557.0574
      2059.3134       1604.6594
 98  7  7 16 55 30.0020000  0  8G24G 5G30G10G 8G 9G 6G17
  11492715.44446   8972509.92746  22376494.3544   22376498.9474
     -3525.8594      -2747.4234
   1783624.01547   1395110.54246  21306910.6044   21306913.8384
     -2443.7034      -1904.1844
 -10868486.62047  -8336349.53547  21380775.1974   21380777.2834
       -92.5944        -72.1514
 -11212624.17546  -8577459.31446  22411276.3934   22411280.8574
       393.6724        306.7574
  13735939.85545  10703321.84345  23857394.5574   23857398.4944
     -4079.9374      -3179.1724
  23160476.94443  18042706.63542  25711674.4244   25711679.6864
     -4283.3594      -3337.6834
  -7313169.04846  -5584403.00145  23424322.7134   23424326.1934
       917.4694        714.9114
  -1026065.19542   -671292.00242  25572677.6974   25572685.5764
      2055.7344       1601.8714
 98  7  7 16 55 45.0020000  0  8G24G 5G30G10G 8G 9G 6G17
  11545639.22246   9013749.21546  22386565.3854   22386569.8964
     -3530.6724      -2751.1734
   1820354.06747   1423731.35346  21313899.9944   21313903.0884
     -2453.7194      -1911.9894
 -10867023.74647  -8335209.62247  21381053.3074   21381055.2404
      -102.4844        -79.8584
 -11218451.47046  -8582000.04246  22410167.7054   22410172.4044
       383.2814        298.6614
  13797179.60345  10751041.09445  23869047.8774   23869053.2444
     -4085.4064      -3183.4334
  23224724.08043  18092769.20342  25723900.0334   25723905.6234
     -4282.9374      -3337.3544
  -7326910.03446  -5595110.23745  23421707.9554   23421711.1784
       914.6414        712.7074
  -1056872.74242   -695297.82342  25566815.1044   25566821.3854
      2051.9064       1598.8884
 98  7  7 16 56  0.0020000  0  8G24G 5G30G10G 8G 9G 6G17
  11598635.27546   9055044.83546  22396650.1584   22396654.0614
     -3535.4694      -2754.9114
   1857235.41647   1452470.06046  21320918.3614   21320921.4204
     -2463.7344      -1919.7934
 -10865413.63047  -8333954.98347  21381359.8304   21381362.0334
      -112.1414        -87.3824
 -11224122.72046  -8586419.18246  22409088.6194   22409093.5414
       372.9844        290.6374
  13858500.67745  10798823.71745  23880716.7444   23880721.7484
     -4090.7034      -3187.5614
  23288966.37943  18142828.10041  25736125.7604   25736131.5024
     -4282.6724      -3337.1474
  -7340609.84446  -5605785.38845  23419101.1194   23419104.4824
       912.1414        710.7594
  -1087624.64842   -719260.33441  25560963.3854   25560966.9124
      2048.4224       1596.1734
 98  7  7 16 56 15.0020000  0  8G24G 5G30G10G 8G 9G 6G17
  11651705.51346   9096398.25546  22406749.1744   22406753.4514
     -3540.4844      -2758.8194
   1894268.13647   1481326.71246  21327965.4714   21327968.1074
     -2473.8284      -1927.6584
 -10863657.39947  -8332586.49047  21381694.2524   21381696.3384
      -121.8754        -94.9684
 -11229639.13046  -8590717.67146  22408038.8074   22408043.4124
       362.6254        282.5654
  13919902.35245  10846669.14945  23892401.4794   23892407.3614
     -4096.0944      -3191.7614
  23353206.17243  18192885.04442  25748350.2214   25748356.2914
     -4282.5314      -3337.0374
  -7354272.32646  -5616431.45545  23416500.9324   23416504.5414
       909.6254        708.7994
  -1118322.34742   -743180.56142  25555121.7214   25555125.0964
      2044.7504       1593.3124
 98  7  7 16 56 30.0020000  0  8G24G 5G30G10G 8G 9G 6G17
  11704849.43546   9137809.08146  22416861.9164   22416866.2404
     -3545.2974      -2762.5694
   1931450.85747   1510300.24146  21335041.1434   21335043.5804
     -2483.7664      -1935.4024
 -10861755.72447  -8331104.66247  21382056.0884   21382058.1044
      -131.6564       -102.5894
 -11235000.15046  -8594895.07546  22407018.4084   22407022.7324
       352.3284        274.5414
  13981383.63545  10894576.61245  23904101.1894   23904105.9824
     -4101.3124      -3195.8284
  23417442.19843  18242938.95342  25760573.7754   25760578.6154
     -4282.2194      -3336.7944
  -7367898.86146  -5627049.52145  23413907.9164   23413911.6894
       907.3444        707.0214
  -1148964.60043   -767057.61641  25549290.7134   25549298.3694
      2040.9844       1590.3774
 98  7  7 16 56 45.0020000  0  7G24G 5G30G10G 8G 6G17
  11758067.06846   9179277.35346  22426988.6744   22426992.7174
     -3550.2974      -2766.4654
   1968781.90047   1539389.35847  21342144.9634   21342147.8344
     -2493.6724      -1943.1214
 -10859706.30247  -8329507.70547  21382446.0804   21382448.0724
      -141.5164       -110.2724
 -11240208.87346  -8598953.80546  22406027.1114   22406031.8464
       342.2034        266.6524
  14042941.41145  10942543.68045  23915815.1044   23915819.7564
     -4106.2974      -3199.7124
  -7381492.13946  -5637641.66545  23411321.1974   23411324.5494
       905.2194        705.3654
  -1179550.52143   -790890.75642  25543469.9474   25543475.0104
      2037.2034       1587.4314
 98  7  7 16 57  0.0020000  0  7G24G 5G30G10G 8G 6G17
  11811358.52546   9220803.15546  22437130.2214   22437134.7564
     -3555.1724      -2770.2644
   2006262.57447   1568595.06646  21349277.3144   21349280.1274
     -2503.6724      -1950.9134
 -10857508.48447  -8327795.11947  21382864.2914   21382866.3304
      -151.4694       -118.0284
 -11245263.04346  -8602892.10946  22405065.4324   22405069.8854
       331.7974        258.5434
  14104573.12145  10990568.37045  23927543.3774   23927548.4634
     -4111.1564      -3203.4984
  -7395055.16746  -5648210.23945  23408739.9634   23408742.8934
       903.2504        703.8314
  -1210079.56343   -814679.61742  25537660.5724   25537666.2094
      2033.4224       1584.4854
 98  7  7 16 57 15.0020000  0  7G24G 5G30G10G 8G 6G17
  11864723.49446   9262386.23446  22447284.9244   22447289.2134
     -3560.1254      -2774.1234
   2043892.60647   1597917.15946  21356438.2444   21356441.2564
     -2513.6254      -1958.6694
 -10855161.19047  -8325966.05247  21383310.8144   21383312.7364
      -161.4844       -125.8324
 -11250162.95446  -8606710.20546  22404133.0104   22404137.3934
       321.5944        250.5934
  14166275.91045  11038648.42245  23939284.9634   23939289.8504
     -4115.8444      -3207.1514
  -7408588.65046  -5658755.78745  23406164.9084   23406168.1784
       901.2664        702.2854
  -1240553.10943   -838425.12442  25531861.9004   25531867.0214
      2029.7664       1581.6364
 98  7  7 16 57 30.0020000  0  7G24G 5G30G10G 8G 6G17
  11918162.94146   9304027.34146  22457453.9794   22457458.5614
     -3565.0944      -2777.9954
   2081671.91447   1627355.57646  21363627.1274   21363630.1864
     -2523.5624      -1966.4124
 -10852662.59747  -8324019.09547  21383786.5254   21383788.3424
      -171.6094       -133.7224
 -11254909.92446  -8610409.12246  22403229.7294   22403234.1234
       311.3914        242.6424
  14228048.75745  11086783.10245  23951040.0644   23951045.3504
     -4120.4694      -3210.7554
  -7422091.62346  -5669277.56745  23403595.0414   23403598.6394
       899.1414        700.6294
  -1270970.99142   -862127.38742  25526073.5804   25526081.8224
      2026.0004       1578.7014
 98  7  7 16 57 45.0030000  0  7G24G 5G30G10G 8G 6G17
  11971681.49946   9345730.10046  22467638.3904   22467642.8084
     -3570.1414      -2781.9284
   2119602.96947   1656912.23646  21370845.3124   21370848.5584
     -2533.4224      -1974.0954
 -10850012.07947  -8321953.75547  21384291.0464   21384292.7804
      -181.6414       -141.5384
 -11259504.32346  -8613989.16446  22402355.2884   22402359.7064
       301.2814        234.7654
  14289892.81045  11134973.22745  23962809.1794   23962814.6754
     -4124.7344      -3214.0794
  -7435561.88846  -5679773.86745  23401032.0384   23401035.9404
       896.9384        698.9124
  -1301332.76642   -885785.84842  25520295.7804   25520300.1514
      2022.0784       1575.6454
 98  7  7 16 58  0.0030000  0  7G24G 5G30G10G 8G 6G17
  12025272.20846   9387489.07946  22477836.6404   22477840.9054
     -3575.3444      -2785.9824
   2157677.52347   1686580.71047  21378090.7494   21378093.8194
     -2543.1724      -1981.6924
 -10847212.50947  -8319772.27347  21384823.4604   21384825.2414
      -191.7814       -149.4404
 -11263948.44346  -8617452.10046  22401509.7654   22401514.1364
       291.2034        226.9124
  14351794.52645  11183208.31845  23974588.0544   23974593.8434
     -4128.9534      -3217.3664
  -7448999.48246  -5690244.69345  23398474.5854   23398479.0504
       894.6564        697.1354
  -1331632.77843   -909396.22442  25514530.2884   25514537.0624
      2017.9064       1572.3944
 98  7  7 16 58 15.0030000  0  7G24G 5G30G10G 8G 6G17
  12078941.40846   9429309.23546  22488049.2884   22488053.6124
     -3580.6254      -2790.0974
   2195895.93347   1716361.28046  21385363.5774   21385366.4484
     -2552.7194      -1989.1314
 -10844259.99247  -8317471.60547  21385385.3744   21385387.2374
      -202.0004       -157.4034
 -11268241.26146  -8620797.13546  22400692.6324   22400697.4834
       281.0944        219.0344
  14413760.02445  11231493.09345  23986379.4684   23986385.5264
     -4133.2034      -3220.6784
  -7462401.54545  -5700687.84545  23395924.2804   23395928.4174
       892.1724        695.1994
  -1361870.69143   -932958.25442  25508776.1084   25508781.2064
      2013.7504       1569.1564
 98  7  7 16 58 30.0030000  0  7G24G 5G30G10G 8G 6G17
  12132688.82146   9471190.31446  22498276.6944   22498281.4294
     -3585.6414      -2794.0064
   2234259.49147   1746254.94946  21392663.5934   21392666.6984
     -2562.3914      -1996.6684
 -10841153.78947  -8315051.18247  21385976.7414   21385978.6874
      -212.1564       -165.3174
 -11272382.20346  -8624023.82046  22399904.5694   22399909.1634
       271.0944        211.2424
  14475788.89045  11279827.22445  23998183.7494   23998188.6244
     -4137.3124      -3223.8804
  -7475762.96646  -5711099.33445  23393382.0154   23393386.2104
       889.3754        693.0194
  -1392047.10943   -956472.23642  25503033.9994   25503038.6284
      2009.8134       1566.0884
 98  7  7 16 58 45.0030000  0  7G24G 5G30G10G 8G 6G17
  12186511.03146   9513129.68046  22508519.3974   22508524.3084
     -3590.6724      -2797.9264
   2272769.74747   1776262.93446  21399992.0074   21399995.3234
     -2572.2814      -2004.3754
 -10837894.60347  -8312511.55247  21386596.7654   21386598.8514
      -222.3444       -173.2554
 -11276373.73446  -8627134.09746  22399144.9914   22399149.5034
       261.1724        203.5114
  14537879.18645  11328209.26145  24009998.8904   24010003.5544
     -4141.3594      -3227.0334
  -7489082.96746  -5721478.53345  23390847.3044   23390851.4054
       886.6564        690.9014
  -1422164.95443   -979940.61842  25497302.0384   25497310.1284
      2005.9534       1563.0804
 98  7  7 16 59  0.0030000  0  7G24G 5G30G10G 8G 6G17
  12240409.38846   9555128.37846  22518775.5774   22518780.1474
     -3595.7664      -2801.8954
   2311428.96747   1806386.99646  21407348.6474   21407351.8944
     -2582.3124      -2012.1924
 -10834483.07647  -8309853.21147  21387245.9444   21387247.9954
      -232.5944       -181.2424
 -11280215.52346  -8630127.68646  22398414.1324   22398418.8904
       251.0004        195.5844
  14600031.42745  11376639.54645  24021826.6714   24021832.1554
     -4145.6724      -3230.3944
  -7502361.39346  -5731825.32945  23388320.9134   23388324.3824
       883.7814        688.6614
  -1452225.36643  -1003364.26342  25491581.7414   25491587.0264
      2002.1254       1560.0974
 98  7  7 16 59 15.0030000  0  7G24G 5G30G10G 8G 6G17
  12294383.35946   9597186.01646  22529047.2024   22529051.9484
     -3600.7504      -2805.7794
   2350238.81547   1836628.42646  21414733.8584   21414737.0464
     -2592.2814      -2019.9594
 -10830916.42947  -8307074.00747  21387924.6404   21387926.6794
      -242.8754       -189.2534
 -11283904.99046  -8633002.57546  22397712.0694   22397716.3584
       241.0784        187.8534
  14662248.70545  11425120.51245  24033666.5854   24033671.7884
     -4149.9534      -3233.7304
  -7515594.91246  -5742137.14145  23385802.4214   23385805.7964
       880.6884        686.2504
  -1482228.95643  -1026743.69642  25485871.5384   25485875.4874
      1998.4224       1557.2124
 98  7  7 16 59 30.0030000  0  7G24G 5G30G10G 8G 6G17
  12348434.35846   9639303.65446  22539332.3824   22539337.1754
     -3605.9224      -2809.8094
   2389199.56447   1866987.44346  21422147.8434   21422150.7024
     -2602.3594      -2027.8124
 -10827196.05047  -8304175.00047  21388632.3904   21388634.5934
      -253.0474       -197.1794
 -11287445.85246  -8635761.67146  22397038.2334   22397042.5934
       231.1254        180.0974
  14724531.41145  11473652.45245  24045517.4764   24045522.6204
     -4154.2974      -3237.1144
  -7528779.63546  -5752410.93845  23383293.2964   23383296.6594
       877.4224        683.7054
  -1512174.53543  -1050077.85842  25480174.0304   25480179.8434
      1994.4224       1554.0954
 98  7  7 16 59 45.0030000  0  7G24G 5G30G10G 8G 6G17
  12402562.99846   9681481.79646  22549632.5464   22549637.1404
     -3611.1094      -2813.8514
   2428312.09347   1897464.73746  21429590.9134   21429593.6794
     -2612.5784      -2035.7754
 -10823323.87247  -8301157.71247  21389369.3904   21389371.7804
      -263.1724       -205.0694
 -11290835.93046  -8638403.28246  22396392.9684   22396397.8194
       220.9384        172.1594
  14786879.09845  11522235.04345  24057382.4524   24057387.9954
     -4158.7194      -3240.5604
  -7541915.70146  -5762646.80745  23380793.4914   23380797.1944
       874.1564        681.1614
  -1542060.61043  -1073365.63842  25474486.4134   25474491.4294
      1990.4844       1551.0274
 98  7  7 17  0  0.0030000  0  7G24G 5G30G10G 8G 6G17
  12456766.64746   9723718.40046  22559947.1404   22559951.5814
     -3616.0624      -2817.7114
   2467576.15247   1928060.09546  21437062.4214   21437065.1404
     -2622.6564      -2043.6284
 -10819302.40047  -8298024.09147  21390134.6554   21390136.8944
      -273.1094       -212.8124
 -11294074.67046  -8640926.96346  22395776.5934   22395781.4444
       210.7974        164.2574
  14849294.44645  11570870.36645  24069259.2024   24069264.6284
     -4163.4064      -3244.2134
  -7555006.60546  -5772847.49745  23378302.4214   23378306.1834
       871.3134        678.9454
  -1571889.42043  -1096608.87642  25468810.5934   25468817.3664
      1986.6254       1548.0194
 98  7  7 17  0 15.0030000  0  7G24G 5G30G10G 8G 6G17
  12511042.39446   9766011.17346  22570275.4444   22570279.9794
     -3620.7664      -2821.3764
   2506991.27047   1958773.16646  21444563.0154   21444565.8744
     -2632.7344      -2051.4814
 -10815130.23047  -8294773.03947  21390928.6404   21390930.9374
      -283.2664       -220.7264
 -11297159.79646  -8643330.94546  22395189.8124   22395194.5814
       200.4844        156.2224
  14911781.32645  11619561.43445  24081150.2104   24081155.2024
     -4168.2974      -3248.0244
  -7568056.01646  -5783015.84445  23375818.7334   23375822.6014
       868.5474        676.7904
  -1601661.41543  -1119807.78642  25463145.5154   25463151.3624
      1982.9694       1545.1704
 98  7  7 17  0 30.0030000  0  7G24G 5G30G10G 8G 6G17
  12565388.29946   9808358.61746  22580617.3744   22580621.8274
     -3625.3594      -2824.9554
   2546558.19647   1989604.53046  21452092.2884   21452095.1714
     -2642.9224      -2059.4204
 -10810806.93247  -8291404.23047  21391751.2024   21391753.1594
      -293.2344       -228.4944
 -11300091.08346  -8645615.04046  22394631.7804   22394635.8474
       190.3284        148.3084
  14974341.93045  11668309.90545  24093054.9214   24093059.8904
     -4173.1414      -3251.7984
  -7581063.85546  -5793151.81245  23373343.8824   23373347.6674
       865.8134        674.6594
  -1631380.88643  -1142965.80342  25457490.6164   25457495.2104
      1979.5634       1542.5164
 98  7  7 17  0 45.0030000  0  7G24G 5G30G10G 8G 6G17
  12619802.19346   9850759.04346  22590972.1324   22590977.0304
     -3629.9374      -2828.5234
   2586276.03847   2020553.48146  21459650.3904   21459653.2374
     -2652.7814      -2067.1024
 -10806334.16647  -8287918.95647  21392602.4214   21392604.1324
      -303.2344       -236.2874
 -11302871.23146  -8647781.37746  22394102.8434   22394106.5344
       180.3134        140.5034
  15036973.69345  11717113.88445  24104973.3904   24104979.0854
     -4177.8594      -3255.4754
  -7594033.30046  -5803257.86145  23370875.7184   23370879.2104
       863.4844        672.8454
  -1661049.06643  -1166083.79942  25451843.3904   25451849.2844
      1976.1254       1539.8384
 98  7  7 17  1  0.0030000  0  7G24G 5G30G10G 8G 6G17
  12674286.41346   9893214.25746  22601339.9444   22601345.1594
     -3634.5784      -2832.1394
   2626140.45747   2051616.65246  21467236.3584   21467239.0074
     -2662.4374      -2074.6274
 -10801710.26447  -8284315.91547  21393482.3044   21393484.2964
      -313.2504       -244.0914
 -11305499.22146  -8649829.14746  22393602.4834   22393606.8194
       170.1094        132.5534
  15099677.21345  11765973.70945  24116905.6944   24116910.5814
     -4182.5944      -3259.1644
  -7606969.60946  -5813338.07745  23368413.7104   23368417.0974
       861.3594        671.1894
  -1690663.15244  -1189159.68043  25446208.8044   25446213.5624
      1972.4534       1536.9764
 98  7  7 17  1 15.0030000  0  7G24G 5G30G10G 8G 6G17
  12728839.42346   9935723.07646  22611721.2964   22611726.5934
     -3639.0474      -2835.6214
   2666150.68947   2082793.43946  21474850.0154   21474852.8044
     -2672.2194      -2082.2484
 -10796933.95147  -8280594.10947  21394391.3044   21394393.1554
      -323.5314       -252.1024
 -11307971.36846  -8651755.47846  22393132.2964   22393137.1124
       159.6094        124.3714
  15162453.46945  11814890.25745  24128851.4524   24128856.7724
     -4187.4844      -3262.9754
  -7619871.87346  -5823391.76845  23365958.6014   23365961.9994
       859.0164        669.3634
  -1720220.07943  -1212190.99442  25440583.5304   25440588.4994
      1968.5314       1533.9204
 98  7  7 17  1 30.0030000  0  7G24G 5G30G10G 8G 6G17
  12783459.47946   9978284.14946  22622115.1714   22622119.7294
     -3643.5314      -2839.1154
   2706307.86947   2114084.74346  21482491.5304   21482494.2144
     -2681.9374      -2089.8214
 -10792004.44847  -8276752.93147  21395329.2414   21395331.2694
      -333.5784       -259.9314
 -11310286.79846  -8653559.71046  22392691.6164   22392696.6904
       149.2034        116.2624
  15225302.67845  11863863.62945  24140811.2414   24140816.4914
     -4192.2974      -3266.7254
  -7632738.87446  -5833417.99645  23363510.1404   23363513.3514
       856.6884        667.5494
  -1749717.32943  -1235175.83142  25434970.6084   25434976.5974
      1964.5784       1530.8404
 98  7  7 17  1 45.0030000  0  7G24G 5G30G10G 8G 6G17
  12838145.56646  10020896.67346  22632521.6084   22632525.6634
     -3647.8754      -2842.5004
   2746608.44147   2145487.76846  21490160.4604   21490163.2614
     -2691.4374      -2097.2244
 -10786926.10347  -8272795.77247  21396295.4684   21396297.4954
      -343.5624       -267.7114
 -11312446.10046  -8655242.26046  22392280.7414   22392285.6984
       138.7034        108.0804
  15288222.75445  11912892.21945  24152784.5694   24152789.3274
     -4197.0474      -3270.4264
  -7645573.24146  -5843418.77845  23361068.1244   23361071.5584
       854.5944        665.9174
  -1779157.19943  -1258115.98042  25429368.5694   25429373.7024
      1960.7974       1527.8944
 98  7  7 17  2  0.0030000  0  7G24G 5G30G10G 8G 6G17
  12892894.69146  10063558.31846  22642939.8044   22642944.4794
     -3651.9534      -2845.6784
   2787050.46947   2177001.02446  21497856.5224   21497859.4294
     -2700.7814      -2104.5054
 -10781696.87147  -8268721.03447  21397290.6714   21397292.8044
      -353.7194       -275.6254
 -11314447.69446  -8656801.92846  22391899.9214   22391903.9524
       128.2034         99.8994
  15351216.61445  11961978.31644  24164772.6474   24164777.7804
     -4202.0944      -3274.3594
  -7658375.92546  -5853394.87445  23358631.4604   23358635.1284
       852.4384        664.2374
  -1808540.51143  -1281011.97942  25423776.9134   25423782.6324
      1956.9694       1524.9114
 98  7  7 17  2 15.0030000  0  7G24G 5G30G10G 8G 6G17
  12947704.53446  10106267.26346  22653369.8354   22653374.8514
     -3656.0784      -2848.8924
   2827630.79147   2208622.04546  21505578.5384   21505581.8544
     -2709.9374      -2111.6404
 -10776315.14447  -8264527.47147  21398314.8274   21398316.9254
      -363.8754       -283.5394
 -11316292.47746  -8658239.39946  22391548.7574   22391552.5074
       117.7504         91.7534
  15414284.01045  12011121.70844  24176773.7414   24176779.4834
     -4206.7974      -3278.0244
  -7671145.92246  -5863345.50745  23356201.6164   23356205.1444
       850.1884        662.4844
  -1837865.28643  -1303862.41842  25418196.8274   25418202.9914
      1953.0164       1521.8304
 98  7  7 17  2 30.0030000  0  7G24G 5G30G10G 8G 6G17
  13002578.51246  10149026.18746  22663811.9444   22663816.4334
     -3660.5784      -2852.3994
   2868348.68347   2240350.25246  21513327.0854   21513330.2024
     -2719.1564      -2118.8234
 -10770780.27347  -8260214.58347  21399368.2494   21399370.1124
      -374.1254       -291.5264
 -11317980.86646  -8659555.01146  22391227.1634   22391231.2764
       107.3594         83.6574
  15477421.05445  12060319.38644  24188787.2104   24188791.6164
     -4211.5164      -3281.7004
  -7683879.01146  -5873267.38545  23353778.7414   23353782.8784
       847.5004        660.3904
  -1867131.17443  -1326666.98342  25412627.5384   25412632.8234
      1949.0944       1518.7744
 98  7  7 17  2 45.0030000  0  7G24G 5G30G10G 8G 6G17
  13057521.16846  10191838.63546  22674267.1874   22674271.5224
     -3665.0784      -2855.9054
   2909205.90347   2272187.03546  21521101.8744   21521104.5934
     -2728.4694      -2126.0804
 -10765091.38847  -8255781.67947  21400450.2804   21400452.1324
      -384.4374       -299.5624
 -11319511.96746  -8660748.06546  22390936.1714   22390940.7294
        96.7664         75.4024
  15540627.89145  12109571.42045  24200815.1714   24200820.8904
     -4216.0624      -3285.2444
  -7696570.47246  -5883156.81945  23351363.5304   23351366.7884
       844.7034        658.2104
  -1896336.31744  -1349424.22743  25407069.6944   25407075.4954
      1944.9384       1515.5364
 98  7  7 17  3  0.0030000  0  7G24G 5G30G10G 8G 6G17
  13112531.11447  10234703.50446  22684735.7264   22684740.0264
     -3669.6564      -2859.4724
   2950202.11347   2304132.11746  21528902.9374   21528905.8194
     -2737.8754      -2133.4094
 -10759246.57847  -8251227.27746  21401562.8584   21401565.1204
      -394.9844       -307.7804
 -11320882.50946  -8661816.01146  22390675.3434   22390679.9834
        85.8284         66.8794
  15603903.55245  12158877.12044  24212856.9834   24212862.3864
     -4220.7504      -3288.8964
  -7709220.73746  -5893014.15845  23348956.1474   23348960.1554
       841.8594        655.9944
  -1925478.82943  -1372132.60942  25401524.0224   25401530.3154
      1940.6564       1512.2004
 98  7  7 17  3 15.0030000  0  7G24G 5G30G10G 8G 6G17
  13167607.88746  10277620.46746  22695216.2184   22695220.5424
     -3673.8594      -2862.7484
   2991342.71447   2336189.71946  21536732.1244   21536735.1944
     -2747.4844      -2140.8974
 -10753243.99147  -8246549.92946  21402705.0934   21402707.5074
      -405.3124       -315.8284
 -11322088.33146  -8662755.59946  22390446.0854   22390450.5384
        75.0314         58.4664
  15667249.49045  12208237.54644  24224910.2264   24224916.4254
     -4225.2664      -3292.4154
  -7721825.99146  -5902836.41445  23346557.6014   23346561.4334
       838.8914        653.6814
  -1954556.62444  -1394790.60742  25395990.5694   25395995.1514
      1936.4844       1508.9494
 98  7  7 17  3 30.0030000  0  7G24G 5G30G10G 8G 6G17
  13222751.43446  10320589.45646  22705709.7334   22705714.1044
     -3678.5944      -2866.4374
   3032628.62247   2368360.53546  21544588.3044   21544591.0934
     -2757.2344      -2148.4944
 -10747083.90247  -8241749.85146  21403877.1944   21403879.3864
      -415.9844       -324.1444
 -11323131.90146  -8663568.75046  22390247.1164   22390251.1944
        64.2344         50.0534
  15730663.73545  12257651.22544  24236978.1874   24236983.8584
     -4229.9224      -3296.0434
  -7734383.56446  -5912621.52645  23344167.5304   23344171.3044
       835.5314        651.0634
  -1983571.34743  -1417399.41442  25390469.0074   25390474.1754
      1932.2194       1505.6254
 98  7  7 17  3 45.0030000  0  7G24G 5G30G10G 8G 6G17
  13277965.95846  10363613.74146  22716216.5074   22716221.2184
     -3683.3754      -2870.1624
   3074057.77647   2400642.97046  21552472.2184   21552475.0894
     -2766.6874      -2155.8604
 -10740767.07147  -8236827.64046  21405079.4214   21405081.2024
      -426.3594       -332.2284
 -11324016.30146  -8664257.87546  22390078.8274   22390082.7764
        53.5944         41.7614
  15794144.52545  12307116.74444  24249058.4374   24249063.9334
     -4234.2814      -3299.4404
  -7746893.45746  -5922369.47845  23341787.0854   23341790.8944
       832.4064        648.6284
  -2012524.93943  -1439960.65143  25384959.2964   25384962.9054
      1928.2034       1502.4964
